.

MPMG - Transparência

Contracheque - Verbas indenizatórias e outras remunerações temporárias - Tabela III (Resolução nº 200/2019) - Pós Resolução CNMP 200/2019

Período: 2021 - Agosto

Ordem Matrícula Nome Cargo Lotação Verbas Indenizatórias *1 Outras Remunerações Temporárias *2 Data de Referência
Auxílio Alimentação Auxílio Creche Auxílio Saúde Auxílio Transporte Estagiário Indenizações Indenizações e Diligênias Adicionais de Periculosidade e Insalubridade Gratificações Outras Remunerações
1 498900 ABDON MARCIO BARBOSA DA SILVA OFICIAL DO MP ABRE CAMPO - COMARCA; ABRE CAMPO-PJ-01PJ 1.198,00 0,00 519,00 0,00 0,00 619,92 0,00 0,00 612,38 31/08/2021
2 293600 ABELARDO GUIMARAES CASTRO PROMOT.ENTRANC.ESPECIAL BELO HORIZONTE - COMARCA; BH-08PJ JUIZADO ESPECIAL-GAB 168PJ 1.198,00 0,00 2.691,66 0,00 5.614,85 0,00 0,00 0,00 514,69 31/08/2021
3 1237800 ABIGAIL LUISA MOURA MAGALHAES DORNELAS ESTAGIARIO ABRE CAMPO; ABRE CAMPO-PJ-01PJ 0,00 0,00 0,00 54,00 723,00 0,00 0,00 0,00 0,00 31/08/2021
4 1296800 ADAILDO ALVES NASCIMENTO JUNIOR ESTAGIARIO NANUQUE; NANUQUE-PJ-02PJ 0,00 0,00 0,00 117,00 0,00 0,00 0,00 0,00 0,00 31/08/2021
5 99200 ADALBERTO DE PAULA CHRISTO LEITE PROMOT.ENTRANC.ESPECIAL SÃO JOÃO DEL REI - COMARCA; SAO JOAO DEL REI-PJ-02PJ 1.198,00 0,00 3.368,91 0,00 28.074,25 0,00 0,00 0,00 514,69 31/08/2021
6 177800 ADALBERTO MENEZES FARIA SAMORA OFICIAL DO MP BELO HORIZONTE - COMARCA; DIR ESTRUTURA E PROCESSOS ORGANIZACIONAIS 1.198,00 0,00 519,00 0,00 0,00 0,00 0,00 0,00 0,00 31/08/2021
7 306400 ADALBERTO MOREIRA GONCALVES ANALISTA DO MP BELO HORIZONTE - COMARCA; BH-24PJ JUIZO REG BARREIRO-SECRETARIA 1.198,00 0,00 519,00 0,00 0,00 0,00 0,00 0,00 0,00 31/08/2021
8 1150100 ADAO ABADE DE BARROS JUNIOR ESTAGIARIO OLIVEIRA; OLIVEIRA-PJ-01PJ
9 100400 ADELAIDE CRISTINA DE CARVALHO MACHADO PROCURADOR DE JUSTICA BELO HORIZONTE - COMARCA; GABINETE DE PROCURADOR DE JUSTIÇA - SALA 708 1.198,00 0,00 998,51 0,00 17.731,11 0,00 0,00 0,00 541,78 31/08/2021
10 96500 ADELIA LAGE DE OLIVEIRA PROCURADOR DE JUSTICA BELO HORIZONTE - COMARCA; GABINETE DE PROCURADOR DE JUSTIÇA - SALA 403 1.198,00 0,00 1.302,41 0,00 17.731,11 0,00 0,00 0,00 541,78 31/08/2021
11 49200 ADEMAR PEREIRA PROMOTOR 2A ENTRANCIA MACHADO - COMARCA; MACHADO-PJ-01PJ 1.198,00 0,00 3.038,96 0,00 16.002,33 0,00 0,00 0,00 488,96 31/08/2021
12 179300 ADENISE AUXILIADORA SOUZA SAD OFICIAL DO MP BARBACENA - COMARCA; BARBACENA-PJ-06PJ 1.198,00 0,00 519,00 0,00 0,00 0,00 0,00 0,00 0,00 31/08/2021
13 272200 ADILSON BATISTA ORNELAS OFICIAL DO MP LAVRAS - COMARCA; LAVRAS-PJ-SECRETARIA 1.198,00 0,00 519,00 0,00 0,00 0,00 0,00 0,00 0,00 31/08/2021
14 143000 ADILSON DE OLIVEIRA NASCIMENTO PROCURADOR DE JUSTICA BELO HORIZONTE - COMARCA; GABINETE DE PROCURADOR DE JUSTIÇA - SALA 614 1.198,00 0,00 2.778,48 0,00 17.731,11 0,00 0,00 0,00 541,78 31/08/2021
15 380100 ADILSON GONCALVES DE MELO JUNIOR ANALISTA DO MP ARAXÁ - COMARCA; ARAXA-PJ-05PJ 1.198,00 769,39 519,00 0,00 0,00 0,00 0,00 0,00 0,00 31/08/2021
16 148800 ADILSON JANUARIO OFICIAL DO MP BELO HORIZONTE - COMARCA; BH-22PJ PES COM DEF E IDOSOS-SECRETARIA 1.198,00 0,00 519,00 0,00 0,00 0,00 0,00 0,00 0,00 31/08/2021
17 322601 ADMILSON SILVEIRA ANALISTA DO MP SAO JOAO DO PARAISO COMARCA; SAO JOAO DO PARAISO-PJ-UNPJ 1.198,00 0,00 519,00 0,00 0,00 0,00 0,00 0,00 0,00 31/08/2021
18 1067600 ADNEIA CARVALHO NUNES ESTAGIARIO JANUARIA; JANUARIA-PJ-01PJ 0,00 0,00 0,00 180,00 0,00 0,00 0,00 0,00 0,00 31/08/2021
19 1286200 ADOLPHO ALEXANDER VON RANDOW ESTAGIARIO BELO HORIZONTE; CAO-FUNDACOES 0,00 0,00 0,00 117,00 0,00 0,00 0,00 0,00 0,00 31/08/2021
20 333700 ADRIANA ABRITTA TEIXEIRA OFICIAL DO MP BELO HORIZONTE - COMARCA; DIRET DE PESSOAL DO MINISTERIO PUBLICO - DPMP 1.198,00 0,00 519,00 0,00 0,00 0,00 0,00 0,00 0,00 31/08/2021
21 468500 ADRIANA APARECIDA FIRMINO ANALISTA DO MP CARATINGA - COMARCA; CARATINGA-PJ-04PJ 1.198,00 769,39 519,00 0,00 0,00 0,00 0,00 0,00 0,00 31/08/2021
22 326100 ADRIANA AUGUSTA AMARAL BELO OFICIAL DO MP BARBACENA - COMARCA; BARBACENA-PJ-08PJ 1.198,00 0,00 519,00 0,00 0,00 0,00 0,00 0,00 0,00 31/08/2021
23 363000 ADRIANA CARVALHO PEREIRA E SILVA COSTA PROMOTOR 2A ENTRANCIA ALÉM PARAÍBA - COMARCA; ALEM PARAIBA-PJ-02PJ 1.198,00 0,00 2.539,71 0,00 16.002,33 0,00 0,00 0,00 488,96 31/08/2021
24 605700 ADRIANA COSTA LIRA ASSESSOR/OFICIAL BELO HORIZONTE - COMARCA; COORD ESTADUAL DE DEFESA DA EDUCACAO 1.198,00 0,00 519,00 0,00 0,00 0,00 0,00 0,00 0,00 31/08/2021
25 541100 ADRIANA CRISTINA DE OLIVEIRA OFICIAL DO MP GUAPÉ - COMARCA; GUAPE-PJ-UNPJ 1.198,00 769,39 519,00 0,00 0,00 0,00 0,00 0,00 0,00 31/08/2021
26 254800 ADRIANA DAS GRACAS FERNANDES ANALISTA DO MP UBERABA - COMARCA; UBERABA-PJ-07PJ 1.198,00 0,00 519,00 0,00 0,00 0,00 0,00 0,00 0,00 31/08/2021
27 217400 ADRIANA DE CARVALHO CATAO BRAGA ASSESSOR BELO HORIZONTE - COMARCA; DIV FISCAL ADM CONT TERCEIRIZACAO 1.198,00 0,00 519,00 0,00 0,00 0,00 0,00 0,00 0,00 31/08/2021
28 434600 ADRIANA FERREIRA DA SILVA ANALISTA DO MP BELO HORIZONTE - COMARCA; BH-14PJ DEFESA CONSUMIDOR-GAB 112PJ 1.198,00 0,00 519,00 0,00 5.443,76 0,00 0,00 0,00 499,01 31/08/2021
29 499800 ADRIANA FERREIRA TIAGO OFICIAL DO MP SALINAS - COMARCA; SALINAS-PJ-02PJ 1.198,00 0,00 519,00 0,00 0,00 0,00 0,00 0,00 0,00 31/08/2021
30 543400 ADRIANA GUIMARAES NUNES DE PAULA ANALISTA DO MP PATROCÍNIO - COMARCA; PATROCINIO-PJ-01PJ 1.198,00 0,00 519,00 0,00 0,00 0,00 0,00 0,00 0,00 31/08/2021
31 471500 ADRIANA HORTA DE CARVALHO RODRIGUES DE SOUSA ANALISTA DO MP BELO HORIZONTE - COMARCA; GRUPO ESP PROM JUST DEF PROB ADM PAT PUB 1.198,00 0,00 519,00 0,00 0,00 0,00 0,00 0,00 0,00 31/08/2021
32 314300 ADRIANA JULIA DE SOUZA PROMOT.ENTRANC.ESPECIAL BELO HORIZONTE - COMARCA; BH-25PJ DEFESA DA EDUCACAO-GAB 050PJ 1.198,00 0,00 2.939,50 0,00 5.614,85 0,00 0,00 0,00 514,69 31/08/2021
33 1148500 ADRIANA LACERDA SOARES ESTAGIARIO RAUL SOARES; RAUL SOARES-PJ-UNPJ
34 86400 ADRIANA MOREIRA CALDEIRA BRANT OFICIAL DO MP BELO HORIZONTE - COMARCA; BH-21PJ TUTELA FUNDACOES-SECRETARIA 1.198,00 0,00 519,00 0,00 0,00 0,00 0,00 0,00 0,00 31/08/2021
35 480700 ADRIANA MOREIRA DE AVELLAR CEZILIO OFICIAL DO MP BELO HORIZONTE - COMARCA; BH-18PJ VIOLENCIA DOMESTICA-SECRETARIA 1.198,00 0,00 519,00 0,00 0,00 0,00 0,00 0,00 0,00 31/08/2021
36 326000 ADRIANA PEREIRA CARNEIRO RESENDE OFICIAL DO MP BELO HORIZONTE - COMARCA; BH-25PJ DEFESA DA EDUCACAO-SECRETARIA 1.198,00 0,00 519,00 0,00 0,00 0,00 0,00 0,00 0,00 31/08/2021
37 502200 ADRIANA PETRUCCI DAVINA OFICIAL DO MP PATROCÍNIO - COMARCA; PATROCINIO-PJ-01PJ 1.198,00 769,39 519,00 0,00 0,00 0,00 0,00 0,00 766,34 31/08/2021
38 685200 ADRIANA PRATES DOS SANTOS PROMOTOR SUBSTITUTO NOVA SERRANA - COMARCA; NOVA SERRANA-PJ-04PJ 1.198,00 0,00 987,79 0,00 0,00 0,00 0,00 0,00 0,00 31/08/2021
39 201900 ADRIANA REIS PIMENTA OFICIAL DO MP TEÓFILO OTONI - COMARCA; TEOFILO OTONI-PJ-03PJ 1.198,00 0,00 519,00 0,00 0,00 0,00 0,00 0,00 0,00 31/08/2021
40 278700 ADRIANA RODRIGUES PINTO COELHO AMARAL ANALISTA DO MP BELO HORIZONTE - COMARCA; CGMP-ASSESSORIA JURIDICA 1.198,00 0,00 519,00 0,00 0,00 0,00 0,00 0,00 0,00 31/08/2021
41 468000 ADRIANA SANTOS DE SANTANA MOREIRA ANALISTA DO MP ARAÇUAÍ - COMARCA; ARACUAI-PJ-02PJ 1.198,00 0,00 519,00 0,00 0,00 0,00 0,00 0,00 0,00 31/08/2021
42 1294000 ADRIANA SILVA CASTRO ESTAGIARIO BELO HORIZONTE; BH-12PJ JUIZO CRIMINAL-GAB 088PJ 0,00 0,00 0,00 162,00 0,00 0,00 0,00 0,00 0,00 31/08/2021
43 290900 ADRIANA TORRES BECK PROMOT.ENTRANC.ESPECIAL BELO HORIZONTE - COMARCA; BH-18PJ VIOLENCIA DOMESTICA-GAB 124PJ 1.198,00 0,00 3.125,80 0,00 5.614,85 0,00 0,00 0,00 514,69 31/08/2021
44 194700 ADRIANA TSUKIDE OFICIAL DO MP UBERABA - COMARCA; COORD REG BACIAS PARANAIBA BAIXO RIO GRANDE 1.198,00 0,00 519,00 0,00 5.797,94 0,00 0,00 0,00 531,48 31/08/2021
45 1202300 ADRIANA TULIO DUARTE DOS SANTOS ESTAGIARIO IPATINGA; IPATINGA-PJ-05PJ 0,00 0,00 0,00 180,00 0,00 0,00 0,00 0,00 0,00 31/08/2021
46 291500 ADRIANA VITAL DO VALLE PROMOT.ENTRANC.ESPECIAL SÃO JOÃO DEL REI - COMARCA; SAO JOAO DEL REI-PJ-06PJ 1.198,00 0,00 2.344,34 0,00 0,00 0,00 0,00 0,00 0,00 31/08/2021
47 212900 ADRIANO ARANTES BOZOLA PROMOT.ENTRANC.ESPECIAL UBERLÂNDIA - COMARCA; UBERLANDIA-PJ-21PJ 1.198,00 0,00 3.368,91 0,00 16.844,55 0,00 0,00 0,00 514,69 31/08/2021
48 174200 ADRIANO BOTELHO ESTRELA PROMOT.ENTRANC.ESPECIAL BELO HORIZONTE - COMARCA; BH-12PJ JUIZO CRIMINAL-GAB 095PJ 1.198,00 0,00 1.953,61 0,00 5.614,85 0,00 0,00 0,00 514,69 31/08/2021
49 465500 ADRIANO CASSIANO MATOS ANALISTA DO MP ARAXÁ - COMARCA; ARAXA-PJ-02PJ 1.198,00 0,00 519,00 0,00 0,00 0,00 0,00 0,00 0,00 31/08/2021
50 500500 ADRIANO DE ALMEIDA SILVA OFICIAL DO MP UBERABA - COMARCA; UBERABA-PJ-12PJ 1.198,00 769,39 519,00 0,00 0,00 0,00 0,00 0,00 0,00 31/08/2021
51 187200 ADRIANO DE FREITAS MARON OFICIAL DO MP PONTE NOVA - COMARCA; PONTE NOVA-PJ-03PJ 1.198,00 0,00 519,00 0,00 0,00 0,00 0,00 0,00 0,00 31/08/2021
52 344000 ADRIANO DUTRA GOMES DE FARIA PROMOT.ENTRANC.ESPECIAL VESPASIANO - COMARCA; VESPASIANO-PJ-04PJ 1.198,00 0,00 2.496,29 0,00 5.614,85 0,00 0,00 0,00 514,69 31/08/2021
53 477900 ADRIANO FERREIRA DE ALMEIDA OFICIAL DO MP TAIOBEIRAS - COMARCA; TAIOBEIRAS-PJ-UNPJ 1.198,00 0,00 519,00 0,00 0,00 0,00 0,00 0,00 0,00 31/08/2021
54 1301100 ADRIANO GUILHERME SILVA ESTAGIARIO POMPEU; POMPEU-PJ-UNPJ 0,00 0,00 0,00 207,00 0,00 0,00 0,00 0,00 0,00 31/08/2021
55 269101 ADRIANO PEREIRA SILVA ANALISTA DO MP UBERABA - COMARCA; UBERABA-PJ-02PJ 1.198,00 512,93 519,00 0,00 0,00 0,00 0,00 0,00 0,00 31/08/2021
56 414200 ADRIANO RODRIGUES FERNANDES ANALISTA DO MP CARANDAÍ - COMARCA; CARANDAI-PJ-UNPJ 1.198,00 0,00 519,00 0,00 0,00 0,00 0,00 0,00 0,00 31/08/2021
57 1299400 ADRIELE RODRIGUES ATAIDE ESTAGIARIO BELO HORIZONTE; GABINETE DE PROCURADOR DE JUSTIÇA - SALA 1010 0,00 0,00 0,00 0,00 181,00 0,00 0,00 0,00 0,00 31/08/2021
58 536700 ADRIELLE COSTA MARIA MOURAO FIGUEIREDO OFICIAL DO MP SERRO - COMARCA; SERRO-PJ-SECRETARIA 1.198,00 769,39 519,00 0,00 0,00 0,00 0,00 0,00 0,00 31/08/2021
59 514300 ADRIENE DAMASCENO BRAGA ANALISTA DO MP ALFENAS - COMARCA; ALFENAS-PJ-03PJ 1.198,00 769,39 519,00 0,00 0,00 0,00 0,00 0,00 0,00 31/08/2021
60 254600 ADRIENE DOMINGUES COSTA ANALISTA DO MP BELO HORIZONTE - COMARCA; SUPERINTENDENCIA GESTÃO DE PESSOAS
61 252001 ADRIENE GOMES BARRETO ANALISTA DO MP BELO HORIZONTE - COMARCA; BH-19PJ SAUDE-SECRETARIA 047PJ 1.198,00 0,00 519,00 0,00 0,00 0,00 0,00 0,00 0,00 31/08/2021
62 84100 ADROALDO JUNQUEIRA AYRES NETO PROMOT.ENTRANC.ESPECIAL UBERABA - COMARCA; UBERABA-PJ-12PJ 1.198,00 0,00 3.368,91 0,00 5.614,85 0,00 0,00 0,00 514,69 31/08/2021
63 1315900 ADSON GUSTAVO DE OLIVEIRA ESTAGIARIO BELO HORIZONTE; GABINETE DE PROCURADOR DE JUSTIÇA - SALA 909 0,00 0,00 0,00 171,00 0,00 0,00 0,00 0,00 0,00 31/08/2021
64 162700 AECIO RABELO PROMOTOR 2A ENTRANCIA LAVRAS - COMARCA; LAVRAS-PJ-04PJ 1.198,00 0,00 2.431,16 0,00 5.334,11 0,00 0,00 0,00 488,96 31/08/2021
65 645000 AFONSO CELSO GUIMARAES JUNIOR OFICIAL DO MP PIRAPORA - COMARCA; PIRAPORA-PJ-01PJ 1.198,00 0,00 519,00 0,00 0,00 0,00 0,00 0,00 0,00 31/08/2021
66 97600 AFONSO HENRIQUE DE MIRANDA TEIXEIRA PROCURADOR DE JUSTICA BELO HORIZONTE - COMARCA; CAO-CONFLITOS AGRARIOS 1.198,00 0,00 3.321,14 0,00 17.731,11 0,00 0,00 0,00 541,78 31/08/2021
67 1207200 AFRA YASMIM DA SILVA ESTAGIARIO BELO HORIZONTE; DIRET DE FORMACAO, APERFEIC. E POS-GRADUACAO
68 610000 AGENOR ANDRADE LEAO PROMOT.ENTRANC.ESPECIAL TEÓFILO OTONI - COMARCA; TEOFILO OTONI-PJ-05PJ 1.198,00 0,00 3.122,34 0,00 5.614,85 0,00 0,00 0,00 514,69 31/08/2021
69 302500 AGENOR JOSE DA SILVA JUNIOR ANALISTA DO MP JUIZ DE FORA - COMARCA; JUIZ DE FORA-PJ-14PJ 1.198,00 0,00 519,00 0,00 0,00 0,00 0,00 0,00 0,00 31/08/2021
70 344100 AGNALDO LUCAS COTRIM PROMOT.ENTRANC.ESPECIAL POUSO ALEGRE - COMARCA; POUSO ALEGRE-PJ-02PJ 1.198,00 0,00 3.324,57 0,00 12.352,67 0,00 0,00 0,00 514,69 31/08/2021
71 67400 AIDA FERNANDES LISBOA MARINHO PROCURADOR DE JUSTICA BELO HORIZONTE - COMARCA; GABINETE DE PROCURADOR DE JUSTIÇA - SALA 604 1.198,00 0,00 3.047,76 0,00 10.638,67 0,00 0,00 0,00 541,78 31/08/2021
72 1160200 AIESKA TALITA QUEIROZ MOTA ESTAGIARIO PIRAPORA; PIRAPORA-PJ-01PJ 0,00 0,00 0,00 207,00 0,00 0,00 0,00 0,00 0,00 31/08/2021
73 1194700 AILA QUINTAO MAYR ESTAGIARIO BELO HORIZONTE; BH-26 CRIME CONT CRIAN ADOL-GAB 048PJ 0,00 0,00 0,00 171,00 0,00 0,00 0,00 0,00 0,00 31/08/2021
74 357500 AILSON WAGNER DE ALENCAR SILVA OFICIAL DO MP BELO HORIZONTE - COMARCA; BH-12PJ JUIZO CRIMINAL-SECRETARIA 1.198,00 0,00 519,00 0,00 0,00 0,00 0,00 0,00 0,00 31/08/2021
75 366400 AILTON ALEXSSANDRO ALVES OFICIAL DO MP PARÁ DE MINAS - COMARCA; PARA DE MINAS-PJ-05PJ 1.198,00 0,00 519,00 0,00 0,00 0,00 0,00 0,00 0,00 31/08/2021
76 318900 AILTON DE CASTRO RIBEIRO JUNIOR OFICIAL DO MP ITAJUBA - COMARCA; ITAJUBA-PJ-01PJ 1.198,00 769,39 519,00 0,00 0,00 0,00 0,00 0,00 0,00 31/08/2021
77 533100 AIMARA DE BRITTO DIAS LEITE PROMOTOR SUBSTITUTO SANTA LUZIA - COMARCA; SANTA LUZIA-PJ-02PJ 1.198,00 0,00 1.519,48 0,00 5.067,40 0,00 0,00 0,00 464,51 31/08/2021
78 439100 AIRTON BATISTA COSTA NETO NEPOMUCENO PROMOTOR 2A ENTRANCIA ITUIUTABA - COMARCA; ITUIUTABA-PJ-04PJ 1.198,00 0,00 3.200,47 0,00 5.334,11 0,00 0,00 0,00 488,96 31/08/2021
79 341600 ALAM BAENA BERTOLLA DOS SANTOS PROMOTOR 2A ENTRANCIA ARAGUARI - COMARCA; ARAGUARI-PJ-05PJ 1.198,00 0,00 2.604,82 0,00 26.670,55 0,00 0,00 0,00 488,96 31/08/2021
80 175700 ALAN CARRIJO RAMOS PROMOTOR 1A ENTRANCIA PRATÁPOLIS - COMARCA; PRATAPOLIS-PJ-UNPJ 1.198,00 0,00 3.040,44 0,00 5.067,40 0,00 0,00 0,00 464,51 31/08/2021
81 1099500 ALAN GOMES BARBOSA JUNIOR ESTAGIARIO JOAO PINHEIRO; JOAO PINHEIRO-PJ-02PJ 0,00 0,00 0,00 189,00 0,00 0,00 0,00 0,00 162,90 31/08/2021
82 464400 ALAN MONTEIRO GASPAR ANALISTA DO MP SETE LAGOAS - COMARCA; SETE LAGOAS-PJ-08PJ 1.198,00 0,00 519,00 0,00 0,00 0,00 0,00 0,00 0,00 31/08/2021
83 1195800 ALAN PATRICK BORGES OLIVEIRA ESTAGIARIO UBERLANDIA; UBERLANDIA-PJ-02PJ 0,00 0,00 0,00 72,00 0,00 0,00 0,00 0,00 0,00 31/08/2021
84 1244100 ALANA COSTA SALES MOREIRA ESTAGIARIO LAVRAS; LAVRAS-PJ-03PJ 0,00 0,00 0,00 189,00 0,00 0,00 0,00 0,00 0,00 31/08/2021
85 492000 ALANA DE CASTRO FREITAS OFICIAL DO MP ITUMIRIM - COMARCA; ITUMIRIM-PJ-SECRETARIA 1.198,00 0,00 519,00 0,00 0,00 0,00 0,00 0,00 1.224,76 31/08/2021
86 1200300 ALANA KATHERINE FERREIRA DA SILVA ESTAGIARIO GOVERNADOR VALADARES; COORD REG DO MA DA BACIA DO RIO DOCE 0,00 0,00 0,00 207,00 0,00 0,00 0,00 0,00 0,00 31/08/2021
87 306700 ALANA MARCIA DE OLIVEIRA OFICIAL DO MP BELO HORIZONTE - COMARCA; DIRETORIA DE ADMINISTRACAO FINANCEIRA 1.198,00 0,00 519,00 0,00 0,00 0,00 0,00 0,00 0,00 31/08/2021
88 324500 ALANMAR COUTINHO COSTA OFICIAL DO MP LEOPOLDINA - COMARCA; LEOPOLDINA-PJ-02PJ 1.198,00 0,00 519,00 0,00 0,00 0,00 0,00 0,00 0,00 31/08/2021
89 170800 ALBERTO BOGLIOLO SIRIHAL PROMOT.ENTRANC.ESPECIAL BELO HORIZONTE - COMARCA; BH-05PJ JUIZO SUCESSÕES-GAB CARGO 045PJ 1.198,00 0,00 2.105,57 0,00 24.705,34 0,00 0,00 0,00 514,69 31/08/2021
90 1160400 ALBERTO DOS ANJOS GODEFROID ESTAGIARIO OURO PRETO; OURO PRETO-PJ-01PJ
91 407300 ALBERTO LUIZ SOARES DE OLIVEIRA ANALISTA DO MP BELO HORIZONTE - COMARCA; DIRETORIA DE PROJETOS DE EDIFICACOES 1.198,00 0,00 519,00 0,00 0,00 0,00 0,00 0,00 0,00 31/08/2021
92 118200 ALBERTO PEREIRA DA COSTA OFICIAL DO MP DORES DO INDAIÁ - COMARCA; DORES DO INDAIA-PJ-UNPJ 1.198,00 0,00 519,00 0,00 0,00 0,00 0,00 0,00 0,00 31/08/2021
93 1084700 ALBERTO RISI NETO ESTAGIARIO RIBEIRAO DAS NEVES; RIBEIRAO DAS NEVES-PJ-12PJ 0,00 0,00 0,00 45,00 0,00 0,00 0,00 0,00 0,00 31/08/2021
94 72000 ALBINO VITORIO BERNARDO PROCURADOR DE JUSTICA BELO HORIZONTE - COMARCA; GABINETE DE PROCURADOR DE JUSTIÇA - SALA 710 1.198,00 0,00 1.302,41 0,00 17.731,11 0,00 0,00 0,00 541,78 31/08/2021
95 660700 ALCIDEZIO JOSE DE OLIVEIRA BISPO JUNIOR PROMOT.ENTRANC.ESPECIAL CARATINGA - COMARCA; CARATINGA-PJ-01PJ 1.198,00 0,00 3.368,91 0,00 5.614,85 0,00 0,00 0,00 514,69 31/08/2021
96 282400 ALCILENE MARISE DE ARAUJO ANALISTA DO MP BELO HORIZONTE - COMARCA; BH-23PJ INF-FISC MED SOC FEC 1.198,00 0,00 519,00 0,00 0,00 0,00 0,00 0,00 0,00 31/08/2021
97 112600 ALCIONE DA MOTA JARDIM OFICIAL DO MP BELO HORIZONTE - COMARCA; CAO-CRIANCAS E ADOLESCENTES-SECRETARIA 1.198,00 0,00 519,00 0,00 0,00 0,00 0,00 0,00 0,00 31/08/2021
98 396400 ALCIONE DE FREITAS E SILVA ANALISTA DO MP BELO HORIZONTE - COMARCA; ASSESS JUR DO CONS SUPERIOR DO MINISTERIO PUB 1.198,00 0,00 519,00 0,00 0,00 0,00 0,00 0,00 0,00 31/08/2021
99 657400 ALCIONE MARIA FERREIRA ASSESSOR PROCURADOR JUSTICA BELO HORIZONTE - COMARCA; GABINETE DE PROCURADOR DE JUSTIÇA - SALA 610 1.198,00 0,00 519,00 0,00 0,00 0,00 0,00 0,00 0,00 31/08/2021
100 161600 ALCIONE NERY SOUZA ASSESSOR BELO HORIZONTE - COMARCA; BH-18PJ DIREITOS HUMANOS-SECRETARIA 1.198,00 0,00 519,00 0,00 0,00 0,00 0,00 0,00 0,00 31/08/2021
101 92000 ALCIR ARANTES PROMOT.ENTRANC.ESPECIAL UBERABA - COMARCA; UBERABA-PJ-03PJ 1.198,00 0,00 2.604,82 0,00 11.229,70 0,00 0,00 0,00 514,69 31/08/2021
102 376000 ALDA GOMES LANA OFICIAL DO MP BELO HORIZONTE - COMARCA; BH-18PJ VIOLENCIA DOMESTICA-SECRETARIA 1.198,00 0,00 519,00 0,00 0,00 0,00 0,00 0,00 0,00 31/08/2021
103 148000 ALDA MARTINS SIMOES OFICIAL DO MP BELO HORIZONTE - COMARCA; BH-23PJ CIVEL- FISC ENT AB POL 1.198,00 0,00 519,00 0,00 5.224,18 0,00 0,00 0,00 478,88 31/08/2021
104 89200 ALDECIR RESENDE BOLLESI DE PLA E SANT'ANNA PROMOT.ENTRANC.ESPECIAL CONTAGEM - COMARCA; CONTAGEM-PJ-08PJ 1.198,00 0,00 2.192,39 0,00 0,00 0,00 0,00 0,00 0,00 31/08/2021
105 457700 ALDERICO DE CARVALHO JUNIOR PROMOTOR 2A ENTRANCIA BELO HORIZONTE - COMARCA; PROC JUST ATUACAO TRIBUNAIS SUPERIORES-GAB002 1.198,00 0,00 2.452,88 0,00 5.334,11 0,00 0,00 0,00 488,96 31/08/2021
106 318400 ALDO CREPALDI JUNIOR OFICIAL DO MP BELO HORIZONTE - COMARCA; DIVISAO DE MATERIAIS 1.198,00 0,00 519,00 0,00 0,00 0,00 0,00 0,00 0,00 31/08/2021
107 604500 ALENIZE APARECIDA RODRIGUES HENRIQUE OFICIAL DO MP RIO NOVO - COMARCA; RIO NOVO-PJ-UNPJ 1.198,00 0,00 519,00 0,00 0,00 0,00 0,00 0,00 0,00 31/08/2021
108 197900 ALESSA DE SOUSA E SILVA OFICIAL DO MP OLIVEIRA - COMARCA; OLIVEIRA-PJ-02PJ 1.198,00 0,00 519,00 0,00 0,00 114,00 0,00 0,00 0,00 31/08/2021
109 428500 ALESSANDRA ALVES DINIZ OFICIAL DO MP BELO HORIZONTE - COMARCA; CENTRAL DE APOIO TECNICO-SECRETARIA 1.198,00 0,00 519,00 0,00 5.878,84 0,00 0,00 0,00 538,89 31/08/2021
110 1239800 ALESSANDRA ARAUJO DE OLIVEIRA ESTAGIARIO CARANGOLA; CARANGOLA-PJ-02PJ 0,00 0,00 0,00 207,00 0,00 0,00 0,00 0,00 0,00 31/08/2021
111 286801 ALESSANDRA BOTELHO JUNQUEIRA DE MENEZES ANALISTA DO MP PASSOS - COMARCA; PASSOS-PJ-05PJ 1.198,00 769,39 519,00 0,00 0,00 0,00 0,00 0,00 0,00 31/08/2021
112 1069900 ALESSANDRA CAROLINE PELEGRINO ESTAGIARIO BRASOPOLIS; BRASOPOLIS-PJ-UNPJ 0,00 0,00 0,00 189,00 0,00 0,00 0,00 0,00 0,00 31/08/2021
113 307000 ALESSANDRA CRISTINA SANTOS MENDES ANALISTA DO MP BELO HORIZONTE - COMARCA; BH-18PJ VIOLENCIA DOMESTICA-SECRETARIA 1.198,00 0,00 519,00 0,00 0,00 0,00 0,00 0,00 0,00 31/08/2021
114 264400 ALESSANDRA DE SOUZA SANTOS ANALISTA DO MP BELO HORIZONTE - COMARCA; SUPERINTENDENCIA DOS ORGAOS COLEGIADOS 1.198,00 0,00 519,00 0,00 0,00 0,00 0,00 0,00 0,00 31/08/2021
115 441500 ALESSANDRA DRUMMOND DE FIGUEIREDO ROSSI ANALISTA DO MP BELO HORIZONTE - COMARCA; DIRETORIA DE PROJETOS DE EDIFICACOES 1.198,00 0,00 519,00 0,00 0,00 0,00 0,00 0,00 0,00 31/08/2021
116 1309800 ALESSANDRA KELLY DA SILVA ROCHA ESTAGIARIO RIBEIRAO DAS NEVES; RIBEIRAO DAS NEVES-PJ-08PJ 0,00 0,00 0,00 36,00 0,00 0,00 0,00 0,00 0,00 31/08/2021
117 524000 ALESSANDRA LUCIOLI DE BARROS GUERRA ANALISTA DO MP BELO HORIZONTE - COMARCA; BH-19PJ SAUDE--SECRETARIA 1.198,00 0,00 519,00 0,00 0,00 0,00 0,00 0,00 0,00 31/08/2021
118 479900 ALESSANDRA MARA ANDRADE DE FARIA OFICIAL DO MP UBERABA - COMARCA; UBERABA-PJ-09PJ 1.198,00 0,00 519,00 0,00 0,00 0,00 0,00 0,00 0,00 31/08/2021
119 226700 ALESSANDRA MARA VASCONCELOS REZENDE OFICIAL DO MP CONSELHEIRO LAFAIETE - COMARCA; CONSELHEIRO LAFAIETE-PJ-07PJ 1.198,00 0,00 519,00 0,00 0,00 0,00 0,00 0,00 0,00 31/08/2021
120 112100 ALESSANDRA MARCIA FERREIRA OFICIAL DO MP BELO HORIZONTE - COMARCA; BELO HORIZONTE- SECRETARIA DAS PROMOTORIAS 1.198,00 0,00 519,00 0,00 0,00 0,00 0,00 0,00 0,00 31/08/2021
121 196500 ALESSANDRA MARIA RIBEIRO LUCIANO OFICIAL DO MP RIO PARANAÍBA - COMARCA; RIO PARANAIBA-PJ-UNPJ 1.198,00 0,00 519,00 0,00 0,00 0,00 0,00 0,00 0,00 31/08/2021
122 91400 ALESSANDRA MENDES VASCONCELOS DE SOUZA OFICIAL DO MP BELO HORIZONTE - COMARCA; BH-23PJ INF-FISC MED SOC AB 1.198,00 0,00 519,00 0,00 0,00 0,00 0,00 0,00 0,00 31/08/2021
123 1257300 ALESSANDRA MIRANDA REZENDE ESTAGIARIO RIBEIRAO DAS NEVES; RIBEIRAO DAS NEVES-PJ-02PJ 0,00 0,00 0,00 18,00 0,00 0,00 0,00 0,00 0,00 31/08/2021
124 290500 ALESSANDRA PINTO CASSIANO PROMOTOR 2A ENTRANCIA BOA ESPERANÇA - COMARCA; BOA ESPERANCA-PJ-02PJ 1.198,00 0,00 1.302,41 0,00 5.334,11 0,00 0,00 0,00 488,96 31/08/2021
125 651700 ALESSANDRA PROFIRIO SOUZA OFICIAL DO MP NOVA ERA - COMARCA; NOVA ERA-PJ-UNPJ 1.198,00 0,00 519,00 0,00 0,00 0,00 0,00 0,00 0,00 31/08/2021
126 384900 ALESSANDRA RODRIGUES ANALISTA DO MP VISCONDE DO RIO BRANCO - COMARCA; VISCONDE DO RIO BRANCO-PJ-03PJ 1.198,00 769,39 519,00 0,00 0,00 0,00 0,00 0,00 0,00 31/08/2021
127 390000 ALESSANDRA SPADANO MASSARA VASCONCELOS OFICIAL DO MP BETIM - COMARCA; BETIM-PJ-10PJ 1.198,00 0,00 519,00 0,00 0,00 0,00 0,00 0,00 0,00 31/08/2021
128 426500 ALESSANDRO CAMPOS DE PAIVA ANALISTA DO MP BELO HORIZONTE - COMARCA; DIR CRIACAO E MIDIAS 1.198,00 0,00 519,00 0,00 0,00 0,00 0,00 0,00 1.343,52 31/08/2021
129 623400 ALESSANDRO DE OLIVEIRA REZENDE ANALISTA DO MP BELO HORIZONTE - COMARCA; DIRET DE INFORMACAO E CONHECIMENTO-DINC/CEAF 1.198,00 0,00 519,00 0,00 0,00 0,00 0,00 0,00 0,00 31/08/2021
130 1137100 ALESSANDRO GARCIA ESTAGIARIO DIVINOPOLIS; DIVINOPOLIS-PJ-06PJ 0,00 0,00 0,00 198,00 0,00 0,00 0,00 0,00 0,00 31/08/2021
131 174100 ALESSANDRO GARCIA SILVA PROMOT.ENTRANC.ESPECIAL DIVINÓPOLIS - COMARCA; DIVINOPOLIS-PJ-12PJ 1.198,00 0,00 2.431,16 0,00 11.229,70 0,00 0,00 0,00 514,69 31/08/2021
132 308201 ALESSANDRO RAMOS MACHADO PROMOTOR 2A ENTRANCIA ALFENAS - COMARCA; ALFENAS-PJ-04PJ 1.198,00 0,00 2.604,82 0,00 5.334,11 0,00 0,00 0,00 488,96 31/08/2021
133 665700 ALESSANDRO ROGERIO DIAS DE OLIVEIRA PROMOT.ENTRANC.ESPECIAL CARATINGA - COMARCA; CARATINGA-PJ-07PJ 1.198,00 0,00 1.432,66 0,00 5.614,85 0,00 0,00 0,00 514,69 31/08/2021
134 420600 ALESSANDRO SILVA OFICIAL DO MP VISCONDE DO RIO BRANCO - COMARCA; VISCONDE DO RIO BRANCO-PJ-02PJ 1.198,00 0,00 519,00 0,00 0,00 0,00 0,00 0,00 0,00 31/08/2021
135 171100 ALESSIA ALVES DE ALVARENGA SANTA BARBARA PROMOT.ENTRANC.ESPECIAL CONSELHEIRO LAFAIETE - COMARCA; CONSELHEIRO LAFAIETE-PJ-06PJ 1.198,00 0,00 3.368,91 0,00 16.844,55 0,00 0,00 0,00 514,69 31/08/2021
136 57800 ALESSIO GUIMARAES PROCURADOR DE JUSTICA BELO HORIZONTE - COMARCA; GABINETE DE PROCURADOR DE JUSTIÇA - SALA 508 1.198,00 0,00 2.604,82 0,00 5.910,37 0,00 0,00 0,00 541,78 31/08/2021
137 375301 ALETHEIA PATRICIA ASSIS MORAIS MOREIRA ANALISTA DO MP ITABIRA - COMARCA; ITABIRA-PJ-02PJ 1.198,00 1.538,78 519,00 0,00 0,00 0,00 0,00 0,00 0,00 31/08/2021
138 1296700 ALEX CANDIDO MACIEL LOPES ESTAGIARIO ITABIRITO; ITABIRITO-PJ-01PJ 0,00 0,00 0,00 72,00 0,00 0,00 0,00 0,00 0,00 31/08/2021
139 382300 ALEX CARVALHO LIMA ANALISTA DO MP UBERLÂNDIA - COMARCA; UBERLANDIA-PJ-14PJ 1.198,00 0,00 519,00 0,00 0,00 0,00 0,00 0,00 0,00 31/08/2021
140 195201 ALEX DE CASTRO PEREIRA ANALISTA DO MP UBERABA - COMARCA; UBERABA-PJ-09PJ 1.198,00 0,00 519,00 0,00 0,00 0,00 0,00 0,00 0,00 31/08/2021
141 358900 ALEX DE PAULA LANZA ASSESSOR BELO HORIZONTE - COMARCA; DIR CONTEUDO JORNALISTICO 1.198,00 769,39 519,00 0,00 0,00 0,00 0,00 0,00 0,00 31/08/2021
142 171400 ALEX FERNANDES SANTIAGO PROMOT.ENTRANC.ESPECIAL JUIZ DE FORA - COMARCA; JUIZ DE FORA-PJ-08PJ 1.198,00 0,00 1.758,25 0,00 11.229,70 0,00 0,00 0,00 514,69 31/08/2021
143 685300 ALEX RAFAEL BITTENCOURT PROMOTOR SUBSTITUTO JUIZ DE FORA - COMARCA; JUIZ DE FORA-PJ-15PJ 1.198,00 0,00 759,74 0,00 0,00 0,00 0,00 0,00 0,00 31/08/2021
144 178400 ALEX RODRIGO SALDANHA GUIMARAES OFICIAL DO MP BELO HORIZONTE - COMARCA; DIRETORIA DE SISTEMAS DE INFORMACAO 1.198,00 0,00 519,00 0,00 0,00 0,00 0,00 0,00 0,00 31/08/2021
145 314100 ALEX SOARES NACIF PROMOT.ENTRANC.ESPECIAL CONTAGEM - COMARCA; CONTAGEM-PJ-15PJ 1.198,00 0,00 911,69 0,00 5.614,85 0,00 0,00 0,00 514,69 31/08/2021
146 413500 ALEX VILELA OLIVEIRA ANALISTA DO MP GOVERNADOR VALADARES - COMARCA; COORD REG PJ DEF EDU DIR CRIANCA ADOL RIODOCE 1.198,00 0,00 519,00 0,00 5.620,98 0,00 0,00 0,00 515,26 31/08/2021
147 1274500 ALEXANDER MAXIMILIANO FERREIRA SILVA ESTAGIARIO BELO HORIZONTE; BH-13ª PJ JUÍXO DE TÓXICOS 0,00 0,00 0,00 189,00 0,00 0,00 0,00 0,00 0,00 31/08/2021
148 264300 ALEXANDRA FATIMA SARAIVA SOARES ANALISTA DO MP BELO HORIZONTE - COMARCA; CENTRAL DE APOIO TECN-SETOR DE MEIO AMBIENTE 1.198,00 0,00 519,00 0,00 0,00 0,00 0,00 0,00 0,00 31/08/2021
149 488000 ALEXANDRA LARA PAIS DE CARVALHO ANALISTA DO MP SERRO - COMARCA; SERRO-PJ-UNPJ 1.198,00 0,00 519,00 0,00 0,00 0,00 0,00 0,00 3.020,88 31/08/2021
150 256300 ALEXANDRA SANTOS GOMES OFICIAL DO MP BELO HORIZONTE - COMARCA; DIRETORIA GESTAO COMPRAS LICITACOES 1.198,00 0,00 519,00 0,00 0,00 0,00 0,00 0,00 0,00 31/08/2021
151 236300 ALEXANDRE ALVES DE OLIVEIRA PROMOT.ENTRANC.ESPECIAL BELO HORIZONTE - COMARCA; BH-12PJ JUIZO CRIMINAL-GAB 101PJ 1.198,00 0,00 998,51 0,00 5.614,85 0,00 0,00 0,00 514,69 31/08/2021
152 1316000 ALEXANDRE ALVES SANTANA ESTAGIARIO BELO HORIZONTE; BH-09PJ AUDITORIA MILITAR-GAB 073PJ 0,00 0,00 0,00 144,00 0,00 0,00 0,00 0,00 0,00 31/08/2021
153 403300 ALEXANDRE AUGUSTO RODRIGUES ANALISTA DO MP ÁGUAS FORMOSAS - COMARCA; AGUAS FORMOSAS-PJ-UNPJ 1.198,00 1.538,78 519,00 0,00 5.800,10 0,00 0,00 0,00 531,68 31/08/2021
154 640900 ALEXANDRE BARBOSA MASCARENHAS ANALISTA DO MP BETIM - COMARCA; BETIM-PJ-02PJ 1.198,00 0,00 519,00 0,00 0,00 0,00 0,00 0,00 269,67 31/08/2021
155 311700 ALEXANDRE BARCELOS RESENDE OFICIAL DO MP BELO HORIZONTE - COMARCA; BH-19PJ SAUDE-SECRETARIA 047PJ 1.198,00 769,39 519,00 0,00 0,00 0,00 0,00 0,00 0,00 31/08/2021
156 293700 ALEXANDRE BRASILEIRO DE QUEIROZ PROMOT.ENTRANC.ESPECIAL BELO HORIZONTE - COMARCA; BH-12PJ JUIZO CRIMINAL-GAB 092PJ 1.198,00 0,00 3.368,91 0,00 16.844,55 0,00 0,00 0,00 514,69 31/08/2021
157 285600 ALEXANDRE CAMPOS DE OLIVEIRA OFICIAL DO MP UBERABA - COMARCA; COORD REG BACIAS PARANAIBA BAIXO RIO GRANDE 1.198,00 0,00 519,00 0,00 0,00 0,00 0,00 0,00 0,00 31/08/2021
158 509200 ALEXANDRE CAPUANO DE REZENDE ANALISTA DO MP BELO HORIZONTE - COMARCA; BH-07PJ 02 TRIBUNAL DO JURI-GAB 109PJ 1.198,00 0,00 519,00 0,00 0,00 0,00 0,00 0,00 0,00 31/08/2021
159 229400 ALEXANDRE CARLOS BOTREL DIRETOR/OFICIAL BELO HORIZONTE - COMARCA; SUPERINTENDENCIA DOS ORGAOS COLEGIADOS 1.198,00 0,00 519,00 0,00 0,00 0,00 0,00 0,00 0,00 31/08/2021
160 411900 ALEXANDRE CARVALHO SANTOS RIBEIRO ANALISTA DO MP OLIVEIRA - COMARCA; OLIVEIRA-PJ-02PJ 1.198,00 769,39 519,00 0,00 0,00 0,00 0,00 0,00 0,00 31/08/2021
161 1245200 ALEXANDRE CHAVES SAMPAIO ESTAGIARIO BELO HORIZONTE; BH-12PJ JUIZO CRIMINAL-GAB 095PJ 0,00 0,00 0,00 207,00 0,00 0,00 0,00 0,00 0,00 31/08/2021
162 641600 ALEXANDRE DA SILVA ASSUNCAO OFICIAL DO MP BELO HORIZONTE - COMARCA; SERVICO MEDICO-DEPTO PERIC MEDICA SAUDE OCUP 1.198,00 0,00 519,00 0,00 0,00 0,00 0,00 0,00 0,00 31/08/2021
163 201200 ALEXANDRE DE ALENCAR CORDEIRO OFICIAL DO MP ÁGUAS FORMOSAS - COMARCA; AGUAS FORMOSAS-PJ-UNPJ 1.198,00 0,00 519,00 0,00 0,00 0,00 0,00 0,00 0,00 31/08/2021
164 288200 ALEXANDRE DE VASCONCELOS COSTA KER ANALISTA DO MP BELO HORIZONTE - COMARCA; BH-03PJ EMPRESARIAL-SECRETARIA 1.198,00 0,00 519,00 0,00 0,00 0,00 0,00 0,00 0,00 31/08/2021
165 445000 ALEXANDRE DIOGENES OLIVEIRA ANALISTA DO MP SALINAS - COMARCA; SALINAS-PJ-02PJ 1.198,00 769,39 519,00 0,00 0,00 0,00 0,00 0,00 0,00 31/08/2021
166 665800 ALEXANDRE FIGUEIREDO MORATO PROMOTOR 2A ENTRANCIA PIRAPORA - COMARCA; PIRAPORA-PJ-04PJ 1.198,00 0,00 716,33 0,00 5.334,11 0,00 0,00 0,00 488,96 31/08/2021
167 463400 ALEXANDRE LEAL WINKELSTROTER ANALISTA DO MP TEÓFILO OTONI - COMARCA; TEOFILO OTONI-PJ-04PJ 1.198,00 0,00 519,00 0,00 0,00 0,00 0,00 0,00 0,00 31/08/2021
168 96600 ALEXANDRE LIBERO BARONI PROMOT.ENTRANC.ESPECIAL SETE LAGOAS - COMARCA; SETE LAGOAS-PJ-04PJ 1.198,00 0,00 2.821,90 0,00 17.967,52 0,00 0,00 0,00 514,69 31/08/2021
169 1189100 ALEXANDRE LOPES PEREIRA ESTAGIARIO CANAPOLIS; CANAPOLIS-PJ-UNPJ 0,00 0,00 0,00 198,00 0,00 0,00 0,00 0,00 0,00 31/08/2021
170 615700 ALEXANDRE LUIZ DE CASTRO MACIEL ANALISTA DO MP CONTAGEM - COMARCA; CONTAGEM-PJ-01PJ 1.198,00 0,00 519,00 0,00 0,00 0,00 0,00 0,00 0,00 31/08/2021
171 356900 ALEXANDRE MOISES MENDONCA E ARAUJO OFICIAL DO MP UBERABA - COMARCA; UBERABA-PJ-13PJ 1.198,00 0,00 519,00 0,00 0,00 0,00 0,00 0,00 1.484,36 31/08/2021
172 232100 ALEXANDRE MOTTA BENEVIDES PROMOT.ENTRANC.ESPECIAL BELO HORIZONTE - COMARCA; BH-12PJ JUIZO CRIMINAL-GAB 094PJ 1.198,00 0,00 3.368,91 0,00 5.614,85 0,00 0,00 0,00 514,69 31/08/2021
173 633300 ALEXANDRE NONATO MARTINS OFICIAL DO MP IGARAPÉ - COMARCA; IGARAPE-PJ-02PJ 1.198,00 0,00 519,00 0,00 0,00 0,00 0,00 0,00 0,00 31/08/2021
174 469900 ALEXANDRE PEREIRA GUEDES ANALISTA DO MP CATAGUASES - COMARCA; CATAGUASES-PJ-03PJ 1.198,00 0,00 519,00 0,00 0,00 0,00 0,00 0,00 0,00 31/08/2021
175 208700 ALEXANDRE RESENDE FRAGA ANALISTA DO MP BELO HORIZONTE - COMARCA; BH-19PJ SAUDE-SECRETARIA 130PJ 1.198,00 0,00 519,00 0,00 0,00 0,00 0,00 0,00 0,00 31/08/2021
176 156900 ALEXANDRE REZENDE GRILLO PROMOTOR 2A ENTRANCIA SÃO GONÇALO DO SAPUCAÍ - COMARCA; SAO GONCALO DO SAPUCAI-PJ-02PJ 1.198,00 0,00 2.735,06 0,00 26.670,55 0,00 0,00 0,00 488,96 31/08/2021
177 216401 ALEXANDRE RIBEIRO DE LIMA MAIORINO ANALISTA DO MP UBERABA - COMARCA; UBERABA-PJ-03PJ 1.198,00 0,00 519,00 0,00 0,00 0,00 0,00 0,00 0,00 31/08/2021
178 475100 ALEXANDRE TEOTONIO COSTA ANALISTA DO MP ARAGUARI - COMARCA; ARAGUARI-PJ-01PJ 1.198,00 0,00 519,00 0,00 0,00 0,00 0,00 0,00 0,00 31/08/2021
179 339000 ALEXANDRE VITOR CARDOSO OFICIAL DO MP BELO HORIZONTE - COMARCA; SUPERINTENDENCIA GESTÃO DE PESSOAS 1.198,00 0,00 519,00 0,00 0,00 0,00 0,00 0,00 0,00 31/08/2021
180 1088900 ALEXANDRE VITOR FONSECA ALVES ESTAGIARIO BELO HORIZONTE; BH-19PJ SAUDE-RECEPCAO 0,00 0,00 0,00 36,00 0,00 0,00 0,00 0,00 0,00 31/08/2021
181 694000 ALEXANDRO ANTONIO PORTO E SOUZA INVESTIGADOR DE POLICIA 2 BELO HORIZONTE - COMARCA; GAECO - SETOR POLICIAL CIVIL 1.198,00 0,00 0,00 0,00 0,00 0,00 0,00 0,00 0,00 31/08/2021
182 1321800 ALEXIA DE SOUSA PIRES ALVES ESTAGIARIO 0,00 0,00 0,00 135,00 0,00 0,00 0,00 0,00 0,00 31/08/2021
183 678900 ALEXIA DUARTE TORRES ASSESSOR PROCURADOR JUSTICA BELO HORIZONTE - COMARCA; GABINETE DE PROCURADOR DE JUSTIÇA - SALA 502 1.198,00 0,00 519,00 0,00 0,00 0,00 0,00 0,00 0,00 31/08/2021
184 1273800 ALEXIA LUNA PIMENTA RABELO ESTAGIARIO BELO HORIZONTE; COORD ESTADUAL DE DEFESA DOS ANIMAIS 0,00 0,00 0,00 81,00 0,00 0,00 0,00 0,00 0,00 31/08/2021
185 1311700 ALEXIA VASCONCELOS MOREIRA ESTAGIARIO CONSELHEIRO PENA; CONSELHEIRO PENA-PJ-01PJ 0,00 0,00 0,00 207,00 0,00 0,00 0,00 0,00 0,00 31/08/2021
186 623100 ALEXSANDER BATISTA AGUIAR COORDENADOR/ANALISTA BELO HORIZONTE - COMARCA; DIRETORIA DE SUPORTE E MANUTENCAO 1.198,00 769,39 519,00 0,00 0,00 0,00 0,00 0,00 0,00 31/08/2021
187 1170300 ALEXSANDER MERCURY CASSEMIRO ALVES ESTAGIARIO BELO HORIZONTE; BH-09PJ AUDITORIA MILITAR-GAB 074PJ
188 513300 ALFSON MIRANDA BRAGA ANALISTA DO MP BELO HORIZONTE - COMARCA; BH-12PJ JUIZO CRIMINAL-GAB 092PJ 1.198,00 0,00 519,00 0,00 0,00 0,00 0,00 0,00 0,00 31/08/2021
189 157000 ALI MAHMOUD FAYEZ AYOUB PROMOTOR 2A ENTRANCIA GUAXUPÉ - COMARCA; GUAXUPE-PJ-02PJ 1.198,00 0,00 2.735,06 0,00 26.670,55 0,00 0,00 0,00 488,96 31/08/2021
190 1178100 ALICE ARAUJO CAMPOS ESTAGIARIO PARACATU; PARACATU-PJ-04PJ 0,00 0,00 0,00 171,00 0,00 0,00 0,00 0,00 0,00 31/08/2021
191 485300 ALICE DE MELLO VILELA PROMOT.ENTRANC.ESPECIAL CONTAGEM - COMARCA; CONTAGEM-PJ-06PJ 1.198,00 0,00 868,27 0,00 5.614,85 0,00 0,00 0,00 514,69 31/08/2021
192 1286400 ALICE FARIA TAYACOL ESTAGIARIO ITUIUTABA; ITUIUTABA-PJ-05PJ 0,00 0,00 0,00 180,00 0,00 0,00 0,00 0,00 0,00 31/08/2021
193 1321200 ALICE GOMES AMORIM ESTAGIARIO MONTES CLAROS; MONTES CLAROS-PJ-05PJ 0,00 0,00 0,00 135,00 0,00 0,00 0,00 0,00 0,00 31/08/2021
194 1270700 ALICE LEAO GUERRA ESTAGIARIO JUIZ DE FORA; JUIZ DE FORA-PJ-03PJ 0,00 0,00 0,00 117,00 0,00 0,00 0,00 0,00 0,00 31/08/2021
195 1297300 ALICE MACIEL PASSERI DA SILVA ESTAGIARIO SAO LOURENCO; SAO LOURENCO-PJ-03PJ 0,00 0,00 0,00 198,00 0,00 0,00 0,00 0,00 0,00 31/08/2021
196 618400 ALICE MAGALHAES MACEDO DE CARVALHO ANALISTA DO MP IPATINGA - COMARCA; IPATINGA-PJ-10PJ 1.198,00 769,39 519,00 0,00 0,00 0,00 0,00 0,00 0,00 31/08/2021
197 707000 ALICE MARIA RIBEIRO DINIZ ASSESSOR PROMOTOR JUSTICA BELO HORIZONTE - COMARCA; PROC JUST ATUACAO TRIBUNAIS SUPERIORES-GAB001 1.198,00 0,00 519,00 0,00 0,00 0,00 0,00 0,00 0,00 31/08/2021
198 471000 ALICE TITONELI MOREIRA ANALISTA DO MP MIRADOURO - COMARCA; MIRADOURO-PJ-UNPJ 1.198,00 769,39 519,00 0,00 0,00 0,00 0,00 0,00 0,00 31/08/2021
199 1206000 ALICIA PAULA RODRIGUES DE LIMA ESTAGIARIO TIROS; TIROS-PJ-UNPJ 0,00 0,00 0,00 81,00 0,00 0,00 0,00 0,00 0,00 31/08/2021
200 1303700 ALICIA SOUZA COSTA ESTAGIARIO IPATINGA; IPATINGA-PJ-09PJ 0,00 0,00 0,00 207,00 0,00 0,00 0,00 0,00 0,00 31/08/2021
201 1164000 ALINE APARECIDA CUSTODIO ESTAGIARIO SAO SEBASTIAO DO PARAISO; SAO SEBASTIAO DO PARAISO-PJ-01PJ 0,00 0,00 0,00 207,00 0,00 0,00 0,00 0,00 0,00 31/08/2021
202 622400 ALINE BALBINO PORTUGAL LOPES ANALISTA DO MP TRÊS PONTAS - COMARCA; TRES PONTAS-PJ-03PJ 1.198,00 769,39 519,00 0,00 0,00 0,00 0,00 0,00 0,00 31/08/2021
203 373000 ALINE BOTELHO RESENDE OFICIAL DO MP JUIZ DE FORA - COMARCA; JUIZ DE FORA-PJ-22PJ 1.198,00 0,00 519,00 0,00 0,00 0,00 0,00 0,00 0,00 31/08/2021
204 1276000 ALINE BRAGA MESSIAS ESTAGIARIO BELO HORIZONTE; BH-02PJ FAMILIA-GAB 023PJ
205 699800 ALINE CRISTINA DE OLIVEIRA AMARAL BARBOSA ASSESSOR PROCURADOR JUSTICA BELO HORIZONTE - COMARCA; GABINETE DE PROCURADOR DE JUSTIÇA - SALA 904 1.198,00 0,00 519,00 0,00 0,00 0,00 0,00 0,00 0,00 31/08/2021
206 407700 ALINE CRISTINA RODRIGUES PEREIRA COORDENADOR/ANALISTA BELO HORIZONTE - COMARCA; DIRETORIA DE PROJETOS DE EDIFICACOES 1.198,00 769,39 519,00 0,00 0,00 0,00 0,00 0,00 1.591,50 31/08/2021
207 193100 ALINE CRISTINA SENA OLIVEIRA OFICIAL DO MP UBERLÂNDIA - COMARCA; UBERLANDIA-PJ-03PJ 1.198,00 769,39 519,00 0,00 0,00 0,00 0,00 0,00 0,00 31/08/2021
208 554200 ALINE CRISTINA SILVA SOUZA OFICIAL DO MP TIROS - COMARCA; TIROS-PJ-UNPJ 1.198,00 0,00 519,00 0,00 0,00 0,00 0,00 0,00 0,00 31/08/2021
209 505500 ALINE DA CUNHA MARREIROS OLIVEIRA ANALISTA DO MP EUGENÓPOLIS - COMARCA; EUGENOPOLIS-PJ-UNPJ 1.198,00 1.538,78 519,00 0,00 0,00 0,00 0,00 0,00 0,00 31/08/2021
210 433500 ALINE DE MELO QUEIROZ ASSESSOR/OFICIAL BELO HORIZONTE - COMARCA; ASSESSORIA TECNICA DO PROCON-MG 1.198,00 769,39 519,00 0,00 0,00 0,00 0,00 0,00 0,00 31/08/2021
211 691100 ALINE DE MELO SOUZA ASSESSOR PROCURADOR JUSTICA BELO HORIZONTE - COMARCA; GABINETE DE PROCURADOR DE JUSTIÇA - SALA 401 1.198,00 0,00 519,00 0,00 0,00 0,00 0,00 0,00 0,00 31/08/2021
212 542700 ALINE DE SOUSA ALBINO ANALISTA DO MP CONTAGEM - COMARCA; CONTAGEM-PJ-09PJ 1.198,00 0,00 519,00 0,00 0,00 0,00 0,00 0,00 0,00 31/08/2021
213 330000 ALINE DIORIO MAYRINK OFICIAL DO MP BELO HORIZONTE - COMARCA; BH-15PJ M AMB PAT HIST CULT-GAB 115PJ 1.198,00 0,00 519,00 0,00 0,00 0,00 0,00 0,00 0,00 31/08/2021
214 499000 ALINE FERREIRA LOPES ANALISTA DO MP TEÓFILO OTONI - COMARCA; TEOFILO OTONI-PJ-09PJ 1.198,00 0,00 519,00 0,00 0,00 0,00 0,00 0,00 1.006,96 31/08/2021
215 405300 ALINE LAIA CARDOZO DIRETOR/ANALISTA BELO HORIZONTE - COMARCA; SUPERINTENDENCIA LOGISTICA SERVICOS 1.198,00 0,00 519,00 0,00 0,00 0,00 0,00 0,00 0,00 31/08/2021
216 278200 ALINE MARCIA FARIA BARBOSA FERNANDES OFICIAL DO MP BARBACENA - COMARCA; BARBACENA-PJ-SECRETARIA 1.198,00 0,00 519,00 0,00 0,00 0,00 0,00 0,00 0,00 31/08/2021
217 1091400 ALINE MARIA MARTINS SILVA ESTAGIARIO FORMIGA; FORMIGA-PJ-01PJ 0,00 0,00 0,00 90,00 0,00 0,00 0,00 0,00 0,00 31/08/2021
218 389000 ALINE NERI NOBRE ANALISTA DO MP MONTES CLAROS - COMARCA; COORD REG PJ DEF EDUC DIR CRIANCA ADOL NORTE 1.198,00 0,00 519,00 0,00 0,00 0,00 0,00 0,00 0,00 31/08/2021
219 1138600 ALINE OLIVEIRA DE FATIMA ESTAGIARIO PARACATU; GAECO REGIONAL DE PARACATU
220 294600 ALINE PATRICIA SILVA VIEIRA OFICIAL DO MP UBERLÂNDIA - COMARCA; UBERLANDIA-PJ-03PJ 1.198,00 0,00 519,00 0,00 0,00 0,00 1.445,27 0,00 0,00 31/08/2021
221 420000 ALINE RODRIGUES CAMOROPIN ANALISTA DO MP SABARÁ - COMARCA; SABARA-PJ-02PJ 1.198,00 0,00 519,00 0,00 0,00 0,00 0,00 0,00 0,00 31/08/2021
222 699600 ALINE SEPULVEDA ROSA PIRES ASSESSOR PROCURADOR JUSTICA BELO HORIZONTE - COMARCA; GABINETE DE PROCURADOR DE JUSTIÇA - SALA 905 1.198,00 0,00 519,00 0,00 0,00 0,00 0,00 0,00 0,00 31/08/2021
223 408300 ALINE SILVA ARAUJO DE PAULA ANALISTA DO MP SÃO SEBASTIÃO DO PARAÍSO - COMARCA; SAO SEBASTIAO DO PARAISO-PJ-02PJ 1.198,00 769,39 519,00 0,00 0,00 0,00 0,00 0,00 0,00 31/08/2021
224 665900 ALINE SILVA BARROS PROMOTOR 2A ENTRANCIA VARZEA DA PALMA - COMARCA; VARZEA DA PALMA-PJ-01PJ 1.198,00 0,00 716,33 0,00 14.935,51 0,00 0,00 0,00 488,96 31/08/2021
225 1182600 ALINE SILVA MONTOVANI ESTAGIARIO VARGINHA; VARGINHA-PJ-07PJ 0,00 0,00 0,00 162,00 0,00 0,00 0,00 0,00 0,00 31/08/2021
226 1323500 ALINE SIMAO DE PAULA ESTAGIARIO BELO HORIZONTE; PROC. JUSTICA DIR. DIFUSOS E COLETIVOS 0,00 0,00 0,00 9,00 0,00 0,00 0,00 0,00 0,00 31/08/2021
227 1138200 ALINE STEFANE DE OLIVEIRA ASSUNCAO ESTAGIARIO BELO HORIZONTE; BH-23PJ INFRACIONAL 0,00 0,00 0,00 99,00 0,00 0,00 0,00 0,00 0,00 31/08/2021
228 425400 ALINE TRINDADE DE FREITAS CAMPOS OFICIAL DO MP BELO HORIZONTE - COMARCA; BH-14PJ DEFESA CONSUMIDOR-SECRETARIA 1.198,00 0,00 519,00 0,00 0,00 0,00 0,00 0,00 0,00 31/08/2021
229 1111700 ALINI PEREIRA DE ALMEIDA ESTAGIARIO VICOSA; VICOSA-PJ-04PJ 0,00 0,00 0,00 135,00 0,00 0,00 0,00 0,00 144,60 31/08/2021
230 1077600 ALINY SANTOS ARRUDA ESTAGIARIO BELO HORIZONTE; BH-13PJ JUIZO DE TOXICOS-GAB 149PJ 0,00 0,00 0,00 171,00 0,00 0,00 0,00 0,00 0,00 31/08/2021
231 1255800 ALISANGELA DIAS DE SOUZA ESTAGIARIO 0,00 0,00 0,00 207,00 0,00 0,00 0,00 0,00 0,00 31/08/2021
232 517200 ALISSOM PEREIRA DA SILVA ANALISTA DO MP BORDA DA MATA - COMARCA; BORDA DA MATA-PJ-UNPJ 1.198,00 769,39 519,00 0,00 0,00 0,00 0,00 0,00 0,00 31/08/2021
233 442400 ALISSON LABRE ANALISTA DO MP VARGINHA - COMARCA; VARGINHA-PJ-03PJ 1.198,00 0,00 519,00 0,00 0,00 0,00 0,00 0,00 0,00 31/08/2021
234 643800 ALLAN PAUL FONSECA DE CASTRO OFICIAL DO MP CONTAGEM - COMARCA; CONTAGEM-PJ-SECRETARIA 1.198,00 769,39 519,00 0,00 0,00 0,00 0,00 0,00 0,00 31/08/2021
235 612900 ALLAN VINICIUS VIEIRA ARAUJO COORDENADOR/OFICIAL BELO HORIZONTE - COMARCA; DIRETORIA DE GESTAO DOCUMENTAL 1.198,00 0,00 519,00 0,00 0,00 0,00 0,00 0,00 0,00 31/08/2021
236 1275700 ALLAN WILIAN PRATES PINTO FIDELES ESTAGIARIO CURVELO; CURVELO-PJ-04PJ 0,00 0,00 0,00 207,00 0,00 0,00 0,00 0,00 0,00 31/08/2021
237 1081200 ALLANA RODRIGUES DA CRUZ ESTAGIARIO PEDRA AZUL; PEDRA AZUL-PJ-01PJ
238 349000 ALLEC RODRIGUES VIEIRA OFICIAL DO MP BELO HORIZONTE - COMARCA; EXTINTA-COORD EST DEF DIR FAM PES DEFIC IDOSO 1.198,00 0,00 519,00 0,00 0,00 0,00 0,00 0,00 0,00 31/08/2021
239 532400 ALLENDER BARRETO LIMA DA SILVA PROMOTOR 1A ENTRANCIA BELO HORIZONTE - COMARCA; COORD COMB RACISMO E TODA FORM DISCRIM 1.198,00 0,00 759,74 0,00 0,00 0,00 0,00 0,00 0,00 31/08/2021
240 297300 ALLYSON SALIBA MONTEIRO LAIZO ANALISTA DO MP CONSELHEIRO LAFAIETE - COMARCA; CONSELHEIRO LAFAIETE-PJ-03PJ 1.198,00 1.538,78 519,00 0,00 0,00 0,00 0,00 0,00 0,00 31/08/2021
241 68900 ALMIR ALVES MOREIRA PROCURADOR DE JUSTICA BELO HORIZONTE - COMARCA; GABINETE DE PROCURADOR DE JUSTIÇA - SALA 1012 1.198,00 0,00 2.496,29 0,00 5.910,37 0,00 0,00 0,00 541,78 31/08/2021
242 226601 ALMIR GERALDO GUIMARAES PROMOTOR 2A ENTRANCIA MATEUS LEME - COMARCA; MATEUS LEME-PJ-02PJ 1.198,00 0,00 2.648,24 0,00 16.002,33 0,00 0,00 0,00 488,96 31/08/2021
243 303700 ALMIR LOPES LOURES ANALISTA DO MP BELO HORIZONTE - COMARCA; CENTRAL DE APOIO TECN-SETOR DE MEIO AMBIENTE 1.198,00 0,00 519,00 0,00 0,00 0,00 0,00 0,00 0,00 31/08/2021
244 1253700 ALOISIO CORREA DE FARIA JUNIOR ESTAGIARIO GOVERNADOR VALADARES; COORD REG DO MA DA BACIA DO RIO DOCE 0,00 0,00 0,00 207,00 0,00 0,00 0,00 0,00 0,00 31/08/2021
245 440700 ALOISIO CUNHA SOARES JUNIOR PROMOTOR 2A ENTRANCIA PATROCÍNIO - COMARCA; PATROCINIO-PJ-04PJ 1.198,00 0,00 2.822,15 0,00 5.334,11 0,00 0,00 0,00 488,96 31/08/2021
246 90600 ALOISIO RABELO DE REZENDE PROMOT.ENTRANC.ESPECIAL VARGINHA - COMARCA; VARGINHA-PJ-01PJ 1.198,00 0,00 2.713,35 0,00 5.614,85 0,00 0,00 0,00 514,69 31/08/2021
247 696600 ALOIZIO MARTINS JALES JUNIOR ASSESSOR PROMOTOR JUSTICA CAMPESTRE - COMARCA; CAMPESTRE-PJ-SECRETARIA 1.198,00 0,00 519,00 0,00 0,00 0,00 0,00 0,00 0,00 31/08/2021
248 515900 ALTAIR NEVES JUNIOR OFICIAL DO MP BELO HORIZONTE - COMARCA; BH-01PJ FAZENDA PUBLICA-SECRETARIA 1.198,00 0,00 519,00 0,00 0,00 0,00 0,00 0,00 0,00 31/08/2021
249 290800 ALUISIA BERALDO RIBEIRO PROMOT.ENTRANC.ESPECIAL UBERLÂNDIA - COMARCA; UBERLANDIA-PJ-14PJ 1.198,00 0,00 1.345,83 0,00 5.614,85 0,00 0,00 0,00 514,69 31/08/2021
250 233300 ALVARINDO BATISTA ANALISTA DO MP BELO HORIZONTE - COMARCA; NUCLEO APOIO TECNICO ESP COMUNICACAO 1.198,00 769,39 519,00 0,00 0,00 0,00 0,00 0,00 0,00 31/08/2021
251 1234100 ALVARO DA SILVEIRA ROSA JUNIOR ESTAGIARIO DIVINOPOLIS; COORD REG DO MA DA BACIA DO ALTO SAO FRANC 0,00 0,00 0,00 117,00 0,00 0,00 0,00 0,00 0,00 31/08/2021
252 1256800 ALVARO EPIFANIO GOMES JUNIOR ESTAGIARIO ITABIRA; ITABIRA-PJ-03PJ 0,00 0,00 0,00 207,00 0,00 0,00 0,00 0,00 0,00 31/08/2021
253 1171700 ALVIM JUNIO DE LIMA ESTAGIARIO BARBACENA; BARBACENA-PJ-02PJ 0,00 0,00 0,00 90,00 0,00 0,00 0,00 0,00 0,00 31/08/2021
254 1165500 ALYCE RAMALHO PRIMO ESTAGIARIO BELO HORIZONTE; PROC. JUSTICA DE HABEAS CORPUS
255 1216900 ALYNE MARIA EMERICK RABELO ESTAGIARIO MANHUMIRIM; MANHUMIRIM-PJ-01PJ 0,00 0,00 0,00 207,00 0,00 0,00 0,00 0,00 0,00 31/08/2021
256 344400 ALYSSON CARDOZO CEMBRANEL PROMOT.ENTRANC.ESPECIAL BELO HORIZONTE - COMARCA; BH-CENTRAL DE RECEPÇÃO DE FLAGRANTES 1.198,00 0,00 1.584,60 0,00 5.614,85 0,00 0,00 0,00 514,69 31/08/2021
257 274100 ALYSSON CARVALHO VIDAL DE LACERDA OFICIAL DO MP MANHUAÇU - COMARCA; MANHUACU-PJ-01PJ 1.198,00 0,00 519,00 0,00 0,00 0,00 0,00 0,00 0,00 31/08/2021
258 1176600 AMANDA ANDREA IDENAGA CASTANHEIRA ESTAGIARIO FRUTAL; FRUTAL-PJ-05PJ 0,00 0,00 0,00 198,00 0,00 0,00 0,00 0,00 0,00 31/08/2021
259 1235400 AMANDA APARECIDA NERY ESTAGIARIO MACHADO; MACHADO-PJ-01PJ 0,00 0,00 0,00 90,00 0,00 0,00 0,00 0,00 0,00 31/08/2021
260 621000 AMANDA BASTOS ALVES ANALISTA DO MP BELO HORIZONTE - COMARCA; BH-07PJ 02 TRIBUNAL DO JURI-GAB 066PJ 1.198,00 0,00 519,00 0,00 0,00 0,00 0,00 0,00 0,00 31/08/2021
261 1041500 AMANDA CALDEIRA DE OLIVEIRA ESTAGIARIO BELO HORIZONTE; SUPERINTENDÊNCIA DE ENGENHARIA E ARQUITETURA 0,00 0,00 0,00 27,00 530,20 0,00 0,00 0,00 0,00 31/08/2021
262 1253500 AMANDA CAROLINE DIAS GONCALVES ESTAGIARIO PATROCINIO; PATROCINIO-PJ-05PJ 0,00 0,00 0,00 207,00 0,00 0,00 0,00 0,00 0,00 31/08/2021
263 1220800 AMANDA CAROLINY GONCALVES FONSECA ESTAGIARIO RIBEIRAO DAS NEVES; RIBEIRAO DAS NEVES-PJ-07PJ
264 1284600 AMANDA CHRISTINA OLIVEIRA DA SILVA ESTAGIARIO BELO HORIZONTE; PROC JUST RECURSOS ESP E EXTRAORD CRIMINAIS 0,00 0,00 0,00 117,00 0,00 0,00 0,00 0,00 0,00 31/08/2021
265 521700 AMANDA CRISTINA AGUIAR MACHADO OFICIAL DO MP CONGONHAS - COMARCA; CONGONHAS-PJ-01PJ 1.198,00 0,00 519,00 0,00 0,00 0,00 0,00 0,00 0,00 31/08/2021
266 1039800 AMANDA CRISTINA ALVES SANTOS ESTAGIARIO JOAO MONLEVADE; JOAO MONLEVADE-PJ-01PJ
267 1086900 AMANDA CRISTINA FERREIRA DE SOUSA ESTAGIARIO VESPASIANO; VESPASIANO-PJ-06PJ 0,00 0,00 0,00 144,00 0,00 0,00 0,00 0,00 0,00 31/08/2021
268 1297200 AMANDA CRISTINA GONCALVES ESTAGIARIO BELO HORIZONTE; COORD DE INCLUSAO E MOBILIZACAO SOCIAIS 0,00 0,00 0,00 108,00 0,00 0,00 0,00 0,00 54,30 31/08/2021
269 1322900 AMANDA DA SILVA BRAGA ESTAGIARIO BELO HORIZONTE; BH-18PJ VIOLENCIA DOMESTICA-GAB 177PJ 0,00 0,00 0,00 90,00 0,00 0,00 0,00 0,00 0,00 31/08/2021
270 1280700 AMANDA DE ARAUJO CARVALHO ESTAGIARIO ARACUAI; ARACUAI-PJ-01PJ 0,00 0,00 0,00 198,00 0,00 0,00 0,00 0,00 0,00 31/08/2021
271 613400 AMANDA DE ASSIS IUNES SANTOS ANALISTA DO MP CONGONHAS - COMARCA; CONGONHAS-PJ-01PJ 1.198,00 0,00 519,00 0,00 0,00 0,00 0,00 0,00 0,00 31/08/2021
272 695900 AMANDA DE OLIVEIRA ASSESSOR PROCURADOR JUSTICA BELO HORIZONTE - COMARCA; PROC JUST ATUACAO TRIBUNAIS SUPERIORES-GAB004 1.198,00 0,00 519,00 0,00 0,00 0,00 0,00 0,00 0,00 31/08/2021
273 520800 AMANDA DE SOUZA MACHADO ANALISTA DO MP BAEPENDI - COMARCA; BAEPENDI-PJ-UNPJ 1.198,00 0,00 519,00 0,00 0,00 0,00 0,00 0,00 0,00 31/08/2021
274 663900 AMANDA DENISE GONCALVES DA SILVA ASSESSOR BELO HORIZONTE - COMARCA; DIRET DE FORMACAO, APERFEIC. E POS-GRADUACAO 1.198,00 0,00 519,00 0,00 0,00 0,00 0,00 0,00 0,00 31/08/2021
275 1095700 AMANDA DOS SANTOS FERREIRA ESTAGIARIO MONTES CLAROS; MONTES CLAROS-PJ-14PJ 0,00 0,00 0,00 162,00 0,00 0,00 0,00 0,00 0,00 31/08/2021
276 1230600 AMANDA EMERICK DA SILVA ESTAGIARIO MANHUMIRIM; MANHUMIRIM-PJ-02PJ 0,00 0,00 0,00 198,00 0,00 0,00 0,00 0,00 0,00 31/08/2021
277 1183300 AMANDA GABRIELA GONCALVES DE MIRANDA ESTAGIARIO BETIM; BETIM-PJ-04PJ 0,00 0,00 0,00 126,00 0,00 0,00 0,00 0,00 0,00 31/08/2021
278 1153000 AMANDA GIL DE SOUZA ESTAGIARIO MONTES CLAROS; MONTES CLAROS-PJ-09PJ 0,00 0,00 0,00 162,00 0,00 0,00 0,00 0,00 0,00 31/08/2021
279 1027600 AMANDA GOMES BARBOSA ESTAGIARIO VARGINHA; VARGINHA-PJ-06PJ 0,00 0,00 0,00 162,00 0,00 0,00 0,00 0,00 0,00 31/08/2021
280 1059400 AMANDA GONTIJO DE LACERDA ESTAGIARIO PATOS DE MINAS; PATOS DE MINAS-PJ-06PJ
281 677000 AMANDA LETICIA MESSIAS PEGO ASSESSOR PROMOTOR JUSTICA CORAÇÃO DE JESUS - COMARCA; CORACAO DE JESUS-PJ-UNPJ 1.198,00 0,00 519,00 0,00 0,00 0,00 0,00 0,00 0,00 31/08/2021
282 1166600 AMANDA LUIZA NUNES SOARES ESTAGIARIO BELO HORIZONTE; BH-18PJ VIOLENCIA DOMESTICA-GAB 053PJ 0,00 0,00 0,00 99,00 0,00 0,00 0,00 0,00 0,00 31/08/2021
283 666000 AMANDA MERLINI DUTRA OSIPE PROMOTOR SUBSTITUTO CATAGUASES - COMARCA; CATAGUASES-PJ-01PJ 1.198,00 0,00 2.224,87 0,00 5.067,40 0,00 0,00 0,00 464,51 31/08/2021
284 1157400 AMANDA MIQUELINO RIBEIRO ESTAGIARIO UBERABA; UBERABA-PJ-13PJ 0,00 0,00 0,00 90,00 0,00 0,00 0,00 0,00 0,00 31/08/2021
285 1310600 AMANDA NUNES SOUSA ESTAGIARIO LAVRAS; LAVRAS-PJ-04PJ 0,00 0,00 0,00 198,00 0,00 0,00 0,00 0,00 0,00 31/08/2021
286 1076900 AMANDA PEREIRA MACEDO ESTAGIARIO UBERLANDIA; UBERLANDIA-PJ-07PJ 0,00 0,00 0,00 63,00 0,00 0,00 0,00 0,00 0,00 31/08/2021
287 1093100 AMANDA REGINA DE ALMEIDA E SILVA ESTAGIARIO JUIZ DE FORA; JUIZ DE FORA-PJ-02PJ 0,00 0,00 0,00 0,00 1.810,00 0,00 0,00 0,00 0,00 31/08/2021
288 1071000 AMANDA SALIS LOTT ESTAGIARIO BELO HORIZONTE; BH-15PJ M AMB PAT HIST CULT-GAB 115PJ 0,00 0,00 0,00 18,00 0,00 0,00 0,00 0,00 0,00 31/08/2021
289 1100000 AMANDA SANTOS DIAS ESTAGIARIO ERVALIA; ERVALIA-PJ-UNPJ 0,00 0,00 0,00 162,00 0,00 0,00 0,00 0,00 0,00 31/08/2021
290 1237600 AMANDA SILVESTRE PATRUS ANANIAS ESTAGIARIO BELO HORIZONTE; BH-19PJ SAUDE-GAB 150PJ 0,00 0,00 0,00 36,00 0,00 0,00 0,00 0,00 216,90 31/08/2021
291 1289800 AMANDA STARLING DE AZEVEDO BAHIA ESTAGIARIO BELO HORIZONTE; BH-02PJ FAMILIA-GAB 033PJ 0,00 0,00 0,00 18,00 0,00 0,00 0,00 0,00 0,00 31/08/2021
292 543100 AMANDA VIEIRA FREITAS BRESSANE ANALISTA DO MP VARGINHA - COMARCA; COORD REG DEF ORDEM ECON TRIB VARGINHA 1.198,00 0,00 519,00 0,00 0,00 0,00 0,00 0,00 0,00 31/08/2021
293 656701 AMARILDO ODILON REZENDE DE AGUIAR INVESTIGADOR DE POLICIA 2 BELO HORIZONTE - COMARCA; CAO-ORDEM ECONOMICA E TRIBUTARIA 1.198,00 0,00 0,00 0,00 0,00 0,00 0,00 0,00 0,00 31/08/2021
294 434400 AMARILIS ASSIS SIMAO CURCIO ANALISTA DO MP BELO HORIZONTE - COMARCA; NUCLEO DE ACORDOS DE NAO PERSECUCAO PENAL BH 1.198,00 0,00 519,00 0,00 0,00 0,00 0,00 0,00 0,00 31/08/2021
295 652000 AMAURI SILVA ALVES ASSESSOR/OFICIAL BELO HORIZONTE - COMARCA; BH-23PJ INFRACIONAL-SEC EXP 1.198,00 0,00 519,00 0,00 0,00 0,00 0,00 0,00 0,00 31/08/2021
296 58000 AMELIA GUARIZE DE CASTRO OFICIAL DO MP JUIZ DE FORA - COMARCA; JUIZ DE FORA-PJ-SECRETARIA 1.198,00 0,00 519,00 0,00 0,00 0,00 0,00 0,00 0,00 31/08/2021
297 324301 AMERICA SUELI FERREIRA DA SILVA ANALISTA DO MP MONTE CARMELO - COMARCA; MONTE CARMELO-PJ-02PJ 1.198,00 0,00 519,00 0,00 0,00 0,00 0,00 0,00 0,00 31/08/2021
298 273300 AMUJACY DE BRITO ASSIZ OFICIAL DO MP BELO HORIZONTE - COMARCA; BH-12PJ JUIZO CRIMINAL-SECRETARIA 1.198,00 0,00 519,00 0,00 0,00 0,00 0,00 0,00 0,00 31/08/2021
299 482200 ANA ALICE LOPES ACHTSCHIN ANALISTA DO MP BELO HORIZONTE - COMARCA; PROC JUST ATUACAO TRIBUNAIS SUPERIORES-GAB002 1.198,00 0,00 519,00 0,00 0,00 0,00 0,00 0,00 0,00 31/08/2021
300 490400 ANA AMELIA PAULINO GARCIA OFICIAL DO MP CONTAGEM - COMARCA; CONTAGEM-PJ-SECRETARIA 1.198,00 0,00 519,00 0,00 0,00 0,00 0,00 0,00 1.532,68 31/08/2021
301 690400 ANA ANGELICA MOREIRA DA CUNHA ASSESSOR PROMOTOR JUSTICA TIMÓTEO - COMARCA; TIMOTEO-PJ-02PJ 1.198,00 0,00 519,00 0,00 0,00 0,00 0,00 0,00 0,00 31/08/2021
302 671300 ANA BARBARA CANEDO OLIVEIRA PROMOTOR 2A ENTRANCIA ALMENARA - COMARCA; ALMENARA-PJ-02PJ 1.198,00 0,00 716,33 0,00 0,00 0,00 0,00 0,00 0,00 31/08/2021
303 1128400 ANA BEATRIZ DE MELO FERNANDES ESTAGIARIO MESQUITA; MESQUITA-PJ-UNPJ 0,00 0,00 0,00 180,00 0,00 0,00 0,00 0,00 0,00 31/08/2021
304 1280900 ANA BEATRIZ DIAS DE AZEVEDO ESTAGIARIO POUSO ALEGRE; POUSO ALEGRE-PJ-06PJ 0,00 0,00 0,00 189,00 0,00 0,00 0,00 0,00 0,00 31/08/2021
305 1211700 ANA CARLA LIMA REIS ESTAGIARIO TEIXEIRAS; TEIXEIRAS-PJ-UNPJ 0,00 0,00 0,00 207,00 0,00 0,00 0,00 0,00 0,00 31/08/2021
306 1263400 ANA CARLA SOUZA FERREIRA ESTAGIARIO JUIZ DE FORA; JUIZ DE FORA-PJ-12PJ 0,00 0,00 0,00 117,00 0,00 0,00 0,00 0,00 0,00 31/08/2021
307 1147800 ANA CAROLINA AFONSO OMENA ESTAGIARIO ITUIUTABA; ITUIUTABA-PJ-02PJ 0,00 0,00 0,00 90,00 0,00 0,00 0,00 0,00 0,00 31/08/2021
308 279100 ANA CAROLINA ARAUJO PEREIRA ANALISTA DO MP BELO HORIZONTE - COMARCA; DIRETORIA DE PROJETOS DE EDIFICACOES 1.198,00 0,00 519,00 0,00 0,00 0,00 0,00 0,00 0,00 31/08/2021
309 653300 ANA CAROLINA CYRNE DINIZ ASSESSOR BELO HORIZONTE - COMARCA; CENTRAL DE APOIO TECNICO-SETOR CONTABIL 1.198,00 0,00 519,00 0,00 0,00 0,00 0,00 0,00 0,00 31/08/2021
310 1165800 ANA CAROLINA DA COSTA ESTAGIARIO SAO JOAO EVANGELISTA; SAO JOAO EVANGELISTA-PJ-UNPJ 0,00 0,00 0,00 72,00 0,00 0,00 0,00 0,00 0,00 31/08/2021
311 359400 ANA CAROLINA DE ABREU FARIA ASSESSOR BELO HORIZONTE - COMARCA; SUPERINTENDÊNCIA DE ENGENHARIA E ARQUITETURA 1.198,00 769,39 519,00 0,00 0,00 0,00 0,00 0,00 0,00 31/08/2021
312 408500 ANA CAROLINA DE CASTRO CARVALHO ANALISTA DO MP BARBACENA - COMARCA; BARBACENA - SECRETARIA DAS PJS CRIMINAIS 1.198,00 0,00 519,00 0,00 0,00 0,00 0,00 0,00 0,00 31/08/2021
313 1291300 ANA CAROLINA DE MELO MARTINS ESTAGIARIO CABO VERDE; CABO VERDE-PJ-UNPJ 0,00 0,00 0,00 207,00 0,00 0,00 0,00 0,00 0,00 31/08/2021
314 688000 ANA CAROLINA DE OLIVEIRA PINTO ASSESSOR PROCURADOR JUSTICA BELO HORIZONTE - COMARCA; GABINETE DE PROCURADOR DE JUSTIÇA - SALA 1014 1.198,00 0,00 519,00 0,00 0,00 0,00 0,00 0,00 0,00 31/08/2021
315 1252200 ANA CAROLINA DE SOUZA SOBRAL ESTAGIARIO BELO HORIZONTE; BH-08PJ JUIZADO ESPECIAL 0,00 0,00 0,00 162,00 0,00 0,00 0,00 0,00 0,00 31/08/2021
316 598900 ANA CAROLINA DUARTE DA SILVA INVESTIGADOR DE POLICIA 2 BELO HORIZONTE - COMARCA; PROC JUST ESP ACOES COMP ORIG CRIMINAL-SEC 1.198,00 0,00 0,00 0,00 0,00 0,00 0,00 0,00 0,00 31/08/2021
317 420200 ANA CAROLINA FERNANDES SILVA ANALISTA DO MP BELO HORIZONTE - COMARCA; GABINETE DE PROCURADOR DE JUSTIÇA - SALA 704 1.198,00 0,00 519,00 0,00 0,00 0,00 0,00 0,00 0,00 31/08/2021
318 522100 ANA CAROLINA FERNANDINO VIDAL PEREIRA SANTOS OFICIAL DO MP BELO HORIZONTE - COMARCA; SECRETARIA DO PROCON-MG 1.198,00 0,00 519,00 0,00 0,00 0,00 0,00 0,00 0,00 31/08/2021
319 1315600 ANA CAROLINA FIGUEIREDO SILVA ESTAGIARIO BELO HORIZONTE; PROC JUST RECURSOS ESP E EXTRAORD CRIMINAIS 0,00 0,00 0,00 180,00 0,00 0,00 0,00 0,00 0,00 31/08/2021
320 244700 ANA CAROLINA GARCIA COSTA PROMOT.ENTRANC.ESPECIAL BELO HORIZONTE - COMARCA; BH-23PJ INFRACIONAL-GAB 147PJ 1.198,00 0,00 3.368,91 0,00 6.737,82 0,00 0,00 0,00 514,69 31/08/2021
321 1313100 ANA CAROLINA GOMES SANTOS ESTAGIARIO MONTES CLAROS; COORD REG PJ DEF EDUC DIR CRIANCA ADOL NORTE 0,00 0,00 0,00 171,00 0,00 0,00 0,00 0,00 0,00 31/08/2021
322 502400 ANA CAROLINA GONCALVES FERNANDES ANALISTA DO MP IPATINGA - COMARCA; IPATINGA-PJ-01PJ 1.198,00 1.538,78 519,00 0,00 0,00 0,00 0,00 0,00 0,00 31/08/2021
323 529900 ANA CAROLINA GONCALVES PECANHA CHEQUER ANALISTA DO MP MANHUAÇU - COMARCA; MANHUACU-PJ-04PJ 1.198,00 1.538,78 519,00 0,00 0,00 0,00 0,00 0,00 0,00 31/08/2021
324 1106000 ANA CAROLINA LEITE CHAVES ESTAGIARIO BELO HORIZONTE; BH-12PJ JUIZO CRIMINAL-GAB 097PJ 0,00 0,00 0,00 144,00 0,00 0,00 0,00 0,00 0,00 31/08/2021
325 1207700 ANA CAROLINA LETAYF CAMPOS ESTAGIARIO JUIZ DE FORA; JUIZ DE FORA-PJ-25PJ 0,00 0,00 0,00 99,00 0,00 0,00 0,00 0,00 0,00 31/08/2021
326 1202400 ANA CAROLINA MARTINS DE ANDRADE ESTAGIARIO UBA; UBA-PJ-02PJ 0,00 0,00 0,00 54,00 0,00 0,00 0,00 0,00 0,00 31/08/2021
327 1137800 ANA CAROLINA MIRANDA DE MEIRELES MOUTINHO ESTAGIARIO SETE LAGOAS; SETE LAGOAS-PJ-05PJ 0,00 0,00 0,00 135,00 0,00 0,00 0,00 0,00 0,00 31/08/2021
328 431900 ANA CAROLINA MOTTA GUATIMOSIM ANALISTA DO MP BELO HORIZONTE - COMARCA; ASSESSORIA JURIDICO-ADMINISTRATIVA 1.198,00 769,39 519,00 0,00 0,00 0,00 0,00 0,00 0,00 31/08/2021
329 1268100 ANA CAROLINA RODRIGUES FIGUEIREDO ESTAGIARIO IGARAPE; IGARAPE-PJ-04PJ 0,00 0,00 0,00 9,00 385,60 0,00 0,00 0,00 0,00 31/08/2021
330 1249200 ANA CAROLINA TEIXEIRA PERUSSIO PAIVA ESTAGIARIO JUIZ DE FORA; COORD REG PJ DEF EDU DIR CRIAN ADOL ZONA MATA 0,00 0,00 0,00 126,00 0,00 0,00 0,00 0,00 0,00 31/08/2021
331 490600 ANA CAROLINA XAVIER GODOY ANALISTA DO MP BELO HORIZONTE - COMARCA; BH-18PJ DIREITOS HUMANOS-SECRETARIA 1.198,00 1.538,78 519,00 0,00 0,00 0,00 0,00 0,00 2.013,92 31/08/2021
332 313700 ANA CAROLINA ZAMBOM PINTO COELHO PROMOT.ENTRANC.ESPECIAL BELO HORIZONTE - COMARCA; BH-07PJ TRIBUNAL DO JURI 1.198,00 0,00 1.302,41 0,00 5.614,85 0,00 0,00 0,00 514,69 31/08/2021
333 1220900 ANA CAROLINE CARVALHO MARTINS ESTAGIARIO IPATINGA; IPATINGA-PJ-01PJ 0,00 0,00 0,00 207,00 0,00 0,00 0,00 0,00 0,00 31/08/2021
334 1142100 ANA CAROLINE FERRAZ CHAIB ESTAGIARIO CONCEICAO DO RIO VERDE; CONCEICAO DO RIO VERDE-PJ-UNPJ 0,00 0,00 0,00 108,00 0,00 0,00 0,00 0,00 0,00 31/08/2021
335 1074500 ANA CAROLINE MONTEIRO DE BARROS ESTAGIARIO IPATINGA; IPATINGA-PJ-10PJ 0,00 0,00 0,00 207,00 0,00 0,00 0,00 0,00 0,00 31/08/2021
336 600300 ANA CAROLINE PEREIRA DINIZ ANALISTA DO MP BELO HORIZONTE - COMARCA; PROC JUST ESP ACOES COMP ORIG CRIMINAL-SEC 1.198,00 769,39 519,00 0,00 0,00 0,00 0,00 0,00 0,00 31/08/2021
337 615800 ANA CAROLINE PEREIRA OLIVEIRA OFICIAL DO MP ALFENAS - COMARCA; ALFENAS-PJ-06PJ 1.198,00 0,00 519,00 0,00 0,00 0,00 0,00 0,00 0,00 31/08/2021
338 1209600 ANA CAROLINE RODRIGUES DOS SANTOS ESTAGIARIO 0,00 0,00 0,00 108,00 0,00 0,00 0,00 0,00 0,00 31/08/2021
339 229202 ANA CECILIA JUNQUEIRA GOUVEA PROMOT.ENTRANC.ESPECIAL RIBEIRÃO DAS NEVES - COMARCA; RIBEIRAO DAS NEVES-PJ-08PJ 1.198,00 0,00 2.105,57 0,00 0,00 0,00 0,00 0,00 0,00 31/08/2021
340 324800 ANA CECILIA MENDES DA SILVA OFICIAL DO MP OURO FINO - COMARCA; OURO FINO-PJ-01PJ 1.198,00 0,00 519,00 0,00 0,00 0,00 0,00 0,00 0,00 31/08/2021
341 1162800 ANA CLARA BARBI LIMA ESTAGIARIO BELO HORIZONTE; GABINETE DE PROCURADOR DE JUSTIÇA - SALA 1015 0,00 0,00 0,00 108,00 0,00 0,00 0,00 0,00 0,00 31/08/2021
342 1266100 ANA CLARA CORDEIRO DUARTE NUNES ESTAGIARIO NOVA LIMA; NOVA LIMA-PJ-SECRETARIA 0,00 0,00 0,00 99,00 0,00 0,00 0,00 0,00 0,00 31/08/2021
343 1092000 ANA CLARA DE SOUZA ESTAGIARIO BELO HORIZONTE; GABINETE DE PROCURADOR DE JUSTIÇA - SALA 813
344 1154400 ANA CLARA DE SOUZA II ESTAGIARIO ARAXA; ARAXA-PJ-03PJ 0,00 0,00 0,00 72,00 0,00 0,00 0,00 0,00 0,00 31/08/2021
345 1327400 ANA CLARA DOS SANTOS PEREIRA ESTAGIARIO SETE LAGOAS; SETE LAGOAS-PJ-11PJ 0,00 0,00 0,00 45,00 0,00 0,00 0,00 0,00 0,00 31/08/2021
346 1210000 ANA CLARA GUIMARAES ROSA ESTAGIARIO CONTAGEM; CONTAGEM-PJ-06PJ 0,00 0,00 0,00 99,00 0,00 0,00 0,00 0,00 0,00 31/08/2021
347 704100 ANA CLARA MARTINS ALBUQUERQUE ASSESSOR BELO HORIZONTE - COMARCA; CAO-CRIANCAS E ADOLESCENTES-ASS TECNICA 1.198,00 0,00 519,00 0,00 0,00 0,00 0,00 0,00 0,00 31/08/2021
348 1165900 ANA CLARA PORTO REIS ESTAGIARIO PATROCINIO; PATROCINIO-PJ-01PJ 0,00 0,00 0,00 144,00 0,00 0,00 0,00 0,00 0,00 31/08/2021
349 1322000 ANA CLARA RESGALA BARTHOLDY ESTAGIARIO BELO HORIZONTE; PROC. JUSTICA DIR. DIFUSOS E COLETIVOS 0,00 0,00 0,00 90,00 0,00 0,00 0,00 0,00 0,00 31/08/2021
350 1199400 ANA CLARA RIBEIRO GONCALVES ESTAGIARIO BELO HORIZONTE; ASSESSORIA DE COMUNICACAO INTEGRADA
351 1221000 ANA CLARA ROMANCINI RENNO DE ASSIS ESTAGIARIO ITAJUBA; ITAJUBA-PJ-04PJ 0,00 0,00 0,00 81,00 0,00 0,00 0,00 0,00 0,00 31/08/2021
352 698700 ANA CLARA SANTOS ALMEIDA ASSESSOR PROMOTOR JUSTICA SABINÓPOLIS - COMARCA; SABINOPOLIS-PJ-UNPJ 1.198,00 0,00 519,00 0,00 0,00 0,00 0,00 0,00 0,00 31/08/2021
353 1259600 ANA CLARA SOARES PEREIRA BARBOSA ESTAGIARIO PATOS DE MINAS; PATOS DE MINAS-PJ-07PJ 0,00 0,00 0,00 207,00 0,00 0,00 0,00 0,00 0,00 31/08/2021
354 441300 ANA CLAUDIA ALKIMIM MIRANDA BOMTEMPO ANALISTA DO MP MONTES CLAROS - COMARCA; MONTES CLAROS-PJ-11PJ 1.198,00 0,00 519,00 0,00 0,00 0,00 0,00 0,00 0,00 31/08/2021
355 1068500 ANA CLAUDIA ALVES MACHADO ESTAGIARIO ITAUNA; ITAUNA-PJ-01PJ
356 1156600 ANA CLAUDIA ALVIM SANTOS BERTOLI ESTAGIARIO JANAUBA; JANAUBA-PJ-01PJ 0,00 0,00 0,00 90,00 0,00 0,00 0,00 0,00 0,00 31/08/2021
357 642500 ANA CLAUDIA DA COSTA NAVES OFICIAL DO MP MONTE CARMELO - COMARCA; MONTE CARMELO-PJ-02PJ 1.198,00 769,39 519,00 0,00 0,00 0,00 0,00 0,00 0,00 31/08/2021
358 1149600 ANA CLAUDIA DE ALMEIDA FERREIRA ESTAGIARIO POCO FUNDO; POCO FUNDO-PJ-UNPJ 0,00 0,00 0,00 207,00 0,00 0,00 0,00 0,00 0,00 31/08/2021
359 1166700 ANA CLAUDIA FERREIRA DA SILVA ESTAGIARIO BELO HORIZONTE; BH-16PJ HABITACAO URBANISMO-GAB 117PJ 0,00 0,00 0,00 81,00 0,00 0,00 0,00 0,00 0,00 31/08/2021
360 1239900 ANA CLAUDIA GOIANAZES MOREIRA ESTAGIARIO BELO HORIZONTE; BH-18PJ VIOLENCIA DOMESTICA-GAB 044PJ 0,00 0,00 0,00 198,00 0,00 0,00 0,00 0,00 0,00 31/08/2021
361 341500 ANA CLAUDIA LOPES PROMOT.ENTRANC.ESPECIAL BELO HORIZONTE - COMARCA; BH-07PJ 01 TRIBUNAL DO JURI-GAB 077PJ 1.198,00 0,00 3.368,91 0,00 5.614,85 0,00 0,00 0,00 514,69 31/08/2021
362 604900 ANA CLAUDIA OLIVEIRA DE MIRANDA OFICIAL DO MP PONTE NOVA - COMARCA; PONTE NOVA-PJ-04PJ 1.198,00 0,00 519,00 0,00 0,00 0,00 0,00 0,00 0,00 31/08/2021
363 1131000 ANA CLAUDIA OLIVEIRA PEREIRA ESTAGIARIO BELO HORIZONTE; PROMOT ESTADUAL DE DEF PATRI CULT E TUR DE MG
364 1257400 ANA CLAUDIA SMOLNY PINTO ESTAGIARIO LAMBARI; LAMBARI-PJ-UNPJ 0,00 0,00 0,00 108,00 0,00 0,00 0,00 0,00 0,00 31/08/2021
365 1085500 ANA CLERIA DE OLIVEIRA SOUZA ESTAGIARIO GOVERNADOR VALADARES; GOVERNADOR VALADARES-PJ-13PJ 0,00 0,00 0,00 162,00 0,00 0,00 0,00 0,00 0,00 31/08/2021
366 379300 ANA CRISTINA ALVES FLAVIO ANALISTA DO MP SÃO GOTARDO - COMARCA; SAO GOTARDO-PJ-01PJ 1.198,00 769,39 519,00 0,00 0,00 0,00 0,00 0,00 0,00 31/08/2021
367 461200 ANA CRISTINA ALVES PASCHOAL ANALISTA DO MP BELO HORIZONTE - COMARCA; BH-07PJ 03 TRIBUNAL DO JURI-GAB 064PJ 1.198,00 0,00 519,00 0,00 5.800,10 0,00 0,00 0,00 531,68 31/08/2021
368 514100 ANA CRISTINA ARAUJO ASSUNCAO ANALISTA DO MP BELO HORIZONTE - COMARCA; ASSESS JUR DO CONS SUPERIOR DO MINISTERIO PUB 1.198,00 769,39 519,00 0,00 0,00 0,00 0,00 0,00 0,00 31/08/2021
369 113400 ANA CRISTINA BRAGA ALBUQUERQUE ASSESSOR/ANALISTA BELO HORIZONTE - COMARCA; ASSESS ESP ADM E FINANCEIRA DO PGJ ADJ ADM 1.198,00 0,00 519,00 0,00 0,00 0,00 0,00 0,00 0,00 31/08/2021
370 233800 ANA CRISTINA BRAGA SOARES OFICIAL DO MP CONTAGEM - COMARCA; CONTAGEM-PJ-SECRETARIA 1.198,00 0,00 519,00 0,00 0,00 0,00 0,00 0,00 0,00 31/08/2021
371 1234200 ANA CRISTINA CHAVES ESTAGIARIO JANAUBA; JANAUBA-PJ-03PJ 0,00 0,00 0,00 135,00 0,00 0,00 0,00 0,00 0,00 31/08/2021
372 186400 ANA CRISTINA DE AZEVEDO LOPES OFICIAL DO MP UBÁ - COMARCA; UBA-PJ-01PJ 1.198,00 0,00 519,00 0,00 0,00 0,00 0,00 0,00 0,00 31/08/2021
373 693000 ANA CRISTINA DE MELO SILVEIRA ASSESSOR PROCURADOR JUSTICA BELO HORIZONTE - COMARCA; GABINETE DE PROCURADOR DE JUSTIÇA - SALA 501 1.198,00 769,39 519,00 0,00 0,00 0,00 0,00 0,00 0,00 31/08/2021
374 465100 ANA CRISTINA DE OLIVEIRA GUIMARAES ANALISTA DO MP ITAJUBA - COMARCA; ITAJUBA-PJ-05PJ 1.198,00 769,39 519,00 0,00 0,00 0,00 0,00 0,00 0,00 31/08/2021
375 500600 ANA CRISTINA LATADO SUDARIO ANALISTA DO MP UBERLÂNDIA - COMARCA; UBERLANDIA-PJ-09PJ 1.198,00 0,00 519,00 0,00 0,00 0,00 0,00 0,00 0,00 31/08/2021
376 331400 ANA CRISTINA RIBEIRO ALVES OFICIAL DO MP BAMBUÍ - COMARCA; BAMBUI-PJ-UNPJ 1.198,00 0,00 519,00 0,00 0,00 0,00 0,00 0,00 0,00 31/08/2021
377 1212000 ANA ELISA LEAL ROCHA ESTAGIARIO BELO HORIZONTE; BH-13ª PJ JUÍXO DE TÓXICOS 0,00 0,00 0,00 108,00 0,00 0,00 0,00 0,00 0,00 31/08/2021
378 1299700 ANA ELISA PRATA DA CRUZ ESTAGIARIO CONTAGEM; CONTAGEM-PJ-23PJ 0,00 0,00 0,00 54,00 0,00 0,00 0,00 0,00 0,00 31/08/2021
379 249300 ANA ELOINA MARTINS OFICIAL DO MP BETIM - COMARCA; BETIM-PJ-02PJ 1.198,00 0,00 519,00 0,00 0,00 0,00 0,00 0,00 0,00 31/08/2021
380 611500 ANA FLAVIA AFONSO DRUMOND AMORIM PROMOTOR 2A ENTRANCIA PIRAPORA - COMARCA; PIRAPORA-PJ-02PJ 1.198,00 0,00 0,00 0,00 5.334,11 0,00 0,00 0,00 488,96 31/08/2021
381 257400 ANA FLAVIA CAMBRAIA ANALISTA DO MP BELO HORIZONTE - COMARCA; BH-19PJ SAUDE-SECRETARIA 150PJ 1.198,00 0,00 519,00 0,00 0,00 0,00 0,00 0,00 0,00 31/08/2021
382 1230700 ANA FLAVIA CARDOSO VIZOTTO ESTAGIARIO BELO HORIZONTE; BH-12PJ JUIZO CRIMINAL-GAB 104PJ 0,00 0,00 0,00 162,00 0,00 0,00 0,00 0,00 0,00 31/08/2021
383 248201 ANA FLAVIA DE MORAIS SOUZA ANALISTA DO MP DIVINÓPOLIS - COMARCA; DIVINOPOLIS-PJ-01PJ 1.198,00 769,39 519,00 0,00 0,00 0,00 0,00 0,00 0,00 31/08/2021
384 1319300 ANA FLAVIA DE SOUZA PINHEIRO ESTAGIARIO VISCONDE DO RIO BRANCO; VISCONDE DO RIO BRANCO-PJ-03PJ 0,00 0,00 0,00 117,00 0,00 0,00 0,00 0,00 0,00 31/08/2021
385 621100 ANA FLAVIA DINIZ TEODORO OFICIAL DO MP SANTA LUZIA - COMARCA; SANTA LUZIA-PJ-06PJ 1.198,00 0,00 519,00 0,00 0,00 0,00 0,00 0,00 0,00 31/08/2021
386 1137900 ANA FLAVIA FIGUEIREDO SALOMAO ESTAGIARIO TEOFILO OTONI; TEOFILO OTONI-PJ-08PJ 0,00 0,00 0,00 180,00 0,00 0,00 0,00 0,00 0,00 31/08/2021
387 238600 ANA FLAVIA FRANCO OFICIAL DO MP BELO HORIZONTE - COMARCA; DIRETORIA DE PESSOAL ADMINISTRATIVO - DPAD 1.198,00 0,00 519,00 0,00 0,00 0,00 0,00 0,00 0,00 31/08/2021
388 690000 ANA FLAVIA LURIAN DE PAIVA ASSESSOR PROCURADOR JUSTICA BELO HORIZONTE - COMARCA; GABINETE DE PROCURADOR DE JUSTIÇA - SALA 609 1.198,00 0,00 519,00 0,00 0,00 0,00 0,00 0,00 0,00 31/08/2021
389 1275200 ANA FLAVIA MARTINS CAMPOS ESTAGIARIO ALMENARA; ALMENARA-PJ-01PJ 0,00 0,00 0,00 207,00 0,00 0,00 0,00 0,00 0,00 31/08/2021
390 1032100 ANA FLAVIA PEREIRA ESTAGIARIO BELO HORIZONTE; PROC JUST RECURSOS ESP E EXTRAORD CRIMINAIS 0,00 0,00 0,00 0,00 361,50 0,00 0,00 0,00 0,00 31/08/2021
391 402900 ANA FLAVIA PORTES DE CARVALHO ANALISTA DO MP BELO HORIZONTE - COMARCA; DIRET DE PLANOS PROJETOS E PROGRAMAS INST 1.198,00 0,00 519,00 0,00 0,00 0,00 0,00 0,00 0,00 31/08/2021
392 1326900 ANA FLAVIA RIBEIRO PEREIRA ESTAGIARIO CORINTO; CORINTO-PJ-UNPJ 0,00 0,00 0,00 45,00 0,00 0,00 0,00 0,00 0,00 31/08/2021
393 1297100 ANA GABRIELA BOLDRIN TRINCA ESTAGIARIO POCOS DE CALDAS; POCOS DE CALDAS-PJ-07PJ 0,00 0,00 0,00 171,00 0,00 0,00 0,00 0,00 0,00 31/08/2021
394 526300 ANA GABRIELA BRITO MELO ROCHA PROMOTOR 2A ENTRANCIA TRÊS PONTAS - COMARCA; TRES PONTAS-PJ-03PJ 1.198,00 0,00 1.519,48 0,00 5.334,11 0,00 0,00 0,00 488,96 31/08/2021
395 1254700 ANA HELENA SANTOS DE OLIVEIRA ESTAGIARIO ITABIRA; ITABIRA-PJ-05PJ 0,00 0,00 0,00 198,00 0,00 0,00 0,00 0,00 0,00 31/08/2021
396 1195300 ANA HELOISA MARQUES OLIVEIRA CARNEIRO ESTAGIARIO BELO HORIZONTE; BH-18PJ DIREITOS HUMANOS-GAB 126PJ 0,00 0,00 0,00 18,00 0,00 0,00 0,00 0,00 0,00 31/08/2021
397 1172400 ANA JULIA DE VILHENA ESTAGIARIO IBIRACI; IBIRACI-PJ-UNPJ 0,00 0,00 0,00 180,00 0,00 0,00 0,00 0,00 0,00 31/08/2021
398 1135300 ANA JULIA DIXINI CARVALHO ESTAGIARIO TRES PONTAS; TRES PONTAS-PJ-03PJ 0,00 0,00 0,00 90,00 0,00 0,00 0,00 0,00 0,00 31/08/2021
399 1262100 ANA JULIA SILVA PEREIRA ESTAGIARIO LAVRAS; LAVRAS-PJ-06PJ 0,00 0,00 0,00 189,00 0,00 0,00 0,00 0,00 0,00 31/08/2021
400 382700 ANA KARENINA SALDANHA GONTIJO ANALISTA DO MP BELO HORIZONTE - COMARCA; ASSESS TECNICO-JUR JUNTO AS PROC. DE JUST 1.198,00 769,39 519,00 0,00 0,00 0,00 0,00 0,00 0,00 31/08/2021
401 620500 ANA KARINE DE ANDRADE OLIVEIRA ANALISTA DO MP RIBEIRÃO DAS NEVES - COMARCA; RIBEIRAO NEVES-SEC PJ EXECUCAO PENAL 1.198,00 0,00 519,00 0,00 0,00 0,00 0,00 0,00 0,00 31/08/2021
402 1255500 ANA KAROLINA DAS VIRGENS COSTA ESTAGIARIO
403 1259400 ANA KAROLINE DOS SANTOS ESTAGIARIO
404 1297700 ANA LARA PEREIRA DAMACENO ESTAGIARIO 0,00 0,00 0,00 198,00 0,00 0,00 0,00 0,00 0,00 31/08/2021
405 1055000 ANA LAURA FREITAS MARTINS ESTAGIARIO SETE LAGOAS; SETE LAGOAS-PJ-01PJ 0,00 0,00 0,00 126,00 0,00 0,00 0,00 0,00 0,00 31/08/2021
406 1301900 ANA LAURA MARTINS OLIVEIRA ESTAGIARIO PASSOS; GAECO REGIONAL DE PASSOS 0,00 0,00 0,00 180,00 0,00 0,00 0,00 0,00 0,00 31/08/2021
407 1301300 ANA LAURA NEVES CERQUEIRA ESTAGIARIO BELO HORIZONTE; BH-07PJ 01 TRIBUNAL DO JURI-GAB 065PJ 0,00 0,00 0,00 108,00 0,00 0,00 0,00 0,00 0,00 31/08/2021
408 1174700 ANA LAURA PEREIRA DIAS ESTAGIARIO DIAMANTINA; DIAMANTINA-PJ-01PJ 0,00 0,00 0,00 153,00 0,00 0,00 0,00 0,00 0,00 31/08/2021
409 57400 ANA LEIA SALOMAO E RIBEIRO PROMOT.ENTRANC.ESPECIAL JUIZ DE FORA - COMARCA; JUIZ DE FORA-PJ-02PJ 1.198,00 0,00 1.302,41 0,00 5.614,85 0,00 0,00 0,00 514,69 31/08/2021
410 1275900 ANA LETICIA DE ANDRADE ESTAGIARIO IBIA; IBIA-PJ-UNPJ 0,00 0,00 0,00 207,00 0,00 0,00 0,00 0,00 0,00 31/08/2021
411 224300 ANA LETICIA MARTINS DE SOUZA PROMOT.ENTRANC.ESPECIAL CONTAGEM - COMARCA; CONTAGEM-PJ-13PJ 1.198,00 0,00 0,00 0,00 0,00 0,00 0,00 0,00 0,00 31/08/2021
412 1174300 ANA LIVIA GOMES VIEIRA ESTAGIARIO BELO HORIZONTE; BH-23PJ CIVEL 0,00 0,00 0,00 45,00 0,00 0,00 0,00 0,00 0,00 31/08/2021
413 462200 ANA LUCIA ANDRADE TOMICH OTTONI ANALISTA DO MP TEÓFILO OTONI - COMARCA; TEOFILO OTONI-PJ-07PJ 1.198,00 0,00 519,00 0,00 0,00 0,00 0,00 0,00 0,00 31/08/2021
414 504100 ANA LUCIA CATAO DE CARVALHO OFICIAL DO MP BELO HORIZONTE - COMARCA; BH-09PJ AUDITORIA MILITAR-SECRETARIA 1.198,00 0,00 519,00 0,00 0,00 0,00 0,00 0,00 0,00 31/08/2021
415 274700 ANA LUCIA DE ALENCAR BRAGATO OFICIAL DO MP UBERABA - COMARCA; UBERABA-PJ-07PJ 1.198,00 0,00 519,00 0,00 0,00 0,00 0,00 0,00 0,00 31/08/2021
416 509400 ANA LUCIA DORNELAS MALLOSTO ANALISTA DO MP JUIZ DE FORA - COMARCA; JUIZ DE FORA-PJ-25PJ 1.198,00 0,00 519,00 0,00 0,00 0,00 0,00 0,00 0,00 31/08/2021
417 114600 ANA LUCIA JUNQUEIRA MUZZI CAVALIERI PROMOT.ENTRANC.ESPECIAL JUIZ DE FORA - COMARCA; JUIZ DE FORA-PJ-12PJ 1.198,00 0,00 2.735,06 0,00 5.614,85 0,00 0,00 0,00 514,69 31/08/2021
418 302600 ANA LUCIA LOPES SANTOS OFICIAL DO MP BELO HORIZONTE - COMARCA; DIVISÃO DE FISCALIZAÇÃO DAS RELAÇÕES DE CONSU 1.198,00 0,00 519,00 0,00 0,00 0,00 1.445,27 0,00 0,00 31/08/2021
419 1103200 ANA LUISA DE LANA COELHO ESTAGIARIO BELO HORIZONTE; GABINETE DE PROCURADOR DE JUSTIÇA - SALA 715
420 702000 ANA LUISA DE OLIVEIRA RIBEIRO ASSESSOR PROCURADOR JUSTICA BELO HORIZONTE - COMARCA; ASSESS TECNICO-JUR JUNTO AS PROC. DE JUST 1.198,00 0,00 519,00 0,00 0,00 0,00 0,00 0,00 0,00 31/08/2021
421 493400 ANA LUISA NOGUEIRA MOREIRA ANALISTA DO MP BELO HORIZONTE - COMARCA; BH-19PJ SAUDE-SECRETARIA 130PJ 1.198,00 0,00 519,00 0,00 0,00 0,00 0,00 0,00 2.013,92 31/08/2021
422 1312700 ANA LUISA PEREIRA VIEIRA ESTAGIARIO TIMOTEO; TIMOTEO-PJ-02PJ 0,00 0,00 0,00 117,00 0,00 0,00 0,00 0,00 0,00 31/08/2021
423 389300 ANA LUISA REUTER LIMA COORDENADOR/ANALISTA BELO HORIZONTE - COMARCA; DIRETORIA DE SISTEMAS DE INFORMACAO 1.198,00 0,00 519,00 0,00 0,00 0,00 0,00 0,00 0,00 31/08/2021
424 1112300 ANA LUISA RODRIGUES DUARTE ESTAGIARIO BELO HORIZONTE; EXTINTA-COORD EST DEF DIR FAM PES DEFIC IDOSO 0,00 0,00 0,00 117,00 0,00 0,00 0,00 0,00 0,00 31/08/2021
425 1235500 ANA LUISA RODRIGUES SOUSA ESTAGIARIO 0,00 0,00 0,00 162,00 0,00 0,00 0,00 0,00 0,00 31/08/2021
426 1294700 ANA LUISA SILVA SOUSA OLIVEIRA ESTAGIARIO BELO HORIZONTE; BH-18PJ DIREITOS HUMANOS-GAB 183PJ 0,00 0,00 0,00 117,00 0,00 0,00 0,00 0,00 0,00 31/08/2021
427 1197700 ANA LUIZA AGUILAR DE REZENDE ESTAGIARIO BELO HORIZONTE; PROC. JUSTICA DIR. DIFUSOS E COLETIVOS 0,00 0,00 0,00 72,00 0,00 0,00 0,00 0,00 0,00 31/08/2021
428 1089000 ANA LUIZA ALESSI FERREIRA DE CARVALHO ESTAGIARIO BELO HORIZONTE; BH-02PJ FAMILIA
429 1248700 ANA LUIZA ANDRADE KOLASCO ESTAGIARIO BELO HORIZONTE; TOXICOS-13 PJ- COORDENACAO 0,00 0,00 0,00 207,00 0,00 0,00 0,00 0,00 0,00 31/08/2021
430 441100 ANA LUIZA DA COSTA E CRUZ PROMOTOR SUBSTITUTO BETIM - COMARCA; BETIM-PJ-04PJ 1.198,00 0,00 3.040,44 0,00 5.067,40 0,00 0,00 0,00 464,51 31/08/2021
431 161000 ANA LUIZA DE ABREU MOREIRA PROMOT.ENTRANC.ESPECIAL BELO HORIZONTE - COMARCA; BH-03PJ EMPRESARIAL-GAB 037PJ 1.198,00 0,00 3.147,49 0,00 5.614,85 0,00 0,00 0,00 514,69 31/08/2021
432 480600 ANA LUIZA FERNANDES FRAGA E GRECO COORDENADOR/OFICIAL BELO HORIZONTE - COMARCA; OUVIDORIA DO MPMG 1.198,00 0,00 519,00 0,00 0,00 0,00 0,00 0,00 0,00 31/08/2021
433 1133300 ANA LUIZA FERREIRA VAZ ESTAGIARIO DIVINOPOLIS; DIVINOPOLIS-PJ-12PJ 0,00 0,00 0,00 126,00 0,00 0,00 0,00 0,00 0,00 31/08/2021
434 1315700 ANA LUIZA HAUSSMAN CAMPOS ESTAGIARIO CONSELHEIRO PENA; CONSELHEIRO PENA-PJ-01PJ 0,00 0,00 0,00 171,00 0,00 0,00 0,00 0,00 0,00 31/08/2021
435 685400 ANA LUIZA HENRIQUES BERGER MACHADO PROMOTOR SUBSTITUTO JEQUITINHONHA - COMARCA; JEQUITINHONHA-PJ-UNPJ 1.198,00 0,00 716,33 0,00 0,00 0,00 0,00 0,00 0,00 31/08/2021
436 517800 ANA LUIZA MAGALHAES CIRINO PIOTO DE MELO OFICIAL DO MP BELO HORIZONTE - COMARCA; DIVISAO DE MANUTENCAO PREDIAL 1.198,00 1.538,78 519,00 0,00 0,00 0,00 0,00 0,00 0,00 31/08/2021
437 1311400 ANA LUIZA MENDES VIANA ESTAGIARIO BELO HORIZONTE; BH-12PJ JUIZO CRIMINAL-GAB 086PJ 0,00 0,00 0,00 207,00 0,00 0,00 0,00 0,00 0,00 31/08/2021
438 1217100 ANA LUIZA MOREIRA FERNANDES ESTAGIARIO RIO CASCA; RIO CASCA-PJ-UNPJ 0,00 0,00 0,00 207,00 0,00 0,00 0,00 0,00 0,00 31/08/2021
439 1214300 ANA LUIZA SCHUFFNER RIBEIRO ESTAGIARIO BELO HORIZONTE; GABINETE DE PROCURADOR DE JUSTIÇA - SALA 816 0,00 0,00 0,00 72,00 0,00 0,00 0,00 0,00 0,00 31/08/2021
440 1145200 ANA LUIZA SILVA FIDELIS ESTAGIARIO VISCONDE DO RIO BRANCO; VISCONDE DO RIO BRANCO-PJ-02PJ 0,00 0,00 0,00 207,00 0,00 0,00 0,00 0,00 0,00 31/08/2021
441 1260700 ANA LUIZA SOARES BISPO ESTAGIARIO SETE LAGOAS; SETE LAGOAS-PJ-06PJ 0,00 0,00 0,00 189,00 0,00 0,00 0,00 0,00 0,00 31/08/2021
442 1171500 ANA LUIZA TEIXEIRA CUNHA ESTAGIARIO ITAPAGIPE; ITAPAGIPE-PJ-UNPJ 0,00 0,00 0,00 207,00 0,00 0,00 0,00 0,00 0,00 31/08/2021
443 481400 ANA MARCIA CANDIDA FERREIRA OFICIAL DO MP BRUMADINHO - COMARCA; BRUMADINHO-PJ-02PJ 1.198,00 0,00 519,00 0,00 0,00 0,00 0,00 0,00 0,00 31/08/2021
444 114700 ANA MARIA CAMILO DA HORA E ROCHA PROMOT.ENTRANC.ESPECIAL MONTES CLAROS - COMARCA; MONTES CLAROS-PJ-05PJ 1.198,00 0,00 2.821,90 0,00 5.614,85 0,00 0,00 0,00 514,69 31/08/2021
445 1247900 ANA MARIA FONSECA ROSA ESTAGIARIO PATOS DE MINAS; PATOS DE MINAS-PJ-02PJ 0,00 0,00 0,00 27,00 0,00 0,00 0,00 0,00 0,00 31/08/2021
446 643100 ANA MARIA LOPES MIRANDA ANALISTA DO MP BELO HORIZONTE - COMARCA; CAO-FUNDACOES 1.198,00 769,39 519,00 0,00 0,00 0,00 0,00 0,00 0,00 31/08/2021
447 556400 ANA MARIA OLIVEIRA SOUZA OFICIAL DO MP ITAPECERICA - COMARCA; ITAPECERICA-PJ-UNPJ 1.198,00 0,00 519,00 0,00 0,00 0,00 0,00 0,00 0,00 31/08/2021
448 409600 ANA OLIVIA FARIA ROSENBURG ANALISTA DO MP BELO HORIZONTE - COMARCA; DIRETORIA DO COLEGIO E DA CAMARA DE PJ 1.198,00 0,00 519,00 0,00 0,00 0,00 0,00 0,00 0,00 31/08/2021
449 461500 ANA PAULA ALVES CARVALHO ANALISTA DO MP UBERLÂNDIA - COMARCA; UBERLANDIA-PJ-25PJ 1.198,00 0,00 519,00 0,00 0,00 0,00 0,00 0,00 0,00 31/08/2021
450 523200 ANA PAULA ALVES DA SILVA OFICIAL DO MP GOVERNADOR VALADARES - COMARCA; GOVERNADOR VALADARES-PJ-10PJ 1.198,00 3.076,47 519,00 0,00 0,00 0,00 0,00 0,00 0,00 31/08/2021
451 1295700 ANA PAULA ANDRADE GALVAO ESTAGIARIO BELO HORIZONTE; GABINETE DE PROCURADOR DE JUSTIÇA - SALA 709 0,00 0,00 0,00 162,00 0,00 0,00 0,00 0,00 0,00 31/08/2021
452 381200 ANA PAULA BARROS PEREIRA RIGHI ANALISTA DO MP BELO HORIZONTE - COMARCA; PROC JUST ATUACAO TRIBUNAIS SUPERIORES-GAB003 1.198,00 769,39 519,00 0,00 0,00 0,00 0,00 0,00 0,00 31/08/2021
453 696400 ANA PAULA CARVALHO SILVA ASSESSOR PROMOTOR JUSTICA PERDÕES - COMARCA; PERDOES-PJ-UNPJ 1.198,00 0,00 519,00 0,00 0,00 0,00 0,00 0,00 0,00 31/08/2021
454 700900 ANA PAULA CRAVO SALOME ASSESSOR BELO HORIZONTE - COMARCA; PROCURADOR-GERAL DE JUSTIÇA 1.198,00 0,00 519,00 0,00 0,00 0,00 0,00 0,00 0,00 31/08/2021
455 227200 ANA PAULA DA SILVA CAMPOLINA ANALISTA DO MP BELO HORIZONTE - COMARCA; DIRETORIA DE ORCAMENTO-DIOR/SPC 1.198,00 0,00 519,00 0,00 0,00 0,00 0,00 0,00 0,00 31/08/2021
456 1114000 ANA PAULA DE OLIVEIRA SANTOS ESTAGIARIO ARAGUARI; ARAGUARI-PJ-07PJ 0,00 0,00 0,00 45,00 0,00 0,00 0,00 0,00 0,00 31/08/2021
457 1275600 ANA PAULA DE SOUZA OLIVEIRA ESTAGIARIO MURIAE; MURIAE-PJ-07PJ 0,00 0,00 0,00 90,00 0,00 0,00 0,00 0,00 0,00 31/08/2021
458 278500 ANA PAULA DIAS CAPANEMA OFICIAL DO MP BELO HORIZONTE - COMARCA; DIRETORIA DE SEGURANCA 1.198,00 0,00 519,00 0,00 0,00 0,00 0,00 0,00 0,00 31/08/2021
459 1158900 ANA PAULA FONSECA ANDRADE ESTAGIARIO BELO HORIZONTE; CENTRAL DE APOIO TECNICO-SETOR DE ENGENHARIA
460 327300 ANA PAULA GARCIA MAXIMO OFICIAL DO MP UNAÍ - COMARCA; UNAI-PJ-01PJ 1.198,00 0,00 519,00 0,00 0,00 0,00 0,00 0,00 0,00 31/08/2021
461 1229100 ANA PAULA GOMES MIRANDA ESTAGIARIO BELO HORIZONTE; BH-12PJ JUIZO CRIMINAL-GAB 092PJ 0,00 0,00 0,00 144,00 0,00 0,00 0,00 0,00 0,00 31/08/2021
462 270000 ANA PAULA GOULART CRUZ DE MAGALHAES ANALISTA DO MP BELO HORIZONTE - COMARCA; ASSESSORIA ESPECIAL DO PGJ 1.198,00 0,00 519,00 0,00 0,00 0,00 0,00 0,00 0,00 31/08/2021
463 262100 ANA PAULA KOMATSUZAKI ABIJAUDI ANALISTA DO MP BELO HORIZONTE - COMARCA; BH-17PJ PATRIMONIO PUBLICO-SECRETARIA 1.198,00 0,00 519,00 0,00 0,00 0,00 0,00 0,00 0,00 31/08/2021
464 671400 ANA PAULA LIMA DA SILVA PROMOTOR 1A ENTRANCIA RIO CASCA - COMARCA; RIO CASCA-PJ-UNPJ 1.198,00 0,00 2.417,98 0,00 5.067,40 0,00 0,00 0,00 464,51 31/08/2021
465 222600 ANA PAULA LOURENCO DE PAULA PROMOTOR 2A ENTRANCIA ITUIUTABA - COMARCA; ITUIUTABA-PJ-03PJ 1.198,00 0,00 3.200,47 0,00 5.334,11 0,00 0,00 0,00 488,96 31/08/2021
466 106200 ANA PAULA MENDES RODRIGUES PROCURADOR DE JUSTICA BELO HORIZONTE - COMARCA; PROC JUSTICA DIR DIFUSOS E COLETIVOS-GAB007 1.198,00 0,00 1.193,88 0,00 5.910,37 0,00 0,00 0,00 541,78 31/08/2021
467 1065000 ANA PAULA MINARINI DA SILVA ESTAGIARIO CATAGUASES; CATAGUASES-PJ-01PJ 0,00 0,00 0,00 36,00 0,00 0,00 0,00 0,00 0,00 31/08/2021
468 278900 ANA PAULA MOREIRA GURGEL COORDENADOR/ANALISTA BELO HORIZONTE - COMARCA; ASSESSORIA JURIDICO-ADMINISTRATIVA 1.198,00 0,00 519,00 0,00 0,00 0,00 0,00 0,00 0,00 31/08/2021
469 1082100 ANA PAULA NOBRE PEREIRA ESTAGIARIO 0,00 0,00 0,00 207,00 0,00 0,00 0,00 0,00 0,00 31/08/2021
470 1185200 ANA PAULA QUINTELA PENA LOPES ESTAGIARIO CARATINGA; CARATINGA-PJ-07PJ 0,00 0,00 0,00 207,00 0,00 0,00 0,00 0,00 0,00 31/08/2021
471 484400 ANA PAULA RESENDE DORNELLAS DE AZEVEDO PROMOTOR SUBSTITUTO RIBEIRÃO DAS NEVES - COMARCA; RIBEIRAO DAS NEVES-PJ-06PJ 1.198,00 0,00 2.625,08 0,00 5.067,40 0,00 0,00 0,00 464,51 31/08/2021
472 425701 ANA PAULA ROCHA ANALISTA DO MP BELO HORIZONTE - COMARCA; ASSESSORIA DE COMUNICACAO INTEGRADA 1.198,00 769,39 519,00 0,00 0,00 0,00 0,00 0,00 0,00 31/08/2021
473 692700 ANA PAULA RODRIGUES GOMES GONCALVES ASSESSOR PROCURADOR JUSTICA BELO HORIZONTE - COMARCA; GABINETE DE PROCURADOR DE JUSTIÇA - SALA 1012 1.198,00 769,39 519,00 0,00 0,00 0,00 0,00 0,00 0,00 31/08/2021
474 395601 ANA PAULA SALGE OLIVEIRA ANALISTA DO MP UBERABA - COMARCA; UBERABA-PJ-15PJ 1.198,00 0,00 519,00 0,00 0,00 0,00 0,00 0,00 0,00 31/08/2021
475 1150000 ANA PAULA SANTIAGO TEIXEIRA SANTOS ESTAGIARIO GUANHAES; GUANHAES-PJ-02PJ 0,00 0,00 0,00 117,00 0,00 0,00 0,00 0,00 0,00 31/08/2021
476 473200 ANA PAULA SCOTTON BRASIL ANALISTA DO MP JUIZ DE FORA - COMARCA; JUIZ DE FORA-PJ-07PJ 1.198,00 769,39 519,00 0,00 0,00 0,00 0,00 0,00 0,00 31/08/2021
477 633600 ANA PAULA SILVA FERNANDES OFICIAL DO MP CATAGUASES - COMARCA; CATAGUASES-PJ-04PJ 1.198,00 0,00 519,00 0,00 0,00 0,00 0,00 0,00 0,00 31/08/2021
478 470900 ANA PAULA VALADARES ANALISTA DO MP PITANGUI - COMARCA; PITANGUI-PJ-01PJ 1.198,00 0,00 519,00 0,00 0,00 0,00 0,00 0,00 0,00 31/08/2021
479 447000 ANA PAULA VALENTIM DE ARAUJO ANALISTA DO MP BELO HORIZONTE - COMARCA; PROC JUST ESP ACOES COMP ORIG CRIMINAL-ASSESS 1.198,00 0,00 519,00 0,00 0,00 0,00 0,00 0,00 0,00 31/08/2021
480 604200 ANA PAULA VIANA E SILVA OFICIAL DO MP BELO HORIZONTE - COMARCA; BH-17PJ PATRIMONIO PUBLICO-SECRETARIA 1.198,00 0,00 519,00 0,00 0,00 0,00 0,00 0,00 0,00 31/08/2021
481 505400 ANA PAULA VIEIRA SOUTO OFICIAL DO MP ALMENARA - COMARCA; ALMENARA-PJ-01PJ 1.198,00 0,00 519,00 0,00 2.229,06 0,00 0,00 0,00 204,33 31/08/2021
482 280200 ANA RACHEL BRANDAO LADEIRA ROLAND DIRETOR/ANALISTA BELO HORIZONTE - COMARCA; SUPERINTENDENCIA GESTÃO DE PESSOAS 1.198,00 0,00 519,00 0,00 0,00 0,00 0,00 0,00 0,00 31/08/2021
483 691000 ANA RACHEL DOS REIS E SENA COSTA ASSESSOR PROMOTOR JUSTICA BELO HORIZONTE - COMARCA; GABINETE DE PROCURADOR DE JUSTIÇA - SALA 601 1.198,00 0,00 519,00 0,00 0,00 0,00 0,00 0,00 0,00 31/08/2021
484 601200 ANA REGINA RIBEIRO COORDENADOR/ANALISTA BELO HORIZONTE - COMARCA; DIV FISCAL ADM CONT TERCEIRIZACAO 1.198,00 0,00 519,00 0,00 0,00 0,00 0,00 0,00 0,00 31/08/2021
485 1053100 ANA RITA FERREIRA PIMENTA DOS SANTOS ESTAGIARIO BOCAIUVA; BOCAIUVA-PJ-03PJ 0,00 0,00 0,00 207,00 0,00 0,00 0,00 0,00 0,00 31/08/2021
486 1229700 ANA RITA FONSECA ESTAGIARIO FORMIGA; FORMIGA-PJ-03PJ 0,00 0,00 0,00 198,00 0,00 0,00 0,00 0,00 0,00 31/08/2021
487 384700 ANA RODRIGUES PEREIRA MARRA ANALISTA DO MP COROMANDEL - COMARCA; COROMANDEL-PJ-01PJ 1.198,00 769,39 519,00 0,00 0,00 0,00 0,00 0,00 0,00 31/08/2021
488 232700 ANA SILVIA SEMBLANO NAKAMURA ASSESSOR/OFICIAL BELO HORIZONTE - COMARCA; CENT DE APOIO TEC-SETOR DEF,IDOSO E INFANC 1.198,00 0,00 519,00 0,00 0,00 0,00 0,00 0,00 0,00 31/08/2021
489 1123000 ANA TELMA APARECIDA COSTA ESTAGIARIO
490 530300 ANA TEREZA RIBEIRO SALLES GIACOMINI PROMOTOR SUBSTITUTO CONTAGEM - COMARCA; CONTAGEM-PJ-19PJ 1.198,00 0,00 2.387,76 0,00 10.134,81 0,00 0,00 0,00 0,00 31/08/2021
491 1147700 ANA VICTORIA DOS PASSOS CAETANO ESTAGIARIO GOVERNADOR VALADARES; GOVERNADOR VALADARES-PJ-16PJ 0,00 0,00 0,00 90,00 0,00 0,00 0,00 0,00 0,00 31/08/2021
492 602100 ANACLETO FRANCISCO MARCIER PIMENTA OFICIAL DO MP SÃO JOÃO DEL REI - COMARCA; SAO JOAO DEL REI-PJ-03PJ 1.198,00 0,00 519,00 0,00 0,00 0,00 0,00 0,00 0,00 31/08/2021
493 310400 ANADEJE DO CARMO DINIZ ARAUJO OFICIAL DO MP BELO HORIZONTE - COMARCA; DIRETORIA DE PESSOAL ADMINISTRATIVO - DPAD 1.198,00 0,00 519,00 0,00 0,00 0,00 0,00 0,00 0,00 31/08/2021
494 337000 ANAILDES MARIA MENDES OFICIAL DO MP JANAÚBA - COMARCA; JANAUBA-PJ-02PJ 1.198,00 769,39 519,00 0,00 0,00 0,00 0,00 0,00 0,00 31/08/2021
495 1170500 ANANDA EVELYN AURELIO DE SOUZA ESTAGIARIO CONTAGEM; COORD REG DEF ORDEM ECON TRIB CONTAGEM 0,00 0,00 0,00 72,00 0,00 0,00 0,00 0,00 0,00 31/08/2021
496 192900 ANATALIA CERQUEIRA LIMA PERES OFICIAL DO MP UBERABA - COMARCA; COORD REG SAUDE MACROR SANIT TRIANGULO SUL 1.198,00 0,00 519,00 0,00 0,00 0,00 0,00 0,00 0,00 31/08/2021
497 377400 ANDEIRSON DA MATTA BARBOSA ANALISTA DO MP POUSO ALEGRE - COMARCA; POUSO ALEGRE-PJ-01PJ 1.198,00 769,39 519,00 0,00 0,00 0,00 0,00 0,00 0,00 31/08/2021
498 317400 ANDERSON DA SILVA BICALHO OFICIAL DO MP CONTAGEM - COMARCA; CONTAGEM-PJ-SECRETARIA 1.198,00 0,00 519,00 0,00 0,00 0,00 0,00 0,00 0,00 31/08/2021
499 506900 ANDERSON DE SOUZA DAMIANI ANALISTA DO MP BELO HORIZONTE - COMARCA; DIRETORIA DE PAGAMENTO DE PESSOAL-DPAG 1.198,00 0,00 519,00 0,00 0,00 0,00 0,00 0,00 0,00 31/08/2021
500 410000 ANDERSON DE SOUZA NETO ASSESSOR BELO HORIZONTE - COMARCA; DIRETORIA DE ADMINISTRACAO FINANCEIRA 1.198,00 0,00 519,00 0,00 0,00 0,00 0,00 0,00 0,00 31/08/2021
501 1300000 ANDERSON EDUARDO DOS SANTOS PEDRO ESTAGIARIO TRES CORACOES; TRES CORACOES-PJ-02PJ 0,00 0,00 0,00 180,00 0,00 0,00 0,00 0,00 0,00 31/08/2021
502 181900 ANDERSON FLAVIO DE OLIVEIRA OFICIAL DO MP ITAGUARA - COMARCA; ITAGUARA-PJ-SECRETARIA 1.198,00 0,00 519,00 0,00 0,00 0,00 0,00 0,00 0,00 31/08/2021
503 333200 ANDERSON JOSE DE FREITAS OFICIAL DO MP IPATINGA - COMARCA; IPATINGA-PJ-04PJ 1.198,00 769,39 519,00 0,00 0,00 0,00 1.445,27 0,00 0,00 31/08/2021
504 699400 ANDERSON LUIZ CABRAL ASSESSOR PROMOTOR JUSTICA ALÉM PARAÍBA - COMARCA; ALEM PARAIBA-PJ-03PJ 1.198,00 0,00 519,00 0,00 0,00 0,00 0,00 0,00 0,00 31/08/2021
505 462100 ANDERSON LUIZ GUIMARAES CARDOSO ANALISTA DO MP BARBACENA - COMARCA; BARBACENA-PJ-02PJ 1.198,00 0,00 519,00 0,00 0,00 0,00 0,00 0,00 0,00 31/08/2021
506 429700 ANDERSON MELO DE SOUZA ASSESSOR/OFICIAL BELO HORIZONTE - COMARCA; DIRET DE ESTAGIOS E CONVENIOS ACADEMICOS 1.198,00 0,00 519,00 0,00 0,00 0,00 0,00 0,00 0,00 31/08/2021
507 545600 ANDERSON MENDES PROCOPIO FERREIRA ANALISTA DO MP BELO HORIZONTE - COMARCA; BH-12PJ JUIZO CRIMINAL-GAB 089PJ 1.198,00 0,00 519,00 0,00 0,00 0,00 0,00 0,00 0,00 31/08/2021
508 519900 ANDERSON MOREIRA DOEHLER ANALISTA DO MP TEÓFILO OTONI - COMARCA; COORD REG SAUDE MACRORREGIAO SANIT NORDESTE 1.198,00 0,00 519,00 0,00 0,00 0,00 0,00 0,00 0,00 31/08/2021
509 103000 ANDERSON TADEU DE DEUS ASSESSOR BELO HORIZONTE - COMARCA; BH-26 CRIME CONT CRIAN ADOL-SECRETARIA 1.198,00 0,00 519,00 0,00 0,00 0,00 0,00 0,00 0,00 31/08/2021
510 652500 ANDERSON TADEU LOPES INVESTIGADOR DE POLICIA 2 CONTAGEM - COMARCA; COORD REG DEF ORDEM ECON TRIB CONTAGEM 1.198,00 0,00 0,00 0,00 0,00 0,00 0,00 0,00 0,00 31/08/2021
511 309200 ANDITYAS SOARES DE MOURA COSTA MATOS ANALISTA DO MP BELO HORIZONTE - COMARCA; GABINETE DE PROCURADOR DE JUSTIÇA - SALA 909 1.198,00 0,00 519,00 0,00 0,00 0,00 0,00 0,00 0,00 31/08/2021
512 1080700 ANDRE ARAUJO GABRIEL REIS ESTAGIARIO BARBACENA; BARBACENA-PJ-05PJ
513 519200 ANDRE BORJA LANA ANALISTA DO MP BELO HORIZONTE - COMARCA; DIR CONTEUDO JORNALISTICO 1.198,00 0,00 519,00 0,00 0,00 0,00 0,00 0,00 0,00 31/08/2021
514 486000 ANDRE CARDOSO CAVALCANTI PROMOTOR 2A ENTRANCIA ITAJUBA - COMARCA; ITAJUBA-PJ-02PJ 1.198,00 0,00 2.708,09 0,00 5.334,11 0,00 0,00 0,00 488,96 31/08/2021
515 224900 ANDRE CHIO MAXIMO PROMOT.ENTRANC.ESPECIAL VESPASIANO - COMARCA; VESPASIANO-PJ-02PJ 1.198,00 0,00 3.368,91 0,00 0,00 0,00 0,00 0,00 0,00 31/08/2021
516 1253200 ANDRE DE MUYLDER OLIVEIRA ESTAGIARIO BELO HORIZONTE; DIV FISCAL ADM CONT TERCEIRIZACAO 0,00 0,00 0,00 207,00 0,00 0,00 0,00 0,00 0,00 31/08/2021
517 102400 ANDRE DE OLIVEIRA ANDRADE PROMOT.ENTRANC.ESPECIAL BELO HORIZONTE - COMARCA; BH-02PJ FAMILIA-GAB 030PJ 1.198,00 0,00 3.368,91 0,00 5.614,85 0,00 0,00 0,00 514,69 31/08/2021
518 656000 ANDRE DE OLIVEIRA SOUSA INVESTIGADOR DE POLICIA 2 BELO HORIZONTE - COMARCA; GAECO - SETOR POLICIAL CIVIL 1.198,00 0,00 0,00 0,00 0,00 0,00 0,00 0,00 0,00 31/08/2021
519 79200 ANDRE ESTEVAO UBALDINO PEREIRA PROCURADOR DE JUSTICA BELO HORIZONTE - COMARCA; GABINETE DE PROCURADOR DE JUSTIÇA - SALA 502 1.198,00 0,00 3.546,22 0,00 29.551,85 0,00 0,00 0,00 541,78 31/08/2021
520 1103000 ANDRE FELIPE ROSA DA SILVA ESTAGIARIO BARBACENA; BARBACENA-PJ-SECRETARIA 0,00 0,00 0,00 45,00 0,00 0,00 0,00 0,00 0,00 31/08/2021
521 637200 ANDRE FERNANDES DA CUNHA OFICIAL DO MP MORADA NOVA DE MINAS - COMARCA; MORADA NOVA DE MINAS-PJ-UNPJ 1.198,00 0,00 519,00 0,00 0,00 0,00 0,00 0,00 0,00 31/08/2021
522 162800 ANDRE FERNANDO COLUCCO PROMOTOR 2A ENTRANCIA CASSIA - COMARCA; CASSIA-PJ-02PJ 1.198,00 0,00 2.778,48 0,00 10.668,22 0,00 0,00 0,00 0,00 31/08/2021
523 1131900 ANDRE FERREIRA ESTAGIARIO POCOS DE CALDAS; POCOS DE CALDAS-PJ-04PJ 0,00 0,00 0,00 81,00 0,00 0,00 0,00 0,00 0,00 31/08/2021
524 651500 ANDRE GONCALVES MARANHAO OFICIAL DO MP JACINTO - COMARCA; JACINTO-PJ-SECRETARIA 1.198,00 0,00 519,00 0,00 0,00 0,00 0,00 0,00 0,00 31/08/2021
525 1246100 ANDRE HENRIQUE DO CARMO COSTA ESTAGIARIO RIBEIRAO DAS NEVES; RIBEIRAO DAS NEVES-PJ-09PJ 0,00 0,00 0,00 198,00 0,00 0,00 0,00 0,00 0,00 31/08/2021
526 439200 ANDRE LEITE DE ALMEIDA PROMOT.ENTRANC.ESPECIAL VESPASIANO - COMARCA; VESPASIANO-PJ-03PJ 1.198,00 0,00 1.345,83 0,00 0,00 0,00 0,00 0,00 0,00 31/08/2021
527 1226000 ANDRE LUCAS IZAC DE SOUZA ESTAGIARIO BELO HORIZONTE; COORD DE INCLUSAO E MOBILIZACAO SOCIAIS 0,00 0,00 0,00 72,00 0,00 0,00 0,00 0,00 0,00 31/08/2021
528 166900 ANDRE LUIS ALVES DE MELO PROMOTOR 2A ENTRANCIA ARAGUARI - COMARCA; ARAGUARI-PJ-01PJ 1.198,00 0,00 3.200,47 0,00 10.668,22 0,00 0,00 0,00 0,00 31/08/2021
529 85000 ANDRE LUIS GARCIA DE PINHO PROMOT.ENTRANC.ESPECIAL DISPONIBILIDADE COMPULSORIA-COMARCA; DISPONIBILIDADE COMPULSORIA - UNIDADE 0,00 0,00 2.945,65 0,00 0,00 0,00 0,00 0,00 0,00 31/08/2021
530 521900 ANDRE LUIS GOMES SILVA ANALISTA DO MP FORMIGA - COMARCA; FORMIGA-PJ-02PJ 1.198,00 769,39 519,00 0,00 0,00 0,00 0,00 0,00 0,00 31/08/2021
531 340800 ANDRE LUIS MACHADO ARANTES PROMOTOR 2A ENTRANCIA PARÁ DE MINAS - COMARCA; PARA DE MINAS-PJ-05PJ 1.198,00 0,00 2.604,82 0,00 5.614,85 0,00 0,00 0,00 2.199,15 31/08/2021
532 1196600 ANDRE LUIS SILVEIRA BEZERRA ESTAGIARIO BELO HORIZONTE; PROC. JUSTICA DIR. DIFUSOS E COLETIVOS 0,00 0,00 0,00 27,00 0,00 0,00 0,00 0,00 0,00 31/08/2021
533 304300 ANDRE LUIZ AVELAR ANALISTA DO MP BELO HORIZONTE - COMARCA; DIRETORIA DE REDES E BANCOS DE DADOS 1.198,00 0,00 519,00 0,00 0,00 0,00 0,00 0,00 0,00 31/08/2021
534 666100 ANDRE LUIZ FERREIRA VALADARES PROMOTOR 2A ENTRANCIA VARZEA DA PALMA - COMARCA; VARZEA DA PALMA-PJ-02PJ 1.198,00 0,00 2.444,32 0,00 16.002,33 0,00 0,00 0,00 488,96 31/08/2021
535 530200 ANDRE LUIZ NOLLI MERRIGHI PROMOT.ENTRANC.ESPECIAL SETE LAGOAS - COMARCA; SETE LAGOAS-PJ-03PJ 1.198,00 0,00 2.648,24 0,00 5.614,85 0,00 0,00 0,00 514,69 31/08/2021
536 397400 ANDRE PATARO MYRRHA DE PAULA E SILVA ANALISTA DO MP BELO HORIZONTE - COMARCA; ASSESSORIA JURIDICO-ADMINISTRATIVA 1.198,00 769,39 519,00 0,00 0,00 0,00 0,00 0,00 0,00 31/08/2021
537 533200 ANDRE PEREIRA MAFIA PROMOTOR 2A ENTRANCIA ALÉM PARAÍBA - COMARCA; ALEM PARAIBA-PJ-01PJ 1.198,00 0,00 759,74 0,00 5.334,11 0,00 0,00 0,00 488,96 31/08/2021
538 441200 ANDRE SALLES DIAS PINTO PROMOTOR 2A ENTRANCIA IGARAPÉ - COMARCA; IGARAPE-PJ-01PJ 1.198,00 0,00 3.200,47 0,00 5.334,11 0,00 0,00 0,00 488,96 31/08/2021
539 237800 ANDRE SILVARES VASCONCELOS PROMOTOR 2A ENTRANCIA PIUMHI - COMARCA; PIUMHI-PJ-02PJ 1.198,00 0,00 2.539,71 0,00 25.603,73 0,00 0,00 0,00 488,96 31/08/2021
540 231800 ANDRE SPERLING PRADO PROMOT.ENTRANC.ESPECIAL BELO HORIZONTE - COMARCA; COORD DE INCLUSAO E MOBILIZACAO SOCIAIS 1.198,00 0,00 2.626,53 0,00 12.352,67 0,00 0,00 0,00 514,69 31/08/2021
541 666300 ANDRE TANURE DOMINGUES FIGUEIREDO PROMOTOR SUBSTITUTO MONTES CLAROS - COMARCA; MONTES CLAROS-PJ-01PJ 1.198,00 0,00 1.324,12 0,00 5.067,40 0,00 0,00 0,00 464,51 31/08/2021
542 650100 ANDRE THOME VARGAS OFICIAL DO MP LEOPOLDINA - COMARCA; LEOPOLDINA-PJ-04PJ 1.198,00 0,00 519,00 0,00 0,00 0,00 0,00 0,00 0,00 31/08/2021
543 231600 ANDRE TUMA DELBIM FERREIRA PROMOT.ENTRANC.ESPECIAL UBERABA - COMARCA; COORD REG PJ DEF EDUC DIR CRIANCA ADOL TRIANG 1.198,00 0,00 1.628,01 0,00 5.614,85 0,00 0,00 0,00 514,69 31/08/2021
544 671500 ANDRE VALDERRAMAS FRANCO PROMOTOR SUBSTITUTO ITUIUTABA - COMARCA; ITUIUTABA-PJ-01PJ 1.198,00 0,00 607,79 0,00 15.202,21 0,00 0,00 0,00 464,51 31/08/2021
545 548500 ANDRE VINICIUS CARVALHO MEIRA ANALISTA DO MP JUIZ DE FORA - COMARCA; JUIZ DE FORA-PJ-24PJ 1.198,00 0,00 519,00 0,00 0,00 0,00 0,00 0,00 0,00 31/08/2021
546 297200 ANDRE WILLE ROSARIO ANALISTA DO MP BELO HORIZONTE - COMARCA; ASSESSORIA ESPECIAL DO PGJ 1.198,00 0,00 519,00 0,00 0,00 0,00 0,00 0,00 0,00 31/08/2021
547 224500 ANDREA BASILIO GONCALVES GOLLOP PROMOT.ENTRANC.ESPECIAL BELO HORIZONTE - COMARCA; BH-18PJ VIOLENCIA DOMESTICA-GAB 186PJ 1.198,00 0,00 3.368,91 0,00 0,00 0,00 0,00 0,00 0,00 31/08/2021
548 666400 ANDREA CLEMENTE BARBOSA DE SOUZA PROMOTOR SUBSTITUTO ITAÚNA - COMARCA; ITAUNA-PJ-05PJ 1.198,00 0,00 2.560,92 0,00 0,00 0,00 0,00 0,00 0,00 31/08/2021
549 423600 ANDREA COSTA GUALBERTO ALVES ANALISTA DO MP GOVERNADOR VALADARES - COMARCA; COORD REG PJ DEF EDU DIR CRIANCA ADOL RIODOCE 1.198,00 0,00 519,00 0,00 0,00 0,00 0,00 0,00 0,00 31/08/2021
550 198600 ANDREA CRISTINA ANDRADE COSTA E SOUZA OFICIAL DO MP MONTES CLAROS - COMARCA; MONTES CLAROS-PJ-15PJ 1.198,00 0,00 519,00 0,00 0,00 0,00 0,00 0,00 0,00 31/08/2021
551 230600 ANDREA CRISTINA CALDAS SANTIAGO PROMOT.ENTRANC.ESPECIAL CONSELHEIRO LAFAIETE - COMARCA; CONSELHEIRO LAFAIETE-PJ-07PJ 1.198,00 0,00 1.432,65 0,00 16.844,55 0,00 0,00 0,00 514,69 31/08/2021
552 467300 ANDREA DE CASSIA PENNA ALVERNAZ ANALISTA DO MP PONTE NOVA - COMARCA; PONTE NOVA-PJ-01PJ 1.198,00 0,00 519,00 0,00 0,00 0,00 0,00 0,00 0,00 31/08/2021
553 308000 ANDREA DE CASSIA SANTOS OLIVEIRA ANALISTA DO MP BELO HORIZONTE - COMARCA; COORD DE GABINETE DO PGJ 1.198,00 0,00 519,00 0,00 0,00 0,00 0,00 0,00 0,00 31/08/2021
554 106300 ANDREA DE FIGUEIREDO SOARES PROCURADOR DE JUSTICA BELO HORIZONTE - COMARCA; GABINETE DE PROCURADOR DE JUSTIÇA - SALA 709 1.198,00 0,00 3.060,67 0,00 17.731,11 0,00 0,00 0,00 541,78 31/08/2021
555 349500 ANDREA DE OLIVEIRA LOIOLA REGIS OFICIAL DO MP IGUATAMA - COMARCA; IGUATAMA-PJ-UNPJ 1.198,00 0,00 519,00 0,00 0,00 0,00 0,00 0,00 2.925,63 31/08/2021
556 287900 ANDREA FERNANDES PENA MARTINS OFICIAL DO MP MONTES CLAROS - COMARCA; MONTES CLAROS-PJ-09PJ 1.198,00 0,00 519,00 0,00 0,00 0,00 0,00 0,00 0,00 31/08/2021
557 300800 ANDREA FERREIRA ANALISTA DO MP LAVRAS - COMARCA; LAVRAS-PJ-04PJ 1.198,00 0,00 519,00 0,00 5.559,02 0,00 0,00 0,00 509,58 31/08/2021
558 395100 ANDREA LANNA MENDES NOVAIS ANALISTA DO MP BELO HORIZONTE - COMARCA; PROMOT ESTADUAL DE DEF PATRI CULT E TUR DE MG 1.198,00 0,00 519,00 0,00 0,00 0,00 0,00 0,00 0,00 31/08/2021
559 67300 ANDREA LEAO MAGALHAES ROQUE ASSESSOR BELO HORIZONTE - COMARCA; COORD ESTADUAL COMBATE CRIMES CIBERNETICOS 1.198,00 0,00 519,00 0,00 0,00 0,00 0,00 0,00 0,00 31/08/2021
560 335700 ANDREA LOPES PEREIRA ANALISTA DO MP GOVERNADOR VALADARES - COMARCA; COORD REG DO MA DA BACIA DO RIO DOCE 1.198,00 0,00 519,00 0,00 0,00 0,00 0,00 0,00 0,00 31/08/2021
561 224700 ANDREA MARIA NESSRALLA BAHURY PROMOT.ENTRANC.ESPECIAL BELO HORIZONTE - COMARCA; BH-12PJ JUIZO CRIMINAL-GAB 089PJ 1.198,00 0,00 2.387,76 0,00 5.614,85 0,00 0,00 0,00 514,69 31/08/2021
562 167000 ANDREA MISMOTTO CARELLI PROMOT.ENTRANC.ESPECIAL BELO HORIZONTE - COMARCA; COORD ESTADUAL DE DEFESA DA EDUCACAO 1.198,00 0,00 998,51 0,00 16.844,55 0,00 0,00 0,00 514,69 31/08/2021
563 389200 ANDREA TUPINI DOS SANTOS TRISTAO DA ROCHA COORDENADOR/OFICIAL BELO HORIZONTE - COMARCA; BH-13ª PJ JUÍZO DE TÓXICOS-SECRETARIA 1.198,00 0,00 519,00 0,00 2.836,60 0,00 0,00 0,00 260,02 31/08/2021
564 1071200 ANDREI LUCAS BASILIO SANTANA ESTAGIARIO JANUARIA; JANUARIA-PJ-01PJ 0,00 0,00 0,00 108,00 0,00 0,00 0,00 0,00 0,00 31/08/2021
565 419000 ANDREIA BARBOSA DE ALMEIDA ANALISTA DO MP BELO HORIZONTE - COMARCA; GABINETE DE PROCURADOR DE JUSTIÇA - SALA 705 1.198,00 0,00 519,00 0,00 0,00 0,00 0,00 0,00 0,00 31/08/2021
566 281501 ANDREIA CARLA COSTA ANALISTA DO MP UBÁ - COMARCA; UBA-PJ-02PJ 1.198,00 0,00 519,00 0,00 0,00 0,00 0,00 0,00 0,00 31/08/2021
567 477100 ANDREIA DE ALMEIDA RIBEIRO MELO OFICIAL DO MP CONTAGEM - COMARCA; CONTAGEM-PJ-SECRETARIA 1.198,00 0,00 519,00 0,00 0,00 0,00 0,00 0,00 0,00 31/08/2021
568 1170600 ANDREIA DE PAULA CAMPOS NUNES ESTAGIARIO ANDRELANDIA; ANDRELANDIA-PJ-UNPJ 0,00 0,00 0,00 198,00 0,00 0,00 0,00 0,00 0,00 31/08/2021
569 619000 ANDREIA FERREIRA NORONHA COORDENADOR/OFICIAL BELO HORIZONTE - COMARCA; DIRETORIA DE SERVICO CRIMINAL 1.198,00 0,00 519,00 0,00 0,00 0,00 0,00 0,00 0,00 31/08/2021
570 424000 ANDREIA LUCIA COUTO ANALISTA DO MP BELO HORIZONTE - COMARCA; BH-18PJ DIREITOS HUMANOS-SECRETARIA 1.198,00 0,00 519,00 0,00 0,00 0,00 0,00 0,00 0,00 31/08/2021
571 1138400 ANDREIA MARIA FIRMO ESTAGIARIO BELO HORIZONTE; PROC. JUSTICA DIR. DIFUSOS E COLETIVOS 0,00 0,00 0,00 9,00 0,00 0,00 0,00 0,00 0,00 31/08/2021
572 370100 ANDREIA MARIA SILVA PINTO OFICIAL DO MP CORONEL FABRICIANO - COMARCA; CORONEL FABRICIANO-PJ-01PJ 1.198,00 769,39 519,00 0,00 0,00 0,00 0,00 0,00 0,00 31/08/2021
573 1305000 ANDREIA MARTINS GUIMARAES ESTAGIARIO BELO HORIZONTE; PROC. JUSTICA DIR. DIFUSOS E COLETIVOS 0,00 0,00 0,00 18,00 0,00 0,00 0,00 0,00 0,00 31/08/2021
574 382100 ANDREIA NATALI PEREIRA DE OLIVEIRA OFICIAL DO MP PRADOS - COMARCA; PRADOS-PJ-UNPJ 1.198,00 0,00 519,00 0,00 0,00 0,00 0,00 0,00 0,00 31/08/2021
575 198701 ANDREIA NUNES DURAES PROMOTOR 2A ENTRANCIA BOCAIÚVA - COMARCA; BOCAIUVA-PJ-02PJ 1.198,00 0,00 0,00 0,00 5.334,11 0,00 0,00 0,00 488,96 31/08/2021
576 275200 ANDREIA RIBEIRO FREITAS OFICIAL DO MP VIÇOSA - COMARCA; VICOSA-PJ-04PJ 1.198,00 0,00 519,00 0,00 0,00 0,00 0,00 0,00 0,00 31/08/2021
577 1162900 ANDREIA RODRIGUES DE SOUZA ESTAGIARIO 0,00 0,00 0,00 36,00 392,17 0,00 0,00 0,00 0,00 31/08/2021
578 352200 ANDREIA XAVIER PEREIRA OFICIAL DO MP CLÁUDIO - COMARCA; CLAUDIO-PJ-UNPJ 1.198,00 0,00 519,00 0,00 0,00 0,00 0,00 0,00 2.925,63 31/08/2021
579 638500 ANDRESA ALVES FEITOSA CASAGRANDE ANALISTA DO MP LAVRAS - COMARCA; COORD REG DO MA DA BACIA DO RIO GRANDE 1.198,00 0,00 519,00 0,00 0,00 0,00 0,00 0,00 0,00 31/08/2021
580 1221100 ANDRESSA BARBOSA PARANHOS ESTAGIARIO PATOS DE MINAS; COORD REG SAUDE MACRORREGIAO SANIT NOROESTE 0,00 0,00 0,00 207,00 0,00 0,00 0,00 0,00 0,00 31/08/2021
581 210000 ANDRESSA DE OLIVEIRA LANCHOTTI PROMOT.ENTRANC.ESPECIAL BELO HORIZONTE - COMARCA; BH-12PJ JUIZO CRIMINAL-GAB 104PJ 1.198,00 0,00 3.368,91 0,00 5.614,85 0,00 0,00 0,00 514,69 31/08/2021
582 1203800 ANDRESSA DORNELAS BORGES ESTAGIARIO PATOS DE MINAS; PATOS DE MINAS-PJ-SECRETARIA 0,00 0,00 0,00 162,00 0,00 0,00 0,00 0,00 0,00 31/08/2021
583 383700 ANDRESSA EDUARDO SOUZA ANALISTA DO MP OURO BRANCO - COMARCA; OURO BRANCO-PJ-SECRETARIA 1.198,00 769,39 519,00 0,00 0,00 0,00 0,00 0,00 0,00 31/08/2021
584 485500 ANDRESSA ISABELLE FERREIRA BARRETO PROMOTOR 2A ENTRANCIA CONCEICAO DAS ALAGOAS - COMARCA; CONCEICAO DAS ALAGOAS-PJ-02PJ 1.198,00 0,00 3.172,79 0,00 5.334,11 0,00 0,00 0,00 488,96 31/08/2021
585 678400 ANDRESSA LUIZA SILVA LOPES ASSESSOR PROMOTOR JUSTICA CARMO DO PARANAÍBA - COMARCA; CARMO DO PARANAIBA-PJ-02PJ 1.198,00 0,00 519,00 0,00 0,00 0,00 0,00 0,00 0,00 31/08/2021
586 1273700 ANDRESSA MARTINS GUERRA ESTAGIARIO UBERLANDIA; GAECO REGIONAL DE UBERLANDIA 0,00 0,00 0,00 180,00 0,00 0,00 0,00 0,00 0,00 31/08/2021
587 426200 ANDRESSA MENDES CASAL OFICIAL DO MP BELO HORIZONTE - COMARCA; DIR ESTRUTURA E PROCESSOS ORGANIZACIONAIS 1.198,00 0,00 519,00 0,00 0,00 0,00 0,00 0,00 0,00 31/08/2021
588 390100 ANDRESSA RIBEIRO PUCCI OFICIAL DO MP UBERABA - COMARCA; UBERABA-PJ-14PJ 1.198,00 0,00 519,00 0,00 0,00 0,00 0,00 0,00 0,00 31/08/2021
589 462500 ANDREZA APARECIDA COSTA E SILVA ANALISTA DO MP CONSELHEIRO LAFAIETE - COMARCA; CONSELHEIRO LAFAIETE-PJ-02PJ 1.198,00 0,00 519,00 0,00 0,00 0,00 0,00 0,00 0,00 31/08/2021
590 677700 ANDREZA DE LOURDES FERREIRA DE PAIVA ASSESSOR PROMOTOR JUSTICA ABRE CAMPO - COMARCA; ABRE CAMPO-PJ-01PJ 1.198,00 0,00 519,00 0,00 0,00 0,00 0,00 0,00 0,00 31/08/2021
591 537800 ANDREZZA LUZIA DE OLIVEIRA ALVES ANALISTA DO MP PATOS DE MINAS - COMARCA; COORD REG PJ DEF EDU DIR CRI ADO AL PAR NOROE 1.198,00 0,00 519,00 0,00 0,00 0,00 0,00 0,00 0,00 31/08/2021
592 1074700 ANDRINE HOLLERBACH DOS SANTOS ESTAGIARIO TEOFILO OTONI; TEOFILO OTONI-PJ-06PJ 0,00 0,00 0,00 198,00 0,00 0,00 0,00 0,00 0,00 31/08/2021
593 491600 ANE PATRICIA RIBEIRO DUARTE ANALISTA DO MP SETE LAGOAS - COMARCA; SETE LAGOAS-PJ-11PJ 1.198,00 0,00 519,00 0,00 0,00 0,00 0,00 0,00 2.013,92 31/08/2021
594 361900 ANELISA CARDOSO RIBEIRO PROMOT.ENTRANC.ESPECIAL CONTAGEM - COMARCA; CONTAGEM-PJ-05PJ 1.198,00 0,00 1.736,54 0,00 5.614,85 0,00 0,00 0,00 514,69 31/08/2021
595 465800 ANELISE GAMA ASSESSOR BELO HORIZONTE - COMARCA; BH-18PJ VIOLENCIA DOMESTICA-SECRETARIA 1.198,00 0,00 519,00 0,00 0,00 0,00 0,00 0,00 0,00 31/08/2021
596 535200 ANELIZE FERNANDA ALVES VILARINHO OFICIAL DO MP CAPINÓPOLIS - COMARCA; CAPINOPOLIS-PJ-UNPJ 1.198,00 1.667,01 519,00 0,00 0,00 0,00 0,00 0,00 0,00 31/08/2021
597 197200 ANGELA COELHO SALDANHA OFICIAL DO MP PARÁ DE MINAS - COMARCA; PARA DE MINAS-PJ-03PJ 1.198,00 0,00 519,00 0,00 0,00 0,00 0,00 0,00 0,00 31/08/2021
598 307400 ANGELA CRISTINA GONCALVES MUNIZ ANALISTA DO MP UBERLÂNDIA - COMARCA; UBERLANDIA-PJ-SEC FAMILIA 1.198,00 0,00 519,00 0,00 0,00 0,00 0,00 0,00 0,00 31/08/2021
599 157100 ANGELA FABERO PROMOT.ENTRANC.ESPECIAL BELO HORIZONTE - COMARCA; BH-23PJ INFRACIONAL-GAB 145PJ 1.198,00 0,00 3.342,86 0,00 5.614,85 0,00 0,00 0,00 514,69 31/08/2021
600 191800 ANGELA MARIA DE OLIVEIRA OFICIAL DO MP GUARANÉSIA - COMARCA; GUARANESIA-PJ-SECRETARIA 1.198,00 0,00 519,00 0,00 5.192,49 0,00 0,00 0,00 475,98 31/08/2021
601 497400 ANGELA MARIA HENRIQUES ANALISTA DO MP BELO HORIZONTE - COMARCA; COORD REG BACIAS RIO VELHAS E PARAOPEBA 1.198,00 0,00 519,00 0,00 0,00 0,00 0,00 0,00 0,00 31/08/2021
602 54600 ANGELA MARIA PEREIRA GRAVINA PROMOT.ENTRANC.ESPECIAL JUIZ DE FORA - COMARCA; JUIZ DE FORA-PJ-11PJ 1.198,00 0,00 1.302,41 0,00 5.614,85 0,00 0,00 0,00 514,69 31/08/2021
603 260700 ANGELICA CRISTINA AZEVEDO MOREIRA MOUCO OFICIAL DO MP UBÁ - COMARCA; UBA-PJ-05PJ 1.198,00 0,00 519,00 0,00 0,00 0,00 0,00 0,00 0,00 31/08/2021
604 1196700 ANGELICA DE MELO ANDRADE ESTAGIARIO CONTAGEM; CONTAGEM-PJ-11PJ 0,00 0,00 0,00 207,00 0,00 0,00 0,00 0,00 0,00 31/08/2021
605 1252800 ANGELICA DE SOUZA CORTES ESTAGIARIO GOVERNADOR VALADARES; GOVERNADOR VALADARES-PJ-12PJ 0,00 0,00 0,00 72,00 0,00 0,00 0,00 0,00 0,00 31/08/2021
606 708300 ANGELICA NUNES VIEIRA DA SILVA ASSESSOR PROMOTOR JUSTICA IBIRITÉ - COMARCA; IBIRITE-PJ-02PJ 1.198,00 0,00 519,00 0,00 0,00 0,00 0,00 0,00 0,00 31/08/2021
607 334600 ANGELICA PANISSA DE FREITAS GALLATI OFICIAL DO MP GUAXUPÉ - COMARCA; GUAXUPE-PJ-02PJ 1.198,00 769,39 519,00 0,00 0,00 0,00 0,00 0,00 0,00 31/08/2021
608 660400 ANGELICA POLLYANA QUEIROZ DE MEDEIROS PROMOTOR 2A ENTRANCIA FRUTAL - COMARCA; FRUTAL-PJ-05PJ 1.198,00 0,00 716,33 0,00 0,00 0,00 0,00 0,00 0,00 31/08/2021
609 521100 ANGELICA SALES MOREIRA OFICIAL DO MP BELO HORIZONTE - COMARCA; BH-02PJ FAMILIA-SECRETARIA 1.198,00 0,00 519,00 0,00 0,00 0,00 0,00 0,00 0,00 31/08/2021
610 466500 ANGELLO MARQUES AGRELLI ANALISTA DO MP MAR DE ESPANHA - COMARCA; MAR DE ESPANHA-PJ-UNPJ 1.198,00 0,00 519,00 0,00 0,00 0,00 0,00 0,00 0,00 31/08/2021
611 222700 ANGELO ALEXANDRE MARZANO PROMOT.ENTRANC.ESPECIAL SANTA LUZIA - COMARCA; SANTA LUZIA-PJ-07PJ 1.198,00 0,00 2.496,29 0,00 16.844,55 0,00 0,00 0,00 514,69 31/08/2021
612 167100 ANGELO ANSANELLI JUNIOR PROMOTOR 2A ENTRANCIA FORMIGA - COMARCA; FORMIGA-PJ-02PJ 1.198,00 0,00 3.200,47 0,00 26.670,55 0,00 0,00 0,00 488,96 31/08/2021
613 363300 ANGELO VERDOLIN HENRIQUES ANALISTA DO MP SETE LAGOAS - COMARCA; SETE LAGOAS-PJ-04PJ 1.198,00 769,39 519,00 0,00 0,00 0,00 0,00 0,00 0,00 31/08/2021
614 267600 ANIBAL TAMAOKI PROMOT.ENTRANC.ESPECIAL BELO HORIZONTE - COMARCA; BH-18PJ VIOLENCIA DOMESTICA-GAB 053PJ 1.198,00 0,00 911,69 0,00 5.614,85 0,00 0,00 0,00 514,69 31/08/2021
615 250900 ANISIO APARECIDO SANTOS OFICIAL DO MP BETIM - COMARCA; BETIM - SECRETARIA DAS PJS CRIMINAIS 1.198,00 0,00 519,00 0,00 0,00 0,00 0,00 0,00 0,00 31/08/2021
616 651200 ANITA MARIA SANT ANA DE MATTOS FONTES OFICIAL DO MP ERVÁLIA - COMARCA; ERVALIA-PJ-UNPJ 1.198,00 0,00 519,00 0,00 0,00 0,00 0,00 0,00 0,00 31/08/2021
617 1256500 ANNA CAROLINA BARBOSA METZKER ESTAGIARIO POCOS DE CALDAS; POCOS DE CALDAS-PJ-06PJ 0,00 0,00 0,00 108,00 0,00 0,00 0,00 0,00 0,00 31/08/2021
618 1183400 ANNA CAROLINA DE SENNA BARCANTE ESTAGIARIO FORMIGA; FORMIGA-PJ-04PJ 0,00 0,00 0,00 198,00 0,00 0,00 0,00 0,00 0,00 31/08/2021
619 698100 ANNA CAROLINA POLICARIO BERTOLIN ASSESSOR PROCURADOR JUSTICA BELO HORIZONTE - COMARCA; PROC. JUSTICA DIR. DIFUSOS E COLETIVOS-SEC 1.198,00 0,00 519,00 0,00 0,00 0,00 0,00 0,00 0,00 31/08/2021
620 253400 ANNA FLAVIA LEHMAN BATTAGLIA DIRETOR/ANALISTA BELO HORIZONTE - COMARCA; SUPRIN DE PLANEJAMENTO E COORDENACAO 1.198,00 0,00 519,00 0,00 0,00 0,00 0,00 0,00 0,00 31/08/2021
621 1043200 ANNA FRANCIELE DA SILVA ESTAGIARIO BELO HORIZONTE; CAO-FUNDACOES 0,00 0,00 0,00 9,00 0,00 0,00 0,00 0,00 0,00 31/08/2021
622 1153400 ANNA GABRIELA SILVA SOUZA ESTAGIARIO UBERLANDIA; UBERLANDIA-PJ-02PJ 0,00 0,00 0,00 99,00 0,00 0,00 0,00 0,00 0,00 31/08/2021
623 1277800 ANNA LUISA BRAZ RODRIGUES ESTAGIARIO BELO HORIZONTE; BH-02PJ FAMILIA-GAB 027PJ
624 1190300 ANNA LUISA MARTINS NOGUEIRA ESTAGIARIO LAGOA SANTA; LAGOA SANTA - 03ª PJ 0,00 0,00 0,00 81,00 0,00 0,00 0,00 0,00 0,00 31/08/2021
625 688800 ANNA LUIZA MATTOS DUARTE ASSESSOR PROCURADOR JUSTICA BELO HORIZONTE - COMARCA; GABINETE DE PROCURADOR DE JUSTIÇA - SALA 305 1.198,00 0,00 519,00 0,00 0,00 0,00 0,00 0,00 0,00 31/08/2021
626 1269400 ANNA LUIZA VIRTUOSO ESTAGIARIO IPATINGA; GAECO REGIONAL DE IPATINGA 0,00 0,00 0,00 144,00 0,00 0,00 0,00 0,00 0,00 31/08/2021
627 1247700 ANNA RAFAELA LESSA DA SILVA ESTAGIARIO ITUIUTABA; ITUIUTABA-PJ-04PJ 0,00 0,00 0,00 207,00 0,00 0,00 0,00 0,00 0,00 31/08/2021
628 1230900 ANNE CAROLINE DASSUMPCAO FONSECA ESTAGIARIO DIVINOPOLIS; DIVINOPOLIS-PJ-03PJ 0,00 0,00 0,00 126,00 0,00 0,00 0,00 0,00 0,00 31/08/2021
629 1307500 ANNELISE GIOVANNA DE ANDRADE ESTAGIARIO BELO HORIZONTE; BH-08PJ JUIZADO ESPECIAL-GAB 163PJ 0,00 0,00 0,00 207,00 0,00 0,00 0,00 0,00 0,00 31/08/2021
630 447600 ANNGELUCE ALCANTARA DE CAMPOS OFICIAL DO MP DIVINÓPOLIS - COMARCA; DIVINOPOLIS-PJ-SECRETARIA 1.198,00 0,00 519,00 0,00 0,00 0,00 0,00 0,00 0,00 31/08/2021
631 119600 ANSELMO BORGES PARREIRAS OFICIAL DO MP BONFIM - COMARCA; BONFIM-PJ-UNPJ 1.198,00 0,00 519,00 0,00 0,00 0,00 0,00 0,00 0,00 31/08/2021
632 630300 ANTONIA GOMES RAMALHO OFICIAL DO MP NOVO CRUZEIRO - COMARCA; NOVO CRUZEIRO-PJ-UNPJ 1.198,00 1.538,78 519,00 0,00 0,00 0,00 0,00 0,00 0,00 31/08/2021
633 332400 ANTONIA MARIA MAMEDE OFICIAL DO MP UBERLÂNDIA - COMARCA; UBERLANDIA-PJ-06PJ 1.198,00 0,00 519,00 0,00 0,00 0,00 0,00 0,00 0,00 31/08/2021
634 73100 ANTONIO AURELIO SANTOS PROCURADOR DE JUSTICA BELO HORIZONTE - COMARCA; CAO-CONFLITOS AGRARIOS 1.198,00 0,00 2.604,82 0,00 17.731,11 0,00 0,00 0,00 541,78 31/08/2021
635 157300 ANTONIO BORGES DA SILVA PROMOTOR 2A ENTRANCIA SÃO LOURENÇO - COMARCA; SAO LOURENCO-PJ-02PJ 1.198,00 0,00 3.125,78 0,00 16.002,33 0,00 0,00 0,00 488,96 31/08/2021
636 401600 ANTONIO CARLOS GUEDES AROUCA ANALISTA DO MP BELO HORIZONTE - COMARCA; ASSESSORIA JURIDICO-ADMINISTRATIVA 1.198,00 0,00 519,00 0,00 0,00 0,00 0,00 0,00 0,00 31/08/2021
637 1298900 ANTONIO DE OLIVEIRA SOUZA JUNIOR ESTAGIARIO UBERLANDIA; UBERLANDIA-PJ-24PJ 0,00 0,00 0,00 162,00 0,00 0,00 0,00 0,00 0,00 31/08/2021
638 76600 ANTONIO DE PADOVA MARCHI JUNIOR PROCURADOR DE JUSTICA BELO HORIZONTE - COMARCA; GABINETE DE PROCURADOR DE JUSTIÇA - SALA 1006 1.198,00 0,00 2.626,53 0,00 17.731,11 0,00 0,00 0,00 541,78 31/08/2021
639 101900 ANTONIO DIAS MAIA PROCURADOR DE JUSTICA BELO HORIZONTE - COMARCA; GABINETE DE PROCURADOR DE JUSTIÇA - SALA 808 1.198,00 0,00 2.604,82 0,00 17.731,11 0,00 0,00 0,00 541,78 31/08/2021
640 84600 ANTONIO DIOGO DA ROCHA PROMOTOR 1A ENTRANCIA BOTELHOS - COMARCA; BOTELHOS-PJ-UNPJ 1.198,00 0,00 2.604,82 0,00 15.202,21 0,00 0,00 0,00 464,51 31/08/2021
641 333900 ANTONIO GONCALVES DE SOUZA FILHO OFICIAL DO MP BELO HORIZONTE - COMARCA; DIRETORIA DE CONTABILIDADE 1.198,00 0,00 519,00 0,00 0,00 0,00 0,00 0,00 0,00 31/08/2021
642 340600 ANTONIO HENRIQUE FRANCO LOPES PROMOT.ENTRANC.ESPECIAL BELO HORIZONTE - COMARCA; ASSESSORIA ESPECIAL-GABINETE DOS ASSESSORES 1.198,00 0,00 1.736,55 0,00 5.614,85 0,00 0,00 0,00 514,69 31/08/2021
643 67600 ANTONIO JOAQUIM SCHELLENBERGER FERNANDES PROCURADOR DE JUSTICA BELO HORIZONTE - COMARCA; PROC JUSTICA DIR DIFUSOS E COLETIVOS-GAB004 1.198,00 0,00 2.387,76 0,00 5.910,37 0,00 0,00 0,00 541,78 31/08/2021
644 77300 ANTONIO JOSE CHINELATO PROCURADOR DE JUSTICA BELO HORIZONTE - COMARCA; GABINETE DE PROCURADOR DE JUSTIÇA - SALA 1008 1.198,00 0,00 0,00 0,00 17.731,11 0,00 0,00 0,00 541,78 31/08/2021
645 211800 ANTONIO JOSE DE OLIVEIRA PROMOTOR 2A ENTRANCIA PASSOS - COMARCA; PASSOS-PJ-06PJ 1.198,00 0,00 3.060,67 0,00 26.670,55 0,00 0,00 0,00 488,96 31/08/2021
646 1272200 ANTONIO MANOEL SANTOS DA SILVA ESTAGIARIO BELO HORIZONTE; GABINETE DE PROCURADOR DE JUSTIÇA - SALA 414 0,00 0,00 0,00 207,00 0,00 0,00 0,00 0,00 0,00 31/08/2021
647 176100 ANTONIO MARCELO CAMPOS CAMPANELLA OFICIAL DO MP BELO HORIZONTE - COMARCA; COORD DE GABINETE DO PGJ 1.198,00 0,00 519,00 0,00 0,00 0,00 0,00 0,00 0,00 31/08/2021
648 1311500 ANTONIO MARZOLA PEREIRA JUNIOR ESTAGIARIO MACHADO; MACHADO-PJ-02PJ 0,00 0,00 0,00 207,00 0,00 0,00 0,00 0,00 0,00 31/08/2021
649 1308500 ANTONIO MAURICIO DA SILVA JUNIOR ESTAGIARIO MONTES CLAROS; COORD REG BACIA RIOS VERDE GRANDE E PARDO 0,00 0,00 0,00 81,00 0,00 0,00 0,00 0,00 0,00 31/08/2021
650 321001 ANTONIO OLINTO VIEIRA MACHADO ANALISTA DO MP BELO HORIZONTE - COMARCA; CENTRAL DE APOIO TECN-SETOR DE MEIO AMBIENTE 1.198,00 0,00 519,00 0,00 0,00 0,00 0,00 0,00 0,00 31/08/2021
651 356200 ANTONIO PAULA DA SILVA OFICIAL DO MP JUIZ DE FORA - COMARCA; JUIZ DE FORA-PJ-20PJ 1.198,00 0,00 519,00 0,00 0,00 0,00 0,00 0,00 0,00 31/08/2021
652 63400 ANTONIO PEDRO DA SILVA MELO PROMOT.ENTRANC.ESPECIAL SÃO JOÃO DEL REI - COMARCA; SAO JOAO DEL REI-PJ-01PJ 1.198,00 0,00 2.604,82 0,00 16.844,55 0,00 0,00 0,00 514,69 31/08/2021
653 119900 ANTONIO RODRIGUES DE PINHO OFICIAL DO MP GUANHÃES - COMARCA; GUANHAES-PJ-01PJ 1.198,00 769,39 519,00 0,00 0,00 0,00 0,00 0,00 0,00 31/08/2021
654 373300 ANTONIO SERGIO ANANIAS OFICIAL DO MP AIURUOCA - COMARCA; AIURUOCA-PJ-UNPJ 1.198,00 0,00 519,00 0,00 0,00 0,00 0,00 0,00 0,00 31/08/2021
655 93500 ANTONIO SERGIO ROCHA DE PAULA PROCURADOR DE JUSTICA BELO HORIZONTE - COMARCA; PROC JUSTICA DIR DIFUSOS E COLETIVOS-GAB003 1.198,00 0,00 3.342,86 0,00 11.820,74 0,00 0,00 0,00 0,00 31/08/2021
656 68700 ANTONIO SERGIO TONET PROCURADOR DE JUSTICA BELO HORIZONTE - COMARCA; GABINETE DE PROCURADOR DE JUSTIÇA - SALA 913 1.198,00 0,00 1.714,84 0,00 29.551,85 0,00 0,00 0,00 541,78 31/08/2021
657 608100 ANTONIO SIDINEY VIEIRA LEMOS ANALISTA DO MP PIRAPORA - COMARCA; PIRAPORA-PJ-01PJ 1.198,00 0,00 519,00 0,00 0,00 0,00 0,00 0,00 0,00 31/08/2021
658 374700 ANTONIO SILVA NETO OFICIAL DO MP BELO HORIZONTE - COMARCA; GAECO - SECRETARIA 1.198,00 0,00 519,00 0,00 0,00 0,00 0,00 0,00 0,00 31/08/2021
659 636700 ANTONIUS VITORIANO FERNANDES OFICIAL DO MP BELO HORIZONTE - COMARCA; ASSESSORIA JURIDICA DO PROCON-MG 1.198,00 0,00 519,00 0,00 0,00 0,00 0,00 0,00 0,00 31/08/2021
660 1188100 ANY KARLA DE SOUZA GOMES SANTOS ESTAGIARIO MEDINA; MEDINA-PJ-UNPJ 0,00 0,00 0,00 207,00 0,00 0,00 0,00 0,00 0,00 31/08/2021
661 413200 ANY PEREIRA SILVA ANALISTA DO MP TRÊS PONTAS - COMARCA; TRES PONTAS-PJ-01PJ 1.198,00 0,00 519,00 0,00 0,00 0,00 0,00 0,00 0,00 31/08/2021
662 151401 APARECIDA DE FATIMA MENDES DE ALMEIDA ASSESSOR JUIZ DE FORA - COMARCA; JUIZ DE FORA-PJ-SECRETARIA 1.198,00 0,00 519,00 0,00 0,00 0,00 0,00 0,00 0,00 31/08/2021
663 329300 APARECIDA MARIA MELO DE ASSIS OFICIAL DO MP BELO HORIZONTE - COMARCA; BH-18PJ DIREITOS HUMANOS-SECRETARIA 1.198,00 0,00 519,00 0,00 0,00 0,00 0,00 0,00 0,00 31/08/2021
664 475300 APARECIDA MARLENE FREIRE ROSA ANALISTA DO MP BELO HORIZONTE - COMARCA; BH-02PJ FAMILIA-SECRETARIA 1.198,00 0,00 519,00 0,00 0,00 0,00 0,00 0,00 0,00 31/08/2021
665 653000 APARECIDA ROSA DE LIMA ASSESSOR BELO HORIZONTE - COMARCA; SECRETARIA PROCESSOS DISCIPES ADMINISTRATIVOS 1.198,00 0,00 519,00 0,00 0,00 0,00 0,00 0,00 0,00 31/08/2021
666 354500 APARECIDA VIEIRA DE CARVALHO OFICIAL DO MP BELO HORIZONTE - COMARCA; DIVISÃO DE EDUCAÇÃO PARA O CONSUMO 1.198,00 0,00 519,00 0,00 0,00 0,00 0,00 0,00 2.299,02 31/08/2021
667 551000 ARACELES BICALHO FELIX ANALISTA DO MP MANHUAÇU - COMARCA; MANHUACU-PJ-02PJ 1.198,00 0,00 519,00 0,00 0,00 0,00 0,00 0,00 0,00 31/08/2021
668 286200 ARACELI MEDRADO DOS SANTOS LIMA OFICIAL DO MP PARACATU - COMARCA; PARACATU-PJ-03PJ 1.198,00 0,00 519,00 0,00 0,00 0,00 0,00 0,00 0,00 31/08/2021
669 112200 ARAQUEM AUGUSTO DE MATOS AGENTE DO MP BELO HORIZONTE - COMARCA; BH-23PJ CIVEL-SEC EXP CIVEIS 1.198,00 0,00 519,00 0,00 0,00 0,00 0,00 0,00 0,00 31/08/2021
670 280600 ARDUINO FRATTEZI ANALISTA DO MP BELO HORIZONTE - COMARCA; CENTRAL DE APOIO TECNICO-SETOR CONTABIL 1.198,00 0,00 519,00 0,00 0,00 0,00 0,00 0,00 0,00 31/08/2021
671 67700 ARESLAN EUSTAQUIO MARTINS PROMOTOR 1A ENTRANCIA CARMO DA MATA - COMARCA; CARMO DA MATA-PJ-UNPJ 1.198,00 0,00 3.017,25 0,00 15.202,21 0,00 0,00 0,00 464,51 31/08/2021
672 1278200 ARIADNA AMANDA DE OLIVEIRA ESTAGIARIO LAVRAS; LAVRAS-PJ-05PJ 0,00 0,00 0,00 198,00 0,00 0,00 0,00 0,00 0,00 31/08/2021
673 1090300 ARIADNE ALENCAR SOUZA ESTAGIARIO GOVERNADOR VALADARES; GOVERNADOR VALADARES-PJ-15PJ 0,00 0,00 0,00 198,00 0,00 0,00 0,00 0,00 0,00 31/08/2021
674 1178300 ARIANA DA SILVA MIRANDA ESTAGIARIO DIVINOPOLIS; DIVINOPOLIS-PJ-12PJ 0,00 0,00 0,00 108,00 0,00 0,00 0,00 0,00 0,00 31/08/2021
675 520201 ARIANE DE FATIMA CARVALHO ALMEIDA RODRIGUES ANALISTA DO MP VESPASIANO - COMARCA; VESPASIANO-PJ-04PJ 1.198,00 2.037,08 519,00 0,00 0,00 0,00 0,00 0,00 0,00 31/08/2021
676 1261600 ARIANE SOUZA MAGALHAES ESTAGIARIO IPATINGA; IPATINGA-PJ-11PJ 0,00 0,00 0,00 207,00 0,00 0,00 0,00 0,00 0,00 31/08/2021
677 1079800 ARICIA FERNANDES DRUMOND SOARES ESTAGIARIO BETIM; BETIM-PJ-04PJ 0,00 0,00 0,00 117,00 0,00 0,00 0,00 0,00 0,00 31/08/2021
678 537600 ARIELA FREIRE MONTIJO ANALISTA DO MP ARCOS - COMARCA; ARCOS-PJ-01PJ 1.198,00 769,39 519,00 0,00 0,00 0,00 0,00 0,00 0,00 31/08/2021
679 1219500 ARIELI MALTA DE OLIVEIRA ESTAGIARIO CATAGUASES; CATAGUASES-PJ-05PJ 0,00 0,00 0,00 126,00 0,00 0,00 0,00 0,00 0,00 31/08/2021
680 182000 ARILSON ALEXANDRE MARTINS MAGALHAES OFICIAL DO MP JOÃO MONLEVADE - COMARCA; JOAO MONLEVADE-PJ-01PJ 1.198,00 1.538,78 519,00 0,00 0,00 0,00 0,00 0,00 0,00 31/08/2021
681 511000 ARISLANE CAROLINA DA SILVA ANALISTA DO MP ESTRELA DO SUL - COMARCA; ESTRELA DO SUL-PJ-UNPJ 1.198,00 1.538,78 519,00 0,00 0,00 0,00 0,00 0,00 0,00 31/08/2021
682 212000 ARLEN DE OLIVEIRA FERNANDES PROMOT.ENTRANC.ESPECIAL BELO HORIZONTE - COMARCA; BH-12PJ JUIZO CRIMINAL-GAB 098PJ 1.198,00 0,00 3.368,91 0,00 5.614,85 0,00 0,00 0,00 514,69 31/08/2021
683 170000 ARLEY BRITES DA SILVA ASSESSOR BELO HORIZONTE - COMARCA; BH-14PJ DEFESA CONSUMIDOR-SECRETARIA 1.198,00 0,00 519,00 0,00 0,00 0,00 0,00 0,00 0,00 31/08/2021
684 120400 ARLINDO CASSIO DA CRUZ OFICIAL DO MP SÃO GONÇALO DO SAPUCAÍ - COMARCA; SAO GONCALO DO SAPUCAI-PJ-01PJ 1.198,00 0,00 519,00 0,00 0,00 330,75 0,00 0,00 0,00 31/08/2021
685 243700 ARLINDO MARCIO LACERDA OFICIAL DO MP CONTAGEM - COMARCA; CONTAGEM-PJ-SECRETARIA 1.198,00 0,00 519,00 0,00 0,00 0,00 1.445,27 0,00 0,00 31/08/2021
686 111900 ARNALDO ALVES SOARES PROCURADOR DE JUSTICA BELO HORIZONTE - COMARCA; GABINETE DE PROCURADOR DE JUSTIÇA - SALA 306 1.198,00 0,00 3.546,22 0,00 5.910,37 0,00 0,00 0,00 541,78 31/08/2021
687 392100 ARNALDO DE ANDRADE OFICIAL DO MP DIVINÓPOLIS - COMARCA; DIVINOPOLIS-PJ-02PJ 1.198,00 769,39 519,00 0,00 0,00 0,00 1.445,27 0,00 0,00 31/08/2021
688 75900 ARNALDO GOMES RIBEIRO PROCURADOR DE JUSTICA BELO HORIZONTE - COMARCA; GABINETE DE PROCURADOR DE JUSTIÇA - SALA 602 1.198,00 0,00 0,00 0,00 17.731,11 0,00 0,00 0,00 541,78 31/08/2021
689 642400 ARTANE INARDE DE SIQUEIRA DAMASCENO ANALISTA DO MP BELO HORIZONTE - COMARCA; SECRETARIA DE ASSUNTOS INTERNACIONAIS 1.198,00 0,00 519,00 0,00 0,00 0,00 0,00 0,00 326,82 31/08/2021
690 1145900 ARTEMIS RIBEIRO DE NORONHA ESTAGIARIO SAO LOURENCO; SAO LOURENCO-PJ-02PJ 0,00 0,00 0,00 198,00 0,00 0,00 0,00 0,00 0,00 31/08/2021
691 1261800 ARTHUR DE LIMA SOSSAI ESTAGIARIO LAVRAS; COORD REG DO MA DA BACIA DO RIO GRANDE 0,00 0,00 0,00 63,00 0,00 0,00 0,00 0,00 0,00 31/08/2021
692 1070400 ARTHUR ESPINDULA VILAS ESTAGIARIO RESPLENDOR; RESPLENDOR-PJ-UNPJ 0,00 0,00 0,00 90,00 0,00 0,00 0,00 0,00 0,00 31/08/2021
693 1276200 ARTHUR GONCALVES SERAFIM ESTAGIARIO PEDRO LEOPOLDO; PEDRO LEOPOLDO-PJ-03PJ 0,00 0,00 0,00 207,00 0,00 0,00 0,00 0,00 0,00 31/08/2021
694 1226900 ARTHUR JANUZZI CAPUTO GONCALVES ESTAGIARIO VICOSA; VICOSA-PJ-01PJ 0,00 0,00 0,00 180,00 0,00 0,00 0,00 0,00 0,00 31/08/2021
695 1085200 ARTHUR JOSE RODRIGUES CARVALHO ESTAGIARIO BELO HORIZONTE; DSMT-LABORATORIO DE MANUTENCAO 0,00 0,00 0,00 108,00 0,00 0,00 0,00 0,00 0,00 31/08/2021
696 1125200 ARTHUR JOSE VIEIRA GOMES SALES ESTAGIARIO BELO HORIZONTE; GABINETE DE PROCURADOR DE JUSTIÇA - SALA 716 0,00 0,00 0,00 99,00 0,00 0,00 0,00 0,00 0,00 31/08/2021
697 1119700 ARTHUR POZAM GARRIDO ESTAGIARIO 0,00 0,00 0,00 9,00 1.086,00 0,00 0,00 0,00 0,00 31/08/2021
698 1306300 ARTUR CALDEIRA VELOSO FILHO ESTAGIARIO MONTES CLAROS; MONTES CLAROS-PJ-04PJ 0,00 0,00 0,00 207,00 0,00 0,00 0,00 0,00 0,00 31/08/2021
699 1181100 ARTUR FONTE BOA TEOFILO ESTAGIARIO BELO HORIZONTE; DIRET DE ESTAGIOS E CONVENIOS ACADEMICOS 0,00 0,00 0,00 54,00 0,00 0,00 0,00 0,00 0,00 31/08/2021
700 221400 ARTUR FORSTER GIOVANNINI PROMOTOR 2A ENTRANCIA TRÊS PONTAS - COMARCA; TRES PONTAS-PJ-01PJ 1.198,00 0,00 3.200,47 0,00 11.735,04 0,00 0,00 0,00 488,96 31/08/2021
701 1205000 ARTUR ROCHA RIBEIRO ESTAGIARIO BELO HORIZONTE; BH-13PJ JUIZO DE TOXICOS-GAB 164PJ 0,00 0,00 0,00 198,00 0,00 0,00 0,00 0,00 0,00 31/08/2021
702 1167800 ARTUR TAVARES PEREIRA SOARES ESTAGIARIO BELO HORIZONTE; BH-09PJ AUDITORIA MILITAR-GAB 161PJ
703 313500 ARY PEDROSA BITTENCOURT PROMOT.ENTRANC.ESPECIAL SANTA LUZIA - COMARCA; SANTA LUZIA-PJ-05PJ 1.198,00 0,00 2.931,39 0,00 28.074,25 0,00 0,00 0,00 514,69 31/08/2021
704 1252100 ARYELLE GONCALVES RODRIGUES SILVA ESTAGIARIO CLAUDIO; CLAUDIO-PJ-UNPJ 0,00 0,00 0,00 198,00 0,00 0,00 0,00 0,00 0,00 31/08/2021
705 1307900 ATENAS CRISTINI DE LACERDA E RODRIGUES ESTAGIARIO VICOSA; VICOSA-PJ-02PJ 0,00 0,00 0,00 162,00 0,00 0,00 0,00 0,00 0,00 31/08/2021
706 315700 ATHAIDE FRANCISCO PERES OLIVEIRA PROMOTOR 2A ENTRANCIA UNAÍ - COMARCA; UNAI-PJ-01PJ 1.198,00 0,00 3.200,47 0,00 0,00 0,00 0,00 0,00 0,00 31/08/2021
707 1181000 AUGUSTO CARMACIO ESTAGIARIO VARGINHA; COORD REG PJ DEF EDUC DIR CRIANCA ADOL SUL 0,00 0,00 0,00 207,00 0,00 0,00 0,00 0,00 0,00 31/08/2021
708 1304600 AUGUSTO JOSE SAD PEREIRA GOMES ESTAGIARIO CATAGUASES; CATAGUASES-PJ-02PJ 0,00 0,00 0,00 207,00 0,00 0,00 0,00 0,00 0,00 31/08/2021
709 702900 AUGUSTO PENA FIGUEIREDO 1O.TENENTE BELO HORIZONTE - COMARCA; NUCLEO DE OPERACOES DE SEGURANCA DE PESSOAL 1.198,00 0,00 0,00 0,00 0,00 0,00 0,00 0,00 0,00 31/08/2021
710 666600 AUGUSTO REIS BALLARDIM PROMOTOR 1A ENTRANCIA ITAMARANDIBA - COMARCA; ITAMARANDIBA-PJ-UNPJ 1.198,00 0,00 1.432,66 0,00 5.067,40 0,00 0,00 0,00 464,51 31/08/2021
711 302100 AUGUSTO ROUSSEAU DE CASTRO ANALISTA DO MP CATAGUASES - COMARCA; CATAGUASES-PJ-02PJ 1.198,00 0,00 519,00 0,00 0,00 0,00 0,00 0,00 0,00 31/08/2021
712 540200 AUREA AVELAR BITTENCOURT OFICIAL DO MP BELO HORIZONTE - COMARCA; GRUPO ESP PROM JUST DEF PROB ADM PAT PUB 1.198,00 0,00 519,00 0,00 0,00 0,00 0,00 0,00 0,00 31/08/2021
713 633501 AUREA GONTIJO BIRCHAL ASSESSOR BELO HORIZONTE - COMARCA; PROCURADOR-GERAL DE JUSTIÇA 1.198,00 0,00 519,00 0,00 0,00 0,00 0,00 0,00 0,00 31/08/2021
714 1286700 AUREA MARIA MILWARD PORTUGAL FLAMINI ESTAGIARIO INHAPIM; INHAPIM-PJ-02PJ 0,00 0,00 0,00 207,00 0,00 0,00 0,00 0,00 0,00 31/08/2021
715 183200 AURELIANO MAGELA DE REZENDE COORDENADOR/OFICIAL BELO HORIZONTE - COMARCA; COORD DE GABINETE DO PGJ 1.198,00 0,00 519,00 0,00 0,00 0,00 0,00 0,00 0,00 31/08/2021
716 106500 AVAIDE MARCOS MARIANO PROMOT.ENTRANC.ESPECIAL UBERLÂNDIA - COMARCA; UBERLANDIA-PJ-13PJ 1.198,00 0,00 1.302,41 0,00 16.844,55 0,00 0,00 0,00 514,69 31/08/2021
717 629400 AYESKA DA COSTA VAL MOURA DABIEN OFICIAL DO MP BELO HORIZONTE - COMARCA; BH-09PJ AUDITORIA MILITAR-SECRETARIA 1.198,00 0,00 519,00 0,00 0,00 0,00 0,00 0,00 0,00 31/08/2021
718 151800 AYLOR LUIZ MEIRELLES JUNIOR PROMOTOR 2A ENTRANCIA SÃO DOMINGOS DO PRATA - COMARCA; SAO DOMINGOS DO PRATA-PJ-UNPJ 1.198,00 0,00 2.387,76 0,00 5.334,11 0,00 0,00 0,00 488,96 31/08/2021
719 707400 AYMEE JOHANSSENN TYNEE CORREIA ALVES ASSESSOR PROMOTOR JUSTICA NOVA LIMA - COMARCA; NOVA LIMA-PJ-01PJ 1.198,00 0,00 519,00 0,00 0,00 0,00 0,00 0,00 0,00 31/08/2021
720 1152400 AYUME PINTO OLIVEIRA ESTAGIARIO AGUAS FORMOSAS; AGUAS FORMOSAS-PJ-UNPJ 0,00 0,00 0,00 162,00 0,00 0,00 0,00 0,00 0,00 31/08/2021
721 1231000 BARBARA ALEXANDRA DA SILVA ESTAGIARIO LIMA DUARTE; LIMA DUARTE-PJ-UNPJ 0,00 0,00 0,00 126,00 0,00 0,00 0,00 0,00 0,00 31/08/2021
722 1261300 BARBARA APARECIDA RODRIGUES DE CASTRO ESTAGIARIO MARTINHO CAMPOS; MARTINHO CAMPOS-PJ-UNPJ 0,00 0,00 0,00 198,00 0,00 0,00 0,00 0,00 0,00 31/08/2021
723 1323400 BARBARA ARANTES NASCIMENTO SOUZA ESTAGIARIO CRUZILIA; CRUZILIA-PJ-UNPJ 0,00 0,00 0,00 81,00 0,00 0,00 0,00 0,00 0,00 31/08/2021
724 1276600 BARBARA CAROLINE SOARES LEONARDO ESTAGIARIO IPATINGA; IPATINGA-PJ-09PJ 0,00 0,00 0,00 207,00 0,00 0,00 0,00 0,00 0,00 31/08/2021
725 701600 BARBARA CHAVES OLIVEIRA ASSESSOR PROCURADOR JUSTICA BELO HORIZONTE - COMARCA; PROC. JUSTICA DIR. DIFUSOS E COLETIVOS-SEC 1.198,00 0,00 519,00 0,00 0,00 0,00 0,00 0,00 0,00 31/08/2021
726 1087100 BARBARA CLAUDINO GUIMARAES DIAS ESTAGIARIO BELO HORIZONTE; BH-09PJ AUDITORIA MILITAR-GAB 002PJ
727 1150900 BARBARA COSTA ALVES ESTAGIARIO MONTES CLAROS; MONTES CLAROS-PJ-SECRETARIA 0,00 0,00 0,00 207,00 0,00 0,00 0,00 0,00 0,00 31/08/2021
728 691900 BARBARA COUTINHO REIS ASSESSOR PROCURADOR JUSTICA BELO HORIZONTE - COMARCA; GABINETE DE PROCURADOR DE JUSTIÇA - SALA 912 1.198,00 0,00 519,00 0,00 0,00 0,00 0,00 0,00 0,00 31/08/2021
729 1292000 BARBARA CRISTINA DOS SANTOS BASTOS ESTAGIARIO SANTA LUZIA; SANTA LUZIA-PJ-07PJ 0,00 0,00 0,00 135,00 0,00 0,00 0,00 0,00 0,00 31/08/2021
730 692200 BARBARA CRISTINA MENDES BANDEIRA DE MELO DUTRA ASSESSOR PROCURADOR JUSTICA BELO HORIZONTE - COMARCA; GABINETE DE PROCURADOR DE JUSTIÇA - SALA 1009 1.198,00 0,00 519,00 0,00 0,00 0,00 0,00 0,00 0,00 31/08/2021
731 1163600 BARBARA CRISTINA SOUZA E SOUSA ESTAGIARIO BELO HORIZONTE; BH-23PJ INFRACIONAL 0,00 0,00 0,00 117,00 0,00 0,00 0,00 0,00 0,00 31/08/2021
732 1134200 BARBARA DANIELA ELIAS JAQUES ESTAGIARIO PRADOS; PRADOS-PJ-UNPJ 0,00 0,00 0,00 207,00 0,00 0,00 0,00 0,00 0,00 31/08/2021
733 1118700 BARBARA DE MELO CARNEIRO ESTAGIARIO 0,00 0,00 0,00 126,00 0,00 0,00 0,00 0,00 0,00 31/08/2021
734 1168500 BARBARA DE OLIVEIRA ALVES ESTAGIARIO MANTENA; MANTENA-PJ-03PJ 0,00 0,00 0,00 207,00 0,00 0,00 0,00 0,00 0,00 31/08/2021
735 1168400 BARBARA DE SOUSA LIMA MELO ESTAGIARIO BELO HORIZONTE; PROMOT ESTADUAL DE DEF PATRI CULT E TUR DE MG 0,00 0,00 0,00 63,00 0,00 0,00 0,00 0,00 0,00 31/08/2021
736 1221200 BARBARA ELIZA TEIXEIRA BARCELOS ESTAGIARIO RAUL SOARES; RAUL SOARES-PJ-UNPJ 0,00 0,00 0,00 90,00 0,00 0,00 0,00 0,00 0,00 31/08/2021
737 1306500 BARBARA EVELYN LIMA CHAVES ESTAGIARIO BUENOPOLIS; BUENOPOLIS-PJ-UNPJ 0,00 0,00 0,00 162,00 0,00 0,00 0,00 0,00 0,00 31/08/2021
738 1166500 BARBARA FERNANDES AMARAL ESTAGIARIO GOVERNADOR VALADARES; GOVERNADOR VALADARES-PJ-04PJ
739 314700 BARBARA FRANCINE PRETTE NUNES PROMOTOR 1A ENTRANCIA PERDIZES - COMARCA; PERDIZES-PJ-UNPJ 1.198,00 0,00 2.257,52 0,00 5.067,40 0,00 0,00 0,00 464,51 31/08/2021
740 1240000 BARBARA FROTA RODRIGUES ESTAGIARIO BELO HORIZONTE; BH-18PJ VIOLENCIA DOMESTICA-GAB 178PJ 0,00 0,00 0,00 207,00 0,00 0,00 0,00 0,00 0,00 31/08/2021
741 1259900 BARBARA GABRIELE DE PAULA ALBERGARIA ESTAGIARIO PONTE NOVA; PONTE NOVA-PJ-01PJ 0,00 0,00 0,00 90,00 0,00 0,00 0,00 0,00 0,00 31/08/2021
742 1219600 BARBARA HELENA FROIS GUIMARAES GIL ESTAGIARIO LAGOA SANTA; LAGOA SANTA-PJ-02PJ 0,00 0,00 0,00 45,00 0,00 0,00 0,00 0,00 0,00 31/08/2021
743 652800 BARBARA JULIANNE MOREIRA CASTRO ASSESSOR PROCURADOR JUSTICA BELO HORIZONTE - COMARCA; ASSESS TECNICO-JUR JUNTO AS PROC. DE JUST 1.198,00 0,00 519,00 0,00 0,00 0,00 0,00 0,00 0,00 31/08/2021
744 707700 BARBARA LOUISE PUFF DE OLIVEIRA ASSESSOR PROMOTOR JUSTICA RIBEIRÃO DAS NEVES - COMARCA; RIBEIRAO DAS NEVES-PJ-02PJ 1.198,00 0,00 519,00 0,00 0,00 0,00 0,00 0,00 0,00 31/08/2021
745 1140000 BARBARA MAIA DE MEDEIROS ESTAGIARIO JUIZ DE FORA; JUIZ DE FORA-PJ-03PJ 0,00 0,00 0,00 63,00 0,00 0,00 0,00 0,00 0,00 31/08/2021
746 1325300 BARBARA MARCONDES DOS REIS ESTAGIARIO ANDRADAS; ANDRADAS-PJ-01PJ 0,00 0,00 0,00 81,00 0,00 0,00 0,00 0,00 0,00 31/08/2021
747 1078500 BARBARA MARIA COSTA PEREIRA ESTAGIARIO MONTES CLAROS; MONTES CLAROS-PJ-12PJ 0,00 0,00 0,00 90,00 0,00 0,00 0,00 0,00 0,00 31/08/2021
748 1074400 BARBARA MARKIAZI LIMA GALVAO ESTAGIARIO DIVINOPOLIS; DIVINOPOLIS-PJ-13PJ 0,00 0,00 0,00 81,00 0,00 0,00 0,00 0,00 0,00 31/08/2021
749 666500 BARBARA MARTINS DE SOUZA PROMOTOR 2A ENTRANCIA MANTENA - COMARCA; MANTENA-PJ-02PJ 1.198,00 0,00 1.281,88 0,00 5.334,11 0,00 0,00 0,00 488,96 31/08/2021
750 1168100 BARBARA MIRANDA MEDRADO DE SOUZA ESTAGIARIO BELO HORIZONTE; BH-18PJ DIREITOS HUMANOS 0,00 0,00 0,00 99,00 0,00 0,00 0,00 0,00 0,00 31/08/2021
751 1270000 BARBARA MOREIRA MARTINS ESTAGIARIO GOVERNADOR VALADARES; COOR REG APOIO COM INC MOB VALE DO RIO DOCE 0,00 0,00 0,00 153,00 0,00 0,00 0,00 0,00 0,00 31/08/2021
752 1206200 BARBARA PORTES BRAGA ESTAGIARIO BELO HORIZONTE; GABINETE DE PROCURADOR DE JUSTIÇA - SALA 602 0,00 0,00 0,00 117,00 0,00 0,00 0,00 0,00 0,00 31/08/2021
753 663600 BARBARA REGINA PEREIRA DE PINHO MAGALHAES ASSESSOR PROMOTOR JUSTICA BELO HORIZONTE - COMARCA; CAO-DH CONT EXT ATIV POLIC E AP COMUNIT 1.198,00 0,00 519,00 0,00 0,00 0,00 0,00 0,00 0,00 31/08/2021
754 685500 BARBARA RODRIGUES DE PAULA PROMOTOR SUBSTITUTO BRUMADINHO - COMARCA; BRUMADINHO-PJ-01PJ 1.198,00 0,00 607,79 0,00 0,00 0,00 0,00 0,00 0,00 31/08/2021
755 692400 BARBARA SOUZA OLIVEIRA ASSESSOR PROMOTOR JUSTICA DIVINO - COMARCA; DIVINO-PJ-UNPJ 1.198,00 0,00 519,00 0,00 0,00 0,00 0,00 0,00 0,00 31/08/2021
756 546500 BARBARA ZACARONI GOULART OFICIAL DO MP BETIM - COMARCA; BETIM-PJ-08PJ 1.198,00 0,00 519,00 0,00 0,00 0,00 0,00 0,00 0,00 31/08/2021
757 316500 BEATRIZ ABILVIA DA SILVA ANALISTA DO MP GOVERNADOR VALADARES - COMARCA; GOVERNADOR VALADARES-PJ-07PJ 1.198,00 0,00 519,00 0,00 0,00 0,00 0,00 0,00 0,00 31/08/2021
758 311800 BEATRIZ APARECIDA SOARES GANEM OFICIAL DO MP ITAMBACURI - COMARCA; ITAMBACURI-PJ-02PJ 1.198,00 0,00 519,00 0,00 0,00 0,00 0,00 0,00 0,00 31/08/2021
759 266800 BEATRIZ AUGUSTA VILACA GOMES DE HUBER OFICIAL DO MP BELO HORIZONTE - COMARCA; BH-05PJ-JUÍZO SUCESSÕES-SEC 1.198,00 0,00 519,00 0,00 0,00 0,00 0,00 0,00 0,00 31/08/2021
760 1122400 BEATRIZ BIANCO HELENA ESTAGIARIO POCOS DE CALDAS; POCOS DE CALDAS-PJ-05PJ 0,00 0,00 0,00 63,00 0,00 0,00 0,00 0,00 0,00 31/08/2021
761 235200 BEATRIZ BOTELHO BATISTA OFICIAL DO MP BELO HORIZONTE - COMARCA; BH-21PJ TUTELA FUNDACOES-SECRETARIA 1.198,00 0,00 519,00 0,00 0,00 0,00 0,00 0,00 0,00 31/08/2021
762 1291800 BEATRIZ CAIXETA BRAGA ESTAGIARIO PRESIDENTE OLEGARIO; PRESIDENTE OLEGARIO-PJ-UNPJ 0,00 0,00 0,00 207,00 0,00 0,00 0,00 0,00 0,00 31/08/2021
763 1272300 BEATRIZ DE ALMEIDA OLIVEIRA ESTAGIARIO JUIZ DE FORA; JUIZ DE FORA-PJ-21PJ 0,00 0,00 0,00 0,00 289,60 0,00 0,00 0,00 0,00 31/08/2021
764 1321300 BEATRIZ FERREIRA GUERRA ESTAGIARIO BELO HORIZONTE; BH-12PJ JUIZO CRIMINAL-GAB 093PJ 0,00 0,00 0,00 135,00 0,00 0,00 0,00 0,00 0,00 31/08/2021
765 1303100 BEATRIZ FONSECA FELICE BRASIL ESTAGIARIO UBERLANDIA; UBERLANDIA-PJ-24PJ 0,00 0,00 0,00 153,00 0,00 0,00 0,00 0,00 0,00 31/08/2021
766 182300 BEATRIZ PAULA SOUSA RAMOS OFICIAL DO MP MARIANA - COMARCA; MARIANA-PJ-01PJ 1.198,00 0,00 519,00 0,00 0,00 0,00 0,00 0,00 0,00 31/08/2021
767 1314100 BEATRIZ PAULINO DE FREITAS ESTAGIARIO CALDAS; CALDAS-PJ-UNPJ 0,00 0,00 0,00 180,00 0,00 0,00 0,00 0,00 0,00 31/08/2021
768 1229800 BEATRIZ SILVA RODRIGUES ALVES ESTAGIARIO UBA; UBA-PJ-05PJ 0,00 0,00 0,00 153,00 0,00 0,00 0,00 0,00 72,30 31/08/2021
769 1079900 BEATRIZ VIEIRA COSTA ESTAGIARIO BELO HORIZONTE; BH-12PJ JUIZO CRIMINAL-GAB 083PJ 0,00 0,00 0,00 81,00 0,00 0,00 0,00 0,00 0,00 31/08/2021
770 507000 BELCHIOR FRANKLIN AMARAL LEITE ANALISTA DO MP BELO HORIZONTE - COMARCA; CENTRAL DE APOIO TECNICO 1.198,00 769,39 519,00 0,00 0,00 0,00 0,00 0,00 0,00 31/08/2021
771 345100 BENITO ELIAS RODRIGUES ANALISTA DO MP BARBACENA - COMARCA; BARBACENA - SECRETARIA DAS PJS CRIMINAIS 1.198,00 0,00 519,00 0,00 0,00 0,00 0,00 0,00 0,00 31/08/2021
772 207300 BENITO VIEIRA DOS SANTOS ANALISTA DO MP BELO HORIZONTE - COMARCA; PROC JUST ESP ACOES COMP ORIG CRIMINAL-ASSESS 1.198,00 0,00 519,00 0,00 0,00 0,00 0,00 0,00 0,00 31/08/2021
773 84700 BERGSON CARDOSO GUIMARAES PROMOT.ENTRANC.ESPECIAL BELO HORIZONTE - COMARCA; BH-21PJ TUTELA FUNDACOES-GAB 136PJ 1.198,00 0,00 3.368,91 0,00 5.614,85 0,00 0,00 0,00 514,69 31/08/2021
774 480200 BERNADETE NUNES DOS SANTOS ANALISTA DO MP GUANHÃES - COMARCA; GUANHAES-PJ-02PJ 1.198,00 0,00 519,00 0,00 0,00 0,00 0,00 0,00 0,00 31/08/2021
775 1240100 BERNARDO DANTAS GUIMARAES ESTAGIARIO POUSO ALEGRE; COORD REG PP SUL MINAS GERAIS POUSO ALEGRE 0,00 0,00 0,00 90,00 0,00 0,00 0,00 0,00 0,00 31/08/2021
776 456700 BERNARDO DE MOURA LIMA PAIVA JEHA PROMOTOR 2A ENTRANCIA CARMO DO PARANAÍBA - COMARCA; CARMO DO PARANAIBA-PJ-01PJ 1.198,00 0,00 2.604,82 0,00 5.334,11 0,00 0,00 0,00 488,96 31/08/2021
777 666800 BERNARDO DUMONT PIRES PROMOT.ENTRANC.ESPECIAL TEÓFILO OTONI - COMARCA; TEOFILO OTONI-PJ-02PJ 1.198,00 0,00 1.324,12 0,00 5.614,85 0,00 0,00 0,00 514,69 31/08/2021
778 1328700 BERNARDO JOSE MAIA BORGES ESTAGIARIO BELO HORIZONTE; GABINETE DE PROCURADOR DE JUSTIÇA - SALA 407 0,00 0,00 0,00 45,00 0,00 0,00 0,00 0,00 0,00 31/08/2021
779 1279900 BERNARDO RESENDE DOS SANTOS ESTAGIARIO BELO HORIZONTE; BH-13PJ JUIZO DE TOXICOS-GAB 137PJ 0,00 0,00 0,00 108,00 0,00 0,00 0,00 0,00 0,00 31/08/2021
780 74300 BERTOLDO MATEUS DE OLIVEIRA FILHO PROCURADOR DE JUSTICA BELO HORIZONTE - COMARCA; GABINETE DE PROCURADOR DE JUSTIÇA - SALA 903 1.198,00 0,00 2.496,29 0,00 0,00 0,00 0,00 0,00 0,00 31/08/2021
781 162900 BETANIA CABRAL DE PINA LARCHER PROMOT.ENTRANC.ESPECIAL CONTAGEM - COMARCA; CONTAGEM-PJ-18PJ 1.198,00 0,00 3.368,91 0,00 5.614,85 0,00 0,00 0,00 514,69 31/08/2021
782 378400 BETANIA FARNESI DE SOUZA E SILVA OFICIAL DO MP CURVELO - COMARCA; CURVELO-PJ-01PJ 1.198,00 0,00 519,00 0,00 0,00 0,00 0,00 0,00 0,00 31/08/2021
783 387400 BETANIA MENDONCA DE ASSIS CARVALHO ANALISTA DO MP JUIZ DE FORA - COMARCA; JUIZ DE FORA-PJ-03PJ 1.198,00 0,00 519,00 0,00 0,00 0,00 0,00 0,00 0,00 31/08/2021
784 1303900 BETHANIA FERREIRA E SILVA ESTAGIARIO UBERLANDIA; UBERLANDIA-PJ-10PJ 0,00 0,00 0,00 126,00 0,00 0,00 0,00 0,00 0,00 31/08/2021
785 1147500 BETHANIA MORENA RODRIGUES GOMES ESTAGIARIO RIBEIRAO DAS NEVES; RIBEIRAO DAS NEVES-PJ-10PJ 0,00 0,00 0,00 45,00 0,00 0,00 0,00 0,00 0,00 31/08/2021
786 1315200 BIANCA ALMEIDA GUIMARAES ESTAGIARIO BELO HORIZONTE; BH-23PJ INFRACIONAL-GAB 131PJ 0,00 0,00 0,00 27,00 0,00 0,00 0,00 0,00 0,00 31/08/2021
787 1212200 BIANCA APARECIDA PONGELUPPE DE MELO FRANCA ESTAGIARIO BELO HORIZONTE; GABINETE DE PROCURADOR DE JUSTIÇA - SALA 906 0,00 0,00 0,00 27,00 0,00 0,00 0,00 0,00 0,00 31/08/2021
788 1245400 BIANCA ARRUDA MOREIRA ESTAGIARIO MUTUM; MUTUM-PJ-UNPJ 0,00 0,00 0,00 198,00 0,00 0,00 0,00 0,00 0,00 31/08/2021
789 1192800 BIANCA CRISTINA PORTES ESTAGIARIO BARBACENA; BARBACENA - SECRETARIA DAS PJS CRIMINAIS 0,00 0,00 0,00 63,00 0,00 0,00 0,00 0,00 0,00 31/08/2021
790 1108000 BIANCA DE CASTRO RAMOS ESTAGIARIO BETIM; BETIM-PJ-12PJ 0,00 0,00 0,00 81,00 0,00 0,00 0,00 0,00 0,00 31/08/2021
791 1278400 BIANCA DE SOUZA VILELA ESTAGIARIO BELO HORIZONTE; BH-13PJ JUIZO DE TOXICOS-GAB 079PJ 0,00 0,00 0,00 198,00 0,00 0,00 0,00 0,00 0,00 31/08/2021
792 1235700 BIANCA DOS REIS SILVA ESTAGIARIO CARMO DO RIO CLARO; CARMO DO RIO CLARO-PJ-UNPJ 0,00 0,00 0,00 135,00 0,00 0,00 0,00 0,00 0,00 31/08/2021
793 1115600 BIANCA EDUARDA RIBEIRO COSTA ESTAGIARIO UBERABA; UBERABA-PJ-05PJ
794 1293800 BIANCA GEORJUTTI VIEIRA ESTAGIARIO UBERLANDIA; UBERLANDIA-PJ-06PJ 0,00 0,00 0,00 189,00 0,00 0,00 0,00 0,00 0,00 31/08/2021
795 1278100 BIANCA LIDSEY CARVALHO PINTO ESTAGIARIO GUANHAES; GUANHAES-PJ-01PJ 0,00 0,00 0,00 117,00 0,00 0,00 0,00 0,00 0,00 31/08/2021
796 450300 BIANCA OLIVEIRA DE ALBUQUERQUE ANALISTA DO MP BELO HORIZONTE - COMARCA; BH-10PJ EXECUÇÃO PENAL-SECRETARIA 1.198,00 1.205,38 519,00 0,00 0,00 0,00 0,00 0,00 0,00 31/08/2021
797 535400 BIANCA SALOTO ROSSI ANALISTA DO MP SANTOS DUMONT - COMARCA; SANTOS DUMONT-PJ-01PJ 1.198,00 769,39 519,00 0,00 0,00 0,00 0,00 0,00 0,00 31/08/2021
798 120800 BRAS MARQUES DE SOUZA ANALISTA DO MP BELO HORIZONTE - COMARCA; SUPERINTENDENCIA DE GESTAO ADMINISTRATIVA 1.198,00 0,00 519,00 0,00 0,00 0,00 0,00 0,00 0,00 31/08/2021
799 1179500 BRENDA ALCANTARA RAMALHO ESTAGIARIO BETIM; BETIM-PJ-03PJ 0,00 0,00 0,00 207,00 0,00 0,00 0,00 0,00 0,00 31/08/2021
800 1159100 BRENDA CUSTODIO DE ABREU ESTAGIARIO CONCEICAO DAS ALAGOAS; CONCEICAO DAS ALAGOAS-PJ-01PJ 0,00 0,00 0,00 153,00 0,00 0,00 0,00 0,00 0,00 31/08/2021
801 1316700 BRENDA FAULKNER ASSIS DA SILVA ESTAGIARIO BELO HORIZONTE; BH-15PJ M AMB PAT HIST CULT-GAB 114PJ 0,00 0,00 0,00 81,00 0,00 0,00 0,00 0,00 0,00 31/08/2021
802 1204400 BRENDA GABRIELA ROCHA CRUZ ESTAGIARIO MANGA; MANGA-PJ-02PJ 0,00 0,00 0,00 153,00 0,00 0,00 0,00 0,00 0,00 31/08/2021
803 1127000 BRENDA LORENA DE ALMEIDA ESTAGIARIO CONTAGEM; CONTAGEM-PJ-09PJ 0,00 0,00 0,00 81,00 0,00 0,00 0,00 0,00 0,00 31/08/2021
804 1189700 BRENDA LORRANA FRANCO ESTAGIARIO UBERLANDIA; UBERLANDIA-PJ-20PJ 0,00 0,00 0,00 72,00 0,00 0,00 0,00 0,00 0,00 31/08/2021
805 1034500 BRENDA LUIZA SILVA FERREIRA ESTAGIARIO BELO HORIZONTE; PROC. JUSTICA DIR. DIFUSOS E COLETIVOS
806 1250300 BRENDA MOREIRA SANTOS ESTAGIARIO BELO HORIZONTE; BH-02PJ FAMILIA
807 1179600 BRENDA SILVA ROCHA ESTAGIARIO BELO HORIZONTE; PROC. JUSTICA DE HABEAS CORPUS 0,00 0,00 0,00 108,00 0,00 0,00 0,00 0,00 0,00 31/08/2021
808 1310300 BRENDA STEFANE PIRES DOS SANTOS ESTAGIARIO TRES MARIAS; TRES MARIAS-PJ-UNPJ 0,00 0,00 0,00 207,00 0,00 0,00 0,00 0,00 0,00 31/08/2021
809 1266800 BRENDA TAVARES BRITO ESTAGIARIO PASSOS; PASSOS-PJ-03PJ 0,00 0,00 0,00 9,00 0,00 0,00 0,00 0,00 0,00 31/08/2021
810 1294100 BRENDA VITORIA SANTOS DE ALMEIDA ESTAGIARIO NOVA LIMA; NOVA LIMA-PJ-02PJ 0,00 0,00 0,00 207,00 0,00 0,00 0,00 0,00 0,00 31/08/2021
811 1242000 BRENDHA GOMES RUBERTO LIMA ESTAGIARIO MANTENA; MANTENA-PJ-02PJ 0,00 0,00 0,00 189,00 0,00 0,00 0,00 0,00 0,00 31/08/2021
812 1217200 BRENER MURILO DE BRAGANCA ESTAGIARIO MANHUACU; MANHUACU-PJ-01PJ 0,00 0,00 0,00 198,00 0,00 0,00 0,00 0,00 0,00 31/08/2021
813 710500 BRENNO VINICIUS MAGESTE ROSA ASSESSOR PROMOTOR JUSTICA MANHUAÇU - COMARCA; MANHUACU-PJ-02PJ 1.198,00 0,00 519,00 0,00 0,00 0,00 0,00 0,00 0,00 31/08/2021
814 372400 BRENO COSTA DA SILVA COELHO PROMOTOR 2A ENTRANCIA VISCONDE DO RIO BRANCO - COMARCA; GAECO REGIONAL ZONA MATA-VISCONDE RIO BRANCO 1.198,00 0,00 2.062,15 0,00 5.334,11 0,00 0,00 0,00 488,96 31/08/2021
815 460900 BRENO CRISTIANO DE SOUZA REZENDE ANALISTA DO MP ITAÚNA - COMARCA; ITAUNA-PJ-02PJ 1.198,00 0,00 519,00 0,00 0,00 0,00 0,00 0,00 0,00 31/08/2021
816 96700 BRENO LINHARES LINTZ PROMOT.ENTRANC.ESPECIAL UBERLÂNDIA - COMARCA; UBERLANDIA-PJ-10PJ 1.198,00 0,00 0,00 0,00 16.844,55 0,00 0,00 0,00 514,69 31/08/2021
817 439500 BRENO MAX DE JESUS SILVEIRA PROMOTOR 2A ENTRANCIA CARANGOLA - COMARCA; CARANGOLA-PJ-02PJ 1.198,00 0,00 911,69 0,00 16.002,33 0,00 0,00 0,00 488,96 31/08/2021
818 439300 BRENO NASCIMENTO PACHECO PROMOTOR 2A ENTRANCIA PATROCÍNIO - COMARCA; PATROCINIO-PJ-01PJ 1.198,00 0,00 2.930,43 0,00 5.334,11 0,00 0,00 0,00 488,96 31/08/2021
819 239000 BRENO VENANCIO ROMANINI OFICIAL DO MP BELO HORIZONTE - COMARCA; BH-20PJ ORD ECON TRIBUTARIA-SECRETARIA 1.198,00 0,00 519,00 0,00 0,00 0,00 0,00 0,00 0,00 31/08/2021
820 1106200 BRIAN ATHER MARTINS ESTAGIARIO BARBACENA; BARBACENA-PJ-09PJ 0,00 0,00 0,00 171,00 0,00 0,00 0,00 0,00 0,00 31/08/2021
821 202201 BRIGITTE AMARALINA DE CALDAS LIMA OFICIAL DO MP NANUQUE - COMARCA; NANUQUE-PJ-03PJ 1.198,00 0,00 519,00 0,00 0,00 0,00 0,00 0,00 0,00 31/08/2021
822 1092100 BRUNA ALMEIDA LOPES ESTAGIARIO JUIZ DE FORA; JUIZ DE FORA-PJ-07PJ 0,00 0,00 0,00 207,00 0,00 0,00 0,00 0,00 0,00 31/08/2021
823 1256300 BRUNA ALVES ARAUJO ESTAGIARIO CARMO DO PARANAIBA; CARMO DO PARANAIBA-PJ-02PJ
824 1235800 BRUNA ALVES NEVES ESTAGIARIO SETE LAGOAS; SETE LAGOAS-PJ-08PJ 0,00 0,00 0,00 207,00 0,00 0,00 0,00 0,00 0,00 31/08/2021
825 1030300 BRUNA ARRUDA PRATES ESTAGIARIO BELO HORIZONTE; GABINETE DE PROCURADOR DE JUSTIÇA - SALA 713 0,00 0,00 0,00 45,00 771,20 0,00 0,00 0,00 0,00 31/08/2021
826 659300 BRUNA BODONI FACCIOLI PROMOTOR 2A ENTRANCIA NANUQUE - COMARCA; NANUQUE-PJ-01PJ 1.198,00 0,00 2.508,60 0,00 5.334,11 0,00 0,00 0,00 488,96 31/08/2021
827 1216100 BRUNA CASTANHEIRA GALINARI ESTAGIARIO BELO HORIZONTE; DIRET DE ESTAGIOS E CONVENIOS ACADEMICOS 0,00 0,00 0,00 90,00 0,00 0,00 0,00 0,00 0,00 31/08/2021
828 1153500 BRUNA DA CUNHA SILVA ESTAGIARIO BARBACENA; BARBACENA-PJ-04PJ
829 1082600 BRUNA DE CASTRO VIEIRA ESTAGIARIO GOVERNADOR VALADARES; GOVERNADOR VALADARES-PJ-07PJ 0,00 0,00 0,00 63,00 0,00 0,00 0,00 0,00 0,00 31/08/2021
830 1249900 BRUNA DE OLIVEIRA TEIXEIRA ESTAGIARIO 0,00 0,00 0,00 180,00 0,00 0,00 0,00 0,00 0,00 31/08/2021
831 1160000 BRUNA DEMETRIO PEREIRA ESTAGIARIO BELO HORIZONTE; BH-18PJ VIOLENCIA DOMESTICA 0,00 0,00 0,00 207,00 0,00 0,00 0,00 0,00 0,00 31/08/2021
832 1283600 BRUNA EDUARDA GUIMARAES OLIVEIRA ESTAGIARIO BELO HORIZONTE; PROC JUST RECURSOS ESP E EXTRAORD CRIMINAIS 0,00 0,00 0,00 27,00 0,00 0,00 0,00 0,00 0,00 31/08/2021
833 1155000 BRUNA EVANGELISTA FERREIRA ESTAGIARIO AGUAS FORMOSAS; AGUAS FORMOSAS-PJ-UNPJ 0,00 0,00 0,00 135,00 0,00 0,00 0,00 0,00 0,00 31/08/2021
834 1231100 BRUNA GOMES MULLER ESTAGIARIO ITAJUBA; ITAJUBA-PJ-02PJ 0,00 0,00 0,00 207,00 0,00 0,00 0,00 0,00 0,00 31/08/2021
835 642300 BRUNA IZABELITA DE FATIMA OLIVEIRA COSTA OFICIAL DO MP BELO HORIZONTE - COMARCA; BH-02PJ FAMILIA-SECRETARIA 1.198,00 0,00 519,00 0,00 0,00 0,00 0,00 0,00 0,00 31/08/2021
836 513600 BRUNA KARLA MARTINS CARVALHO ANALISTA DO MP GOVERNADOR VALADARES - COMARCA; GOVERNADOR VALADARES-PJ-14PJ 1.198,00 0,00 519,00 0,00 0,00 0,00 0,00 0,00 0,00 31/08/2021
837 1318500 BRUNA MAIARA DE JESUS BARBOSA ESTAGIARIO UBA; UBA-PJ-06PJ 0,00 0,00 0,00 108,00 0,00 0,00 0,00 0,00 0,00 31/08/2021
838 415100 BRUNA MARIA SOARES OLIVEIRA COSTA RAMOS ANALISTA DO MP UBÁ - COMARCA; COORD REG BACIA DO RIO PARAIBA DO SUL 1.198,00 0,00 519,00 0,00 0,00 0,00 0,00 0,00 0,00 31/08/2021
839 692900 BRUNA MENDES COELHO ASSESSOR PROCURADOR JUSTICA BELO HORIZONTE - COMARCA; GABINETE DE PROCURADOR DE JUSTIÇA - SALA 801 1.198,00 0,00 519,00 0,00 0,00 0,00 0,00 0,00 0,00 31/08/2021
840 470000 BRUNA MORAES ANALISTA DO MP TOMBOS - COMARCA; TOMBOS-PJ-UNPJ 1.198,00 0,00 519,00 0,00 0,00 0,00 0,00 0,00 0,00 31/08/2021
841 1199500 BRUNA NATHANY OLIVEIRA MELO ESTAGIARIO UNAI; UNAI-PJ-01PJ 0,00 0,00 0,00 117,00 0,00 0,00 0,00 0,00 0,00 31/08/2021
842 614700 BRUNA NATTANY DE LIMA OFICIAL DO MP MANTENA - COMARCA; MANTENA-PJ-01PJ 1.198,00 0,00 519,00 0,00 0,00 0,00 0,00 0,00 0,00 31/08/2021
843 1084400 BRUNA PAULA AMARAL CEOLIN ESTAGIARIO BELO HORIZONTE; BH-12PJ JUIZO CRIMINAL-GAB 096PJ 0,00 0,00 0,00 45,00 0,00 0,00 0,00 0,00 0,00 31/08/2021
844 1150200 BRUNA PAULA RODRIGUES VASCONCELOS ESTAGIARIO UBERLANDIA; COORD REG PP TRIANGULO MINEIRO UBERLANDIA 0,00 0,00 0,00 171,00 0,00 0,00 0,00 0,00 0,00 31/08/2021
845 1134300 BRUNA QUEIROZ THOMAZ ESTAGIARIO TEOFILO OTONI; TEOFILO OTONI-PJ-09PJ
846 693300 BRUNA RAMONY ROCHA DA CRUZ ASSESSOR PROMOTOR JUSTICA JAIBA - COMARCA; JAIBA-PJ-UNPJ 1.198,00 0,00 519,00 0,00 0,00 0,00 0,00 0,00 0,00 31/08/2021
847 631800 BRUNA RAPOSO JORGE OFICIAL DO MP JUIZ DE FORA - COMARCA; JUIZ DE FORA-PJ-06PJ 1.198,00 0,00 519,00 0,00 0,00 0,00 0,00 0,00 0,00 31/08/2021
848 1083600 BRUNA RIOS CELESTINO ESTAGIARIO CONSELHEIRO LAFAIETE; CONSELHEIRO LAFAIETE-PJ-07PJ
849 1180300 BRUNA RODRIGUES COBO ESTAGIARIO RIBEIRAO DAS NEVES; RIBEIRAO DAS NEVES-PJ-12PJ 0,00 0,00 0,00 9,00 0,00 0,00 0,00 0,00 0,00 31/08/2021
850 1239400 BRUNA RODRIGUES TORRES ESTAGIARIO BETIM; BETIM-PJ-04PJ 0,00 0,00 0,00 135,00 0,00 0,00 0,00 0,00 0,00 31/08/2021
851 707800 BRUNA ROMIE WERDINE ASSESSOR PROMOTOR JUSTICA IBIRITÉ - COMARCA; IBIRITE-PJ-06PJ 1.198,00 0,00 519,00 0,00 0,00 0,00 0,00 0,00 0,00 31/08/2021
852 697400 BRUNA SILVA SANTOS ASSESSOR PROMOTOR JUSTICA TIMÓTEO - COMARCA; TIMOTEO-PJ-04PJ 1.198,00 0,00 519,00 0,00 0,00 0,00 0,00 0,00 0,00 31/08/2021
853 1235100 BRUNA SOARES GONTIJO ESTAGIARIO BOM DESPACHO; BOM DESPACHO-PJ-01PJ 0,00 0,00 0,00 171,00 0,00 0,00 0,00 0,00 0,00 31/08/2021
854 1174400 BRUNA STEHLING SCHIRMER ESTAGIARIO BELO HORIZONTE; PROC. JUSTICA DE HABEAS CORPUS
855 1191900 BRUNA STUHLER PINHEIRO ESTAGIARIO UBERLANDIA; UBERLANDIA-PJ-18PJ 0,00 0,00 0,00 81,00 0,00 0,00 0,00 0,00 0,00 31/08/2021
856 699300 BRUNA URSINE TIMO ASSESSOR PROCURADOR JUSTICA BELO HORIZONTE - COMARCA; PROC JUST ESP ACOES COMP ORIG CRIMINAL-ASSESS 1.198,00 0,00 519,00 0,00 0,00 0,00 0,00 0,00 0,00 31/08/2021
857 1283300 BRUNNA GABRIELA GONCALVES DE OLIVEIRA FERREIRA ESTAGIARIO BELO HORIZONTE; COORD ESTADUAL DE DEFESA DOS ANIMAIS 0,00 0,00 0,00 81,00 0,00 0,00 0,00 0,00 0,00 31/08/2021
858 225100 BRUNO ALEXANDER VIEIRA SOARES PROMOT.ENTRANC.ESPECIAL BELO HORIZONTE - COMARCA; BH-17PJ PATRIMONIO PUBLICO-GAB 004PJ 1.198,00 0,00 2.214,10 0,00 5.614,85 0,00 0,00 0,00 514,69 31/08/2021
859 1308900 BRUNO ALVES RODRIGUES ESTAGIARIO ITABIRA; ITABIRA-PJ-06PJ 0,00 0,00 0,00 198,00 0,00 0,00 0,00 0,00 0,00 31/08/2021
860 463800 BRUNO ALVES TEIXEIRA ANALISTA DO MP UBERLÂNDIA - COMARCA; UBERLANDIA-PJ-04PJ 1.198,00 0,00 519,00 0,00 0,00 0,00 0,00 0,00 0,00 31/08/2021
861 538500 BRUNO AUGUSTO DA SILVA OFICIAL DO MP SANTA LUZIA - COMARCA; SANTA LUZIA-PJ-03PJ 1.198,00 0,00 519,00 0,00 0,00 0,00 0,00 0,00 0,00 31/08/2021
862 318200 BRUNO BARROS DE SOUZA OFICIAL DO MP UBÁ - COMARCA; UBA-PJ-04PJ 1.198,00 0,00 519,00 0,00 0,00 0,00 0,00 0,00 0,00 31/08/2021
863 459600 BRUNO CASTELAR LUGAO MENDES OFICIAL DO MP BELO HORIZONTE - COMARCA; PROC JUST ATUACAO TRIBUNAIS SUPERIORES 1.198,00 0,00 519,00 0,00 0,00 0,00 0,00 0,00 0,00 31/08/2021
864 361300 BRUNO CESAR MEDEIROS GIARDINI PROMOT.ENTRANC.ESPECIAL IPATINGA - COMARCA; IPATINGA-PJ-06PJ 1.198,00 0,00 2.893,24 0,00 5.614,85 0,00 0,00 0,00 514,69 31/08/2021
865 427400 BRUNO CESAR RIBEIRO DE PAIVA ANALISTA DO MP BELO HORIZONTE - COMARCA; ASSESS JUR DO CONS SUPERIOR DO MINISTERIO PUB 1.198,00 0,00 519,00 0,00 0,00 0,00 0,00 0,00 0,00 31/08/2021
866 380900 BRUNO CIRILO ANTUNES OFICIAL DO MP VARGINHA - COMARCA; VARGINHA-PJ-05PJ 1.198,00 0,00 519,00 0,00 0,00 0,00 0,00 0,00 0,00 31/08/2021
867 1242700 BRUNO DA SILVA LESSA ESTAGIARIO VICOSA; VICOSA-PJ-01PJ 0,00 0,00 0,00 189,00 0,00 0,00 0,00 0,00 0,00 31/08/2021
868 666700 BRUNO DE CARVALHO VASCONCELOS PROMOTOR SUBSTITUTO CORINTO - COMARCA; CORINTO-PJ-UNPJ 1.198,00 0,00 1.432,66 0,00 9.121,32 0,00 0,00 0,00 464,51 31/08/2021
869 329000 BRUNO DE MELO REIS ANALISTA DO MP PATROCÍNIO - COMARCA; PATROCINIO-PJ-02PJ 1.198,00 1.538,78 519,00 0,00 0,00 0,00 0,00 0,00 0,00 31/08/2021
870 1197800 BRUNO DURAES DE FARIAS ESTAGIARIO MONTES CLAROS; MONTES CLAROS-PJ-07PJ 0,00 0,00 0,00 207,00 0,00 0,00 0,00 0,00 0,00 31/08/2021
871 1301800 BRUNO EDUARDO VIEIRA SANTOS ESTAGIARIO 0,00 0,00 0,00 99,00 0,00 0,00 0,00 0,00 0,00 31/08/2021
872 339700 BRUNO FERNANDO TORRES LANA PROMOT.ENTRANC.ESPECIAL UBÁ - COMARCA; UBA-PJ-05PJ 1.198,00 0,00 868,27 0,00 5.614,85 0,00 0,00 0,00 514,69 31/08/2021
873 1151500 BRUNO FERREIRA BRAS OLIVEIRA ESTAGIARIO UBERLANDIA; UBERLANDIA-PJ-08PJ 0,00 0,00 0,00 126,00 0,00 0,00 0,00 0,00 0,00 31/08/2021
874 1248000 BRUNO GARCIA RIBEIRO ESTAGIARIO ITAJUBA; ITAJUBA-PJ-05PJ 0,00 0,00 0,00 54,00 0,00 0,00 0,00 0,00 0,00 31/08/2021
875 697800 BRUNO GAZZOLA BEZERRA FALCAO ASSESSOR PROCURADOR JUSTICA BELO HORIZONTE - COMARCA; PROCURADOR-GERAL ADJUNTO JURIDICO- GABINETE 1.198,00 0,00 519,00 0,00 0,00 0,00 0,00 0,00 0,00 31/08/2021
876 360300 BRUNO GUERRA DE OLIVEIRA PROMOT.ENTRANC.ESPECIAL UBÁ - COMARCA; UBA-PJ-06PJ 1.198,00 0,00 2.772,84 0,00 5.614,85 0,00 0,00 0,00 514,69 31/08/2021
877 1066300 BRUNO HENRIQUE ALVES DE LIMA ESTAGIARIO SETE LAGOAS; SETE LAGOAS-PJ-03PJ 0,00 0,00 0,00 207,00 0,00 0,00 0,00 0,00 0,00 31/08/2021
878 378300 BRUNO HERDY LOPES DE OLIVEIRA ANALISTA DO MP GOVERNADOR VALADARES - COMARCA; GOVERNADOR VALADARES-PJ-03PJ 1.198,00 0,00 519,00 0,00 0,00 0,00 0,00 0,00 0,00 31/08/2021
879 1259500 BRUNO IZARIAS LIMA TEIXEIRA ESTAGIARIO BELO HORIZONTE; GABINETE DE PROCURADOR DE JUSTIÇA - SALA 602 0,00 0,00 0,00 144,00 0,00 0,00 0,00 0,00 0,00 31/08/2021
880 529700 BRUNO JOSE BUENO DIAS OFICIAL DO MP SÃO SEBASTIÃO DO PARAÍSO - COMARCA; SAO SEBASTIAO DO PARAISO-PJ-02PJ 1.198,00 0,00 519,00 0,00 0,00 0,00 0,00 0,00 0,00 31/08/2021
881 691600 BRUNO JOSE RIBEIRO ASSESSOR PROMOTOR JUSTICA CLÁUDIO - COMARCA; CLAUDIO-PJ-UNPJ 1.198,00 0,00 519,00 0,00 0,00 0,00 0,00 0,00 0,00 31/08/2021
882 350100 BRUNO LAUD SERRANO DOS REIS OFICIAL DO MP UBÁ - COMARCA; UBA-PJ-02PJ 1.198,00 0,00 519,00 0,00 0,00 0,00 0,00 0,00 0,00 31/08/2021
883 530600 BRUNO MARQUES DE ALMEIDA ROSSI PROMOTOR 1A ENTRANCIA PRESIDENTE OLEGÁRIO - COMARCA; PRESIDENTE OLEGARIO-PJ-UNPJ 1.198,00 0,00 2.452,88 0,00 5.067,40 0,00 0,00 0,00 464,51 31/08/2021
884 373800 BRUNO MARTINO DE ALBUQUERQUE ANALISTA DO MP PONTE NOVA - COMARCA; PONTE NOVA-PJ-03PJ 1.198,00 0,00 519,00 0,00 0,00 0,00 0,00 0,00 0,00 31/08/2021
885 1163200 BRUNO MORAIS MARQUES ESTAGIARIO CARMO DO PARANAIBA; CARMO DO PARANAIBA-PJ-01PJ
886 470400 BRUNO NOVAIS CABRAL ANALISTA DO MP MUTUM - COMARCA; MUTUM-PJ-UNPJ 1.198,00 769,39 519,00 0,00 0,00 0,00 0,00 0,00 0,00 31/08/2021
887 457300 BRUNO OLIVEIRA MULLER PROMOT.ENTRANC.ESPECIAL ITABIRA - COMARCA; ITABIRA-PJ-04PJ 1.198,00 0,00 2.062,15 0,00 5.614,85 0,00 0,00 0,00 514,69 31/08/2021
888 648600 BRUNO RIBEIRO E MELO ASSESSOR BELO HORIZONTE - COMARCA; DIR RELACOES INSTITUCIONAIS 1.198,00 0,00 519,00 0,00 0,00 0,00 0,00 0,00 0,00 31/08/2021
889 369200 BRUNO ROBERTO DIAS DE OLIVEIRA OFICIAL DO MP BELO HORIZONTE - COMARCA; BH-22PJ PES COM DEF E IDOSOS-SECRETARIA 1.198,00 0,00 519,00 0,00 0,00 0,00 0,00 0,00 0,00 31/08/2021
890 547700 BRUNO ROBERTO SOUZA GONCALVES ANALISTA DO MP PARACATU - COMARCA; PARACATU-PJ-03PJ 1.198,00 1.538,78 519,00 0,00 0,00 0,00 0,00 0,00 0,00 31/08/2021
891 546100 BRUNO SA VIEIRA ANALISTA DO MP BARBACENA - COMARCA; BARBACENA-PJ-SECRETARIA 1.198,00 0,00 519,00 0,00 4.571,23 0,00 0,00 0,00 419,03 31/08/2021
892 438200 BRUNO SALES PEREIRA ANALISTA DO MP BELO HORIZONTE - COMARCA; CENTRAL DE APOIO TECNICO-SETOR CONTABIL 1.198,00 769,39 519,00 0,00 0,00 0,00 0,00 0,00 0,00 31/08/2021
893 537400 BRUNO SANT'ANA CESAR ANALISTA DO MP CONTAGEM - COMARCA; CONTAGEM-PJ-21PJ 1.198,00 0,00 519,00 0,00 0,00 0,00 0,00 0,00 0,00 31/08/2021
894 343500 BRUNO SCHIAVO CRUZ PROMOT.ENTRANC.ESPECIAL IPATINGA - COMARCA; GAECO REGIONAL DE IPATINGA 1.198,00 0,00 2.930,43 0,00 12.352,67 0,00 0,00 0,00 514,69 31/08/2021
895 1155100 BRUNO SOARES FONSECA ESTAGIARIO MONTES CLAROS; MONTES CLAROS-PJ-01PJ 0,00 0,00 0,00 207,00 0,00 0,00 0,00 0,00 0,00 31/08/2021
896 684000 BRUNO TORRANO AMORIM DE ALMEIDA PROMOTOR 2A ENTRANCIA SÃO FRANCISCO - COMARCA; SAO FRANCISCO-PJ-02PJ 1.198,00 0,00 1.599,48 0,00 0,00 0,00 0,00 0,00 0,00 31/08/2021
897 679000 BRUNO WILLIANS PAULINO DE MELLO ASSESSOR PROCURADOR JUSTICA BELO HORIZONTE - COMARCA; GABINETE DE PROCURADOR DE JUSTIÇA - SALA 1006 1.198,00 0,00 519,00 0,00 0,00 0,00 0,00 0,00 0,00 31/08/2021
898 655800 CAEL KALINOWSKI SOUZA MATTA INVESTIGADOR DE POLICIA 2 BELO HORIZONTE - COMARCA; NUCLEO DE INFORMACOES E INTELIGENCIA 1.198,00 0,00 0,00 0,00 0,00 0,00 0,00 0,00 0,00 31/08/2021
899 1135500 CAIO ANTONIO DO AMARAL BRAGA ALVES ESTAGIARIO ESPERA FELIZ; ESPERA FELIZ-PJ-UNPJ 0,00 0,00 0,00 207,00 0,00 0,00 0,00 0,00 0,00 31/08/2021
900 1051200 CAIO BASSOLI ESTAGIARIO JUIZ DE FORA; JUIZ DE FORA-PJ-20PJ 0,00 0,00 0,00 99,00 0,00 0,00 0,00 0,00 0,00 31/08/2021
901 666900 CAIO CESAR ESPIRITO SANTO DO NASCIMENTO PROMOTOR 2A ENTRANCIA SALINAS - COMARCA; SALINAS-PJ-01PJ 1.198,00 0,00 1.324,12 0,00 6.400,93 0,00 0,00 0,00 488,96 31/08/2021
902 685600 CAIO CESAR FERREIRA PROMOTOR SUBSTITUTO NOVO CRUZEIRO - COMARCA; NOVO CRUZEIRO-PJ-UNPJ 1.198,00 0,00 0,00 0,00 0,00 0,00 0,00 0,00 0,00 31/08/2021
903 1244600 CAIO CRIVELENTI RAFFAINI CASTRO ESTAGIARIO UBERLANDIA; UBERLANDIA-PJ-11PJ 0,00 0,00 0,00 207,00 0,00 0,00 0,00 0,00 0,00 31/08/2021
904 405800 CAIO FERNANDO RODRIGUES DE OLIVEIRA ANALISTA DO MP BELO HORIZONTE - COMARCA; GABINETE DE PROCURADOR DE JUSTIÇA - SALA 805 1.198,00 0,00 519,00 0,00 0,00 0,00 0,00 0,00 0,00 31/08/2021
905 1315500 CAIO GIOVANNI DE FREITAS MATOS ESTAGIARIO SAO FRANCISCO; SAO FRANCISCO-PJ-01PJ 0,00 0,00 0,00 171,00 0,00 0,00 0,00 0,00 0,00 31/08/2021
906 530000 CAIO GUEDES DE OLIVEIRA ANALISTA DO MP DIAMANTINA - COMARCA; DIAMANTINA-PJ-02PJ 1.198,00 769,39 519,00 0,00 0,00 0,00 0,00 0,00 0,00 31/08/2021
907 1118400 CAIO HENRIQUE DE FREITAS MELO ESTAGIARIO UBERABA; UBERABA-PJ-02PJ 0,00 0,00 0,00 90,00 0,00 0,00 0,00 0,00 0,00 31/08/2021
908 1235900 CAIO MARCELO CARDOSO COSTA ESTAGIARIO CORONEL FABRICIANO; CORONEL FABRICIANO-PJ-04PJ 0,00 0,00 0,00 135,00 0,00 0,00 0,00 0,00 0,00 31/08/2021
909 1166800 CAIO MARINI LIMA COSTA ESTAGIARIO BELO HORIZONTE; BH-08PJ JUIZADO ESPECIAL-GAB 168PJ 0,00 0,00 0,00 90,00 0,00 0,00 0,00 0,00 0,00 31/08/2021
910 491400 CAIO MIRANDA JUNQUEIRA ANALISTA DO MP BUENO BRANDAO - COMARCA; BUENO BRANDAO-PJ-UNPJ 1.198,00 0,00 519,00 0,00 0,00 0,00 0,00 0,00 2.013,92 31/08/2021
911 1298300 CAIO MONTEIRO ESTAGIARIO DIVINOPOLIS; DIVINOPOLIS-PJ-08PJ 0,00 0,00 0,00 207,00 0,00 0,00 0,00 0,00 0,00 31/08/2021
912 668300 CAIO PALLU COSTA PROMOTOR 2A ENTRANCIA MANTENA - COMARCA; MANTENA-PJ-03PJ 1.198,00 0,00 1.476,07 0,00 5.334,11 0,00 0,00 0,00 488,96 31/08/2021
913 671600 CAIO ROTHSAHL BOTELHO PROMOTOR 2A ENTRANCIA PEDRA AZUL - COMARCA; PEDRA AZUL-PJ-01PJ 1.198,00 0,00 1.736,07 0,00 5.334,11 0,00 0,00 0,00 488,96 31/08/2021
914 171000 CAIUS VINICIUS GONZAGA GOULART PROMOT.ENTRANC.ESPECIAL BELO HORIZONTE - COMARCA; BH-12PJ JUIZO CRIMINAL-GAB 106PJ 1.198,00 0,00 911,69 0,00 12.352,67 0,00 0,00 0,00 514,69 31/08/2021
915 82300 CALIXTO OLIVEIRA SOUZA PROMOT.ENTRANC.ESPECIAL DIVINÓPOLIS - COMARCA; DIVINOPOLIS-PJ-01PJ 1.198,00 0,00 2.387,76 0,00 20.213,46 0,00 0,00 0,00 514,69 31/08/2021
916 415800 CAMILA ALVES DA SILVA ANALISTA DO MP CAETÉ - COMARCA; CAETE-PJ-01PJ 1.198,00 0,00 519,00 0,00 -208,19 0,00 0,00 0,00 -19,09 31/08/2021
917 684900 CAMILA APARECIDA PIRES PROMOTOR SUBSTITUTO VESPASIANO - COMARCA; VESPASIANO-PJ-02PJ 1.198,00 0,00 716,33 0,00 0,00 0,00 0,00 0,00 0,00 31/08/2021
918 1069600 CAMILA BRITO NERY ESTAGIARIO UBERLANDIA; UBERLANDIA-PJ-05PJ 0,00 0,00 0,00 207,00 0,00 0,00 0,00 0,00 0,00 31/08/2021
919 1055500 CAMILA CAFIERO BICALHO ESTAGIARIO BELO HORIZONTE; BH-17PJ PATRIMONIO PUBLICO-GAB 120PJ 0,00 0,00 0,00 36,00 0,00 0,00 0,00 0,00 0,00 31/08/2021
920 1199600 CAMILA CAROLINE DOS SANTOS FARIA DUARTE ESTAGIARIO UNAI; UNAI-PJ-03PJ 0,00 0,00 0,00 207,00 0,00 0,00 0,00 0,00 0,00 31/08/2021
921 555800 CAMILA CAROLINE ROCHA CHAVES OFICIAL DO MP SALINAS - COMARCA; SALINAS-PJ-01PJ 1.198,00 0,00 519,00 0,00 0,00 0,00 0,00 0,00 0,00 31/08/2021
922 445200 CAMILA CONDE ROCHA ANALISTA DO MP CONTAGEM - COMARCA; CONTAGEM-PJ-08PJ 1.198,00 769,39 519,00 0,00 0,00 0,00 0,00 0,00 0,00 31/08/2021
923 419900 CAMILA CUNNINGHAM PIMENTA DE PADUA ANALISTA DO MP BELO HORIZONTE - COMARCA; ASSESSORIA PSICOSSOCIAL 1.198,00 0,00 519,00 0,00 0,00 0,00 0,00 0,00 0,00 31/08/2021
924 1107600 CAMILA DE SOUSA CUNHA ESTAGIARIO BARROSO; BARROSO-PJ-01PJ 0,00 0,00 0,00 0,00 1.446,00 0,00 0,00 0,00 0,00 31/08/2021
925 704600 CAMILA DIAS NOGUEIRA ASSESSOR BELO HORIZONTE - COMARCA; DIR CONTEUDO JORNALISTICO 1.198,00 769,39 519,00 0,00 0,00 0,00 0,00 0,00 0,00 31/08/2021
926 507700 CAMILA ELIZABETH RODRIGUES ANALISTA DO MP BELO HORIZONTE - COMARCA; BH-02PJ FAMILIA-SECRETARIA 1.198,00 0,00 519,00 0,00 0,00 0,00 0,00 0,00 0,00 31/08/2021
927 1182700 CAMILA FERREIRA DA SILVA PEREIRA ESTAGIARIO SETE LAGOAS; SETE LAGOAS-PJ-07PJ 0,00 0,00 0,00 180,00 0,00 0,00 0,00 0,00 0,00 31/08/2021
928 372700 CAMILA FONSECA LIMONGE ANALISTA DO MP BETIM - COMARCA; BETIM-PJ-01PJ 1.198,00 769,39 519,00 0,00 0,00 0,00 0,00 0,00 0,00 31/08/2021
929 1205100 CAMILA FRANCIELLI JUSTINO DUARTE ESTAGIARIO BARBACENA; BARBACENA-PJ-07PJ
930 621300 CAMILA GOLFETO DE SOUSA VALENTE OFICIAL DO MP ESPERA FELIZ - COMARCA; ESPERA FELIZ-PJ-UNPJ 1.198,00 1.153,54 519,00 0,00 0,00 139,86 0,00 0,00 0,00 31/08/2021
931 409800 CAMILA GONCALVES COSTA RIBEIRO ANALISTA DO MP INHAPIM - COMARCA; INHAPIM-PJ-02PJ 1.198,00 769,39 519,00 0,00 0,00 0,00 0,00 0,00 0,00 31/08/2021
932 335000 CAMILA GONTIJO DE PAIVA ANALISTA DO MP BELO HORIZONTE - COMARCA; COORD DE CONTROLE CONSTITUCIONALIDADE 1.198,00 0,00 519,00 0,00 0,00 0,00 0,00 0,00 0,00 31/08/2021
933 693400 CAMILA HECKSHER MONTEIRO ASSESSOR PROCURADOR JUSTICA BELO HORIZONTE - COMARCA; GABINETE DE PROCURADOR DE JUSTIÇA - SALA 613 1.198,00 0,00 519,00 0,00 0,00 0,00 0,00 0,00 0,00 31/08/2021
934 696000 CAMILA IMACULADA OLIVEIRA ASSESSOR PROCURADOR JUSTICA BELO HORIZONTE - COMARCA; GABINETE DE PROCURADOR DE JUSTIÇA - SALA 804 1.198,00 0,00 519,00 0,00 0,00 0,00 0,00 0,00 0,00 31/08/2021
935 1231200 CAMILA MARIZ MACEDO ESTAGIARIO BELO HORIZONTE; GABINETE DE PROCURADOR DE JUSTIÇA - SALA 802
936 547800 CAMILA MATTARELLI DE ABREU E SILVA ANALISTA DO MP BELO HORIZONTE - COMARCA; CAO-VIOLENCIA DOMESTICA E FAMILIAR 1.198,00 0,00 519,00 0,00 0,00 0,00 0,00 0,00 0,00 31/08/2021
937 1309200 CAMILA MONTALVAO BARBOSA ESTAGIARIO CURVELO; CURVELO-PJ-05PJ 0,00 0,00 0,00 207,00 0,00 0,00 0,00 0,00 0,00 31/08/2021
938 1183500 CAMILA MORAIS FERREIRA ESTAGIARIO BELO HORIZONTE; BH-02PJ FAMILIA
939 1326100 CAMILA MOREIRA DE SOUZA SOBRINHO ESTAGIARIO BELO HORIZONTE; BH-23PJ INFRACIONAL-RECEPCAO 0,00 0,00 0,00 90,00 0,00 0,00 0,00 0,00 0,00 31/08/2021
940 1180400 CAMILA NICACIO PEDROSA ALMEIDA ESTAGIARIO BELO HORIZONTE; GABINETE DE PROCURADOR DE JUSTIÇA - SALA 807 0,00 0,00 0,00 126,00 0,00 0,00 0,00 0,00 0,00 31/08/2021
941 1287600 CAMILA NUNES COELHO LAGE ESTAGIARIO BELO HORIZONTE; BH-24PJ JUIZO REG BARREIRO-GAB 003PJ
942 1141300 CAMILA OLIVEIRA GIACOMETO ESTAGIARIO UBERABA; UBERABA-PJ-08PJ
943 1076300 CAMILA RODRIGUES ANDRADE ESTAGIARIO BELO HORIZONTE; BH-23PJ CIVEL 0,00 0,00 0,00 72,00 0,00 0,00 0,00 0,00 0,00 31/08/2021
944 1290600 CAMILA RODRIGUES MAURO ESTAGIARIO CONTAGEM; CONTAGEM-PJ-22PJ 0,00 0,00 0,00 27,00 0,00 0,00 0,00 0,00 0,00 31/08/2021
945 1294800 CAMILA SCHULTZ DE OLIVEIRA LIMA ESTAGIARIO BELO HORIZONTE; BH-18PJ DIREITOS HUMANOS-GAB 127PJ 0,00 0,00 0,00 72,00 0,00 0,00 0,00 0,00 0,00 31/08/2021
946 1072900 CAMILA TEIXEIRA CORDEIRO ESTAGIARIO BELO HORIZONTE; GABINETE DE PROCURADOR DE JUSTIÇA - SALA 1007
947 1156500 CAMILA VALERIO DE BARCELOS ESTAGIARIO BELO HORIZONTE; PROCURADORIA DE JUSTIÇA DE DIREITOS DIFUSOS E 0,00 0,00 0,00 54,00 0,00 0,00 0,00 0,00 0,00 31/08/2021
948 1170200 CAMILA VENANCIO DIAS ESTAGIARIO BELO HORIZONTE; PROC. JUSTICA DIR. DIFUSOS E COLETIVOS
949 1194500 CAMILE LORRANY FLAVIO ALVES ESTAGIARIO MONTES CLAROS; MONTES CLAROS-PJ-01PJ 0,00 0,00 0,00 189,00 0,00 0,00 0,00 0,00 0,00 31/08/2021
950 1068400 CAMILLA MARIA GUIMARAES PERTENCE ESTAGIARIO BELO HORIZONTE; GABINETE DE PROCURADOR DE JUSTIÇA - SALA 714 0,00 0,00 0,00 63,00 0,00 0,00 0,00 0,00 0,00 31/08/2021
951 1097800 CAMILLA VERGINIO COSTA ESTAGIARIO 0,00 0,00 0,00 207,00 0,00 0,00 0,00 0,00 0,00 31/08/2021
952 430000 CANDIDA MARINA COSTA ANALISTA DO MP BELO HORIZONTE - COMARCA; DIVISAO DE DOCUMENTACAO JURIDICA 1.198,00 0,00 519,00 0,00 0,00 0,00 0,00 0,00 0,00 31/08/2021
953 614300 CARINA CORTIELHA OFICIAL DO MP BELO HORIZONTE - COMARCA; BH-23PJ CIVEL-SEC EXP CIVEIS 1.198,00 0,00 519,00 0,00 0,00 0,00 0,00 0,00 4.768,50 31/08/2021
954 380400 CARINA DIAS FACANHA DE SOUZA ANALISTA DO MP SANTA RITA DO SAPUCAÍ - COMARCA; SANTA RITA DO SAPUCAI-PJ-SECRETARIA 1.198,00 0,00 519,00 0,00 0,00 0,00 0,00 0,00 0,00 31/08/2021
955 698300 CARINA ESTEPHANY FAVATO FERREIRA JUSTE ASSESSOR PROCURADOR JUSTICA BELO HORIZONTE - COMARCA; PROC. JUSTICA DIR. DIFUSOS E COLETIVOS-SEC 1.198,00 0,00 519,00 0,00 0,00 0,00 0,00 0,00 0,00 31/08/2021
956 255000 CARLA ADRIANA DE MENEZES OFICIAL DO MP BELO HORIZONTE - COMARCA; CENT DE APOIO TEC-SETOR DEF,IDOSO E INFANC 1.198,00 0,00 519,00 0,00 0,00 0,00 0,00 0,00 0,00 31/08/2021
957 425100 CARLA ADRIANA DINIZ AMARAL OFICIAL DO MP CONTAGEM - COMARCA; CONTAGEM-PJ-SECRETARIA 1.198,00 0,00 519,00 0,00 0,00 0,00 0,00 0,00 0,00 31/08/2021
958 508100 CARLA ALESSANDRA FONSECA ANALISTA DO MP BELO HORIZONTE - COMARCA; CAO-ORDEM ECONOMICA E TRIBUTARIA-SECRETARIA 1.198,00 0,00 519,00 0,00 0,00 0,00 0,00 0,00 0,00 31/08/2021
959 607100 CARLA ANGELICA DIAS MIRANDA OFICIAL DO MP JABOTICATUBAS - COMARCA; JABOTICATUBAS-PJ-UNPJ 1.198,00 0,00 519,00 0,00 0,00 0,00 0,00 0,00 0,00 31/08/2021
960 351500 CARLA APARECIDA MENDES RAMIRIO OFICIAL DO MP PASSOS - COMARCA; PASSOS-PJ-01PJ 1.198,00 0,00 519,00 0,00 0,00 0,00 0,00 0,00 2.744,07 31/08/2021
961 1081900 CARLA DOS SANTOS SOUZA ESTAGIARIO ESPERA FELIZ; ESPERA FELIZ-PJ-UNPJ 0,00 0,00 0,00 207,00 0,00 0,00 0,00 0,00 0,00 31/08/2021
962 442800 CARLA GONCALVES COSTA SOALHEIRO ANALISTA DO MP GOVERNADOR VALADARES - COMARCA; GOVERNADOR VALADARES-PJ-11PJ 1.198,00 769,39 519,00 0,00 0,00 0,00 0,00 0,00 0,00 31/08/2021
963 321500 CARLA GONCALVES MASSOTE OFICIAL DO MP CAMPO BELO - COMARCA; CAMPO BELO-PJ-02PJ 1.198,00 0,00 519,00 0,00 0,00 0,00 0,00 0,00 0,00 31/08/2021
964 429200 CARLA HAUTEQUESTT BECHARA COORDENADOR/ANALISTA BELO HORIZONTE - COMARCA; DIRET DE INFORMACAO E CONHECIMENTO-DINC/CEAF 1.198,00 0,00 519,00 0,00 0,00 0,00 0,00 0,00 0,00 31/08/2021
965 1214400 CARLA LEOPOLDO DE OLIVEIRA ESTAGIARIO JUIZ DE FORA; GAECO REGIONAL DA ZONA DA MATA-JUIZ DE FORA 0,00 0,00 0,00 207,00 0,00 0,00 0,00 0,00 0,00 31/08/2021
966 157400 CARLA MARIA ALESSI LAFETA DE CARVALHO PROMOT.ENTRANC.ESPECIAL BELO HORIZONTE - COMARCA; BH-02PJ FAMILIA-GAB 029PJ 1.198,00 0,00 2.908,72 0,00 0,00 0,00 0,00 0,00 0,00 31/08/2021
967 247500 CARLA MATILDE GUIMARAES DE OLIVEIRA OFICIAL DO MP ITAJUBA - COMARCA; ITAJUBA-PJ-SECRETARIA 1.198,00 0,00 519,00 0,00 0,00 0,00 0,00 0,00 0,00 31/08/2021
968 226100 CARLA MERLI DA CONCEICAO ANALISTA DO MP BELO HORIZONTE - COMARCA; CENTRAL DE APOIO TECNICO-SETOR CONTABIL 1.198,00 0,00 519,00 0,00 0,00 0,00 0,00 0,00 0,00 31/08/2021
969 685700 CARLA PRISCILLA PEREIRA VIANA PROMOTOR SUBSTITUTO LAGOA DA PRATA - COMARCA; LAGOA DA PRATA-PJ-02PJ 1.198,00 0,00 1.432,66 0,00 0,00 0,00 0,00 0,00 0,00 31/08/2021
970 343100 CARLA REGINA GOULART SALARO DUVANEL PROMOT.ENTRANC.ESPECIAL GOVERNADOR VALADARES - COMARCA; GOVERNADOR VALADARES-PJ-06PJ 1.198,00 0,00 1.302,41 0,00 5.614,85 0,00 0,00 0,00 514,69 31/08/2021
971 532600 CARLA RODRIGUES FAZUOLI PROMOTOR 2A ENTRANCIA SACRAMENTO - COMARCA; SACRAMENTO-PJ-02PJ 1.198,00 0,00 3.200,47 0,00 5.334,11 0,00 0,00 0,00 488,96 31/08/2021
972 1324200 CARLA SUZIANE DOS SANTOS PINTO ESTAGIARIO PARAOPEBA; PARAOPEBA-PJ-UNPJ 0,00 0,00 0,00 72,00 0,00 0,00 0,00 0,00 0,00 31/08/2021
973 1102000 CARLIANE MARTINS GOMES ESTAGIARIO SACRAMENTO; SACRAMENTO-PJ-01PJ 0,00 0,00 0,00 9,00 0,00 0,00 0,00 0,00 0,00 31/08/2021
974 181401 CARLO MICHEL GAUDENSI COELHO ANALISTA DO MP BELO HORIZONTE - COMARCA; BH-08PJ JUIZADO ESPECIAL-SECRETARIA 1.198,00 0,00 519,00 0,00 0,00 0,00 0,00 0,00 0,00 31/08/2021
975 634000 CARLOS ALBERTO AMORMINO TRIGUEIRO ANALISTA DO MP BELO HORIZONTE - COMARCA; DIRET DE APOIO AS PROCURADORIAS DE JUSTICA 1.198,00 769,39 519,00 0,00 0,00 0,00 0,00 0,00 0,00 31/08/2021
976 232300 CARLOS ALBERTO DA SILVEIRA ISOLDI FILHO PROMOT.ENTRANC.ESPECIAL BELO HORIZONTE - COMARCA; BH-19PJ SAUDE-GAB 150PJ 1.198,00 0,00 3.368,91 0,00 5.614,85 0,00 0,00 0,00 514,69 31/08/2021
977 637900 CARLOS ALBERTO DE MOURA OFICIAL DO MP SETE LAGOAS - COMARCA; SETE LAGOAS-PJ-07PJ 1.198,00 0,00 519,00 0,00 0,00 0,00 0,00 0,00 0,00 31/08/2021
978 638700 CARLOS ALBERTO FERREIRA BRAGA ANALISTA DO MP MATOZINHOS - COMARCA; MATOZINHOS-PJ-01PJ 1.198,00 0,00 519,00 0,00 0,00 0,00 0,00 0,00 0,00 31/08/2021
979 54400 CARLOS ALBERTO RIBEIRO MOREIRA PROMOTOR 2A ENTRANCIA LAVRAS - COMARCA; LAVRAS-PJ-02PJ 1.198,00 0,00 2.604,82 0,00 16.002,33 0,00 0,00 0,00 488,96 31/08/2021
980 375801 CARLOS ALBERTO ROCHA ANALISTA DO MP VARGINHA - COMARCA; GAECO REGIONAL DE VARGINHA 1.198,00 0,00 519,00 0,00 0,00 0,00 0,00 0,00 0,00 31/08/2021
981 110700 CARLOS ALBERTO VALERA PROMOT.ENTRANC.ESPECIAL UBERABA - COMARCA; UBERABA-PJ-07PJ 1.198,00 0,00 998,51 0,00 28.074,25 0,00 0,00 0,00 514,69 31/08/2021
982 1230800 CARLOS ALEXANDRE RODRIGUES DE MATTOS ESTAGIARIO SANTOS DUMONT; SANTOS DUMONT-PJ-03PJ 0,00 0,00 0,00 63,00 0,00 0,00 0,00 0,00 0,00 31/08/2021
983 94200 CARLOS ANDRE MARIANI BITTENCOURT PROCURADOR DE JUSTICA BELO HORIZONTE - COMARCA; PROCURADORIA-GERAL ADJUNTA INSTITUCIONAL 1.198,00 0,00 6.140,02 0,00 5.910,37 0,00 0,00 0,00 541,78 31/08/2021
984 462800 CARLOS ANDREI SOARES FAGUNDES ANALISTA DO MP MONTES CLAROS - COMARCA; MONTES CLAROS-PJ-09PJ 1.198,00 0,00 519,00 0,00 0,00 0,00 0,00 0,00 0,00 31/08/2021
985 370300 CARLOS AUGUSTO BUENO DIAS ASSESSOR BELO HORIZONTE - COMARCA; SUPERINTENDÊNCIA DE ENGENHARIA E ARQUITETURA 1.198,00 0,00 519,00 0,00 0,00 0,00 0,00 0,00 0,00 31/08/2021
986 66200 CARLOS AUGUSTO CANEDO GONCALVES DA SILVA PROCURADOR DE JUSTICA BELO HORIZONTE - COMARCA; GABINETE DE PROCURADOR DE JUSTIÇA - SALA 911 1.198,00 0,00 3.546,22 0,00 5.910,37 0,00 0,00 0,00 541,78 31/08/2021
987 83200 CARLOS AUGUSTO ESTEVES DE CARVALHO PROMOT.ENTRANC.ESPECIAL JUIZ DE FORA - COMARCA; JUIZ DE FORA-PJ-16PJ 1.198,00 0,00 1.193,88 0,00 5.614,85 0,00 0,00 0,00 514,69 31/08/2021
988 143500 CARLOS AUGUSTO GOMES BRAGA PROMOT.ENTRANC.ESPECIAL BELO HORIZONTE - COMARCA; BH-03PJ EMPRESARIAL-GAB 036PJ 1.198,00 0,00 2.592,15 0,00 5.614,85 0,00 0,00 0,00 514,69 31/08/2021
989 701800 CARLOS AUGUSTO GOMES DE MORAES SALLES ASSESSOR PROCURADOR JUSTICA BELO HORIZONTE - COMARCA; PROC JUST ATUACAO TRIBUNAIS SUPERIORES-GAB004 1.198,00 0,00 519,00 0,00 0,00 0,00 0,00 0,00 0,00 31/08/2021
990 110800 CARLOS CESAR MARQUES LUZ PROMOTOR 1A ENTRANCIA JACUTINGA - COMARCA; JACUTINGA-PJ-UNPJ 1.198,00 0,00 1.238,16 0,00 20.269,62 0,00 0,00 0,00 0,00 31/08/2021
991 505100 CARLOS CEZAR CARVALHO ANALISTA DO MP CONTAGEM - COMARCA; CONTAGEM-PJ-02PJ 1.198,00 0,00 519,00 0,00 0,00 0,00 0,00 0,00 0,00 31/08/2021
992 195900 CARLOS DE SOUZA FERREIRA OFICIAL DO MP COROMANDEL - COMARCA; COROMANDEL-PJ-01PJ 1.198,00 0,00 519,00 0,00 0,00 0,00 0,00 0,00 0,00 31/08/2021
993 344300 CARLOS EDUARDO AVANZI DE ALMEIDA PROMOTOR 2A ENTRANCIA CAMPO BELO - COMARCA; CAMPO BELO-PJ-03PJ 1.198,00 0,00 3.200,47 0,00 6.400,93 0,00 0,00 0,00 488,96 31/08/2021
994 196800 CARLOS EDUARDO DE OLIVEIRA MARINHO OFICIAL DO MP ALPINÓPOLIS - COMARCA; ALPINOPOLIS-PJ-UNPJ 1.198,00 0,00 519,00 0,00 0,00 0,00 0,00 0,00 0,00 31/08/2021
995 1269100 CARLOS EDUARDO DE SOUZA ESTAGIARIO BOTELHOS; BOTELHOS-PJ-UNPJ 0,00 0,00 0,00 207,00 0,00 0,00 0,00 0,00 0,00 31/08/2021
996 1306000 CARLOS EDUARDO DOS SANTOS WALTER ESTAGIARIO BETIM; BETIM-PJ-09PJ 0,00 0,00 0,00 36,00 0,00 0,00 0,00 0,00 0,00 31/08/2021
997 157500 CARLOS EDUARDO DUTRA PIRES PROMOT.ENTRANC.ESPECIAL SETE LAGOAS - COMARCA; SETE LAGOAS-PJ-02PJ 1.198,00 0,00 2.062,15 0,00 28.074,25 0,00 0,00 0,00 514,69 31/08/2021
998 483200 CARLOS EDUARDO FERNANDES NEVES RIBEIRO PROMOT.ENTRANC.ESPECIAL BARBACENA - COMARCA; BARBACENA-PJ-08PJ 1.198,00 0,00 3.368,91 0,00 11.229,70 0,00 0,00 0,00 514,69 31/08/2021
999 315400 CARLOS EDUARDO FERREIRA PINTO PROMOT.ENTRANC.ESPECIAL BELO HORIZONTE - COMARCA; CAO-MEIO AMBIENTE 1.198,00 0,00 3.368,91 0,00 5.614,85 0,00 0,00 0,00 514,69 31/08/2021
1000 55300 CARLOS EDUARDO MAFRA CAVALCANTI PROCURADOR DE JUSTICA BELO HORIZONTE - COMARCA; GABINETE DE PROCURADOR DE JUSTIÇA - SALA 503 1.198,00 0,00 2.604,82 0,00 5.910,37 0,00 0,00 0,00 541,78 31/08/2021
1001 650800 CARLOS EDUARDO NIZA DA SILVA OFICIAL DO MP IGARAPÉ - COMARCA; IGARAPE-PJ-01PJ 1.198,00 1.205,38 519,00 0,00 0,00 0,00 0,00 0,00 0,00 31/08/2021
1002 491800 CARLOS EDUARDO ROMAN OFICIAL DO MP BARBACENA - COMARCA; BARBACENA-PJ-09PJ 1.198,00 0,00 519,00 0,00 0,00 0,00 0,00 0,00 0,00 31/08/2021
1003 157600 CARLOS EUGENIO SOUTO MAIOR FILIZOLA JUNIOR PROMOT.ENTRANC.ESPECIAL BELO HORIZONTE - COMARCA; BH-07PJ TRIBUNAL DO JURI 1.198,00 0,00 2.209,69 0,00 5.614,85 0,00 0,00 0,00 514,69 31/08/2021
1004 1061800 CARLOS HENRIQUE ALVES MOURAO ESTAGIARIO MONTES CLAROS; COORD REG PATRI PUB ORD TRIB-NORTE MINAS 0,00 0,00 0,00 45,00 0,00 0,00 0,00 0,00 0,00 31/08/2021
1005 299300 CARLOS HENRIQUE BICALHO ANALISTA DO MP BELO HORIZONTE - COMARCA; BH-17PJ PATRIMONIO PUBLICO-SECRETARIA 1.198,00 769,39 519,00 0,00 0,00 0,00 0,00 0,00 0,00 31/08/2021
1006 205100 CARLOS HENRIQUE ESTEVES OFICIAL DO MP ITAMBACURI - COMARCA; ITAMBACURI-PJ-01PJ 1.198,00 0,00 519,00 0,00 0,00 0,00 0,00 0,00 0,00 31/08/2021
1007 351600 CARLOS HENRIQUE FELICIO DA FONSECA OFICIAL DO MP JUIZ DE FORA - COMARCA; JUIZ DE FORA-PJ-21PJ 1.198,00 0,00 519,00 0,00 0,00 0,00 0,00 0,00 0,00 31/08/2021
1008 210900 CARLOS HENRIQUE TORRES DE SOUZA PROMOT.ENTRANC.ESPECIAL BELO HORIZONTE - COMARCA; BH-06PJ JUIZO CIVEL-GAB 055PJ 1.198,00 0,00 3.368,91 0,00 23.582,37 0,00 0,00 0,00 514,69 31/08/2021
1009 104600 CARLOS JOSE E SILVA FORTES PROMOT.ENTRANC.ESPECIAL DIVINÓPOLIS - COMARCA; DIVINOPOLIS-PJ-06PJ 1.198,00 0,00 2.431,16 0,00 16.844,55 0,00 0,00 0,00 514,69 31/08/2021
1010 656200 CARLOS JOSE GOMES ALVES 2O.TENENTE BELO HORIZONTE - COMARCA; NUCLEO DE OPERACOES DE SEGURANCA ORGANICA 1.198,00 0,00 0,00 0,00 0,00 0,00 0,00 0,00 0,00 31/08/2021
1011 85400 CARLOS JOSE VIEIRA OFICIAL DO MP BELO HORIZONTE - COMARCA; DIRETORIA DO COLEGIO E DA CAMARA DE PJ 1.198,00 0,00 519,00 0,00 5.673,96 0,00 0,00 0,00 520,11 31/08/2021
1012 1298700 CARLOS MAGNO DE ASSIS DUTRA ESTAGIARIO NOVA SERRANA; NOVA SERRANA-PJ-03PJ 0,00 0,00 0,00 108,00 0,00 0,00 0,00 0,00 0,00 31/08/2021
1013 1142200 CARLOS MARTINS DE OLIVEIRA JUNIOR ESTAGIARIO 0,00 0,00 0,00 45,00 0,00 0,00 0,00 0,00 0,00 31/08/2021
1014 229100 CARLOS MERCES DE OLIVEIRA ANALISTA DO MP BELO HORIZONTE - COMARCA; CENTRAL DE APOIO TECN-SETOR DE MEIO AMBIENTE 1.198,00 0,00 519,00 0,00 0,00 0,00 0,00 0,00 0,00 31/08/2021
1015 538300 CARLOS RANGEL SILVA DE MELO ANALISTA DO MP BELO HORIZONTE - COMARCA; DIVISAO DE CONTROLE IMOBILIARIO 1.198,00 769,39 519,00 0,00 0,00 0,00 0,00 0,00 0,00 31/08/2021
1016 265100 CARLOS REIFF MIRANDA ANALISTA DO MP BELO HORIZONTE - COMARCA; BH-19PJ SAUDE-SECRETARIA 150PJ 1.198,00 0,00 519,00 0,00 0,00 0,00 0,00 0,00 0,00 31/08/2021
1017 305400 CARLOS ROCHA DE SOUZA OFICIAL DO MP MONTALVÂNIA - COMARCA; MONTALVANIA-PJ-SECRETARIA 1.198,00 0,00 519,00 0,00 0,00 0,00 0,00 0,00 0,00 31/08/2021
1018 371600 CARLOS SAMUEL BORGES CUNHA PROMOT.ENTRANC.ESPECIAL MANHUAÇU - COMARCA; MANHUACU-PJ-05PJ 1.198,00 0,00 2.987,11 0,00 5.614,85 0,00 0,00 0,00 514,69 31/08/2021
1019 365100 CARLOS WAGNER SANDER MORAIS COORDENADOR/OFICIAL BELO HORIZONTE - COMARCA; DIRETORIA DE ADMINISTRACAO FINANCEIRA 1.198,00 0,00 519,00 0,00 0,00 0,00 0,00 0,00 0,00 31/08/2021
1020 1278600 CARLOS WAGNER VASCONCELOS REGO BARROS ESTAGIARIO SETE LAGOAS; SETE LAGOAS-PJ-SEC CRIMINAIS 0,00 0,00 0,00 117,00 0,00 0,00 0,00 0,00 0,00 31/08/2021
1021 293400 CARLOS WILDE RIBEIRO DE MELLO PROMOT.ENTRANC.ESPECIAL BARBACENA - COMARCA; BARBACENA-PJ-07PJ 1.198,00 0,00 2.604,82 0,00 5.614,85 0,00 0,00 0,00 514,69 31/08/2021
1022 1265300 CARMELITA DE ALMEIDA SOUZA ESTAGIARIO PRATAPOLIS; PRATAPOLIS-PJ-UNPJ 0,00 0,00 0,00 198,00 0,00 0,00 0,00 0,00 0,00 31/08/2021
1023 399900 CARMELITA EVANGELISTA DE SOUZA OFICIAL DO MP JOÃO PINHEIRO - COMARCA; JOAO PINHEIRO-PJ-01PJ 1.198,00 0,00 519,00 0,00 0,00 0,00 0,00 0,00 0,00 31/08/2021
1024 202000 CARMEN LUCIA MARIZ DE MACEDO OFICIAL DO MP BELO HORIZONTE - COMARCA; DIRETORIA GESTAO COMPRAS LICITACOES 1.198,00 0,00 519,00 0,00 5.028,83 0,00 0,00 0,00 460,98 31/08/2021
1025 1312300 CAROLINA ABREU DOS SANTOS ESTAGIARIO SETE LAGOAS; SETE LAGOAS-PJ-01PJ 0,00 0,00 0,00 207,00 0,00 0,00 0,00 0,00 0,00 31/08/2021
1026 1315000 CAROLINA AMARAL OLIVEIRA RODRIGUES ESTAGIARIO MONTES CLAROS; MONTES CLAROS-PJ-COORD PJ 0,00 0,00 0,00 207,00 0,00 0,00 0,00 0,00 0,00 31/08/2021
1027 359700 CAROLINA ANDRADE BORGES DE MATTOS PROMOTOR SUBSTITUTO BICAS - COMARCA; BICAS-PJ-UNPJ 1.198,00 0,00 2.214,10 0,00 0,00 0,00 0,00 0,00 0,00 31/08/2021
1028 1231300 CAROLINA BEDESCHI CALAIS ESTAGIARIO BELO HORIZONTE; GABINETE DE PROCURADOR DE JUSTIÇA - SALA 713 0,00 0,00 0,00 9,00 0,00 0,00 0,00 0,00 0,00 31/08/2021
1029 1164100 CAROLINA CARDOSO DE OLIVEIRA ESTAGIARIO IPATINGA; IPATINGA-PJ-06PJ 0,00 0,00 0,00 135,00 0,00 0,00 0,00 0,00 0,00 31/08/2021
1030 701900 CAROLINA CARVALHO COSTA ASSESSOR PROCURADOR JUSTICA BELO HORIZONTE - COMARCA; GABINETE DE PROCURADOR DE JUSTIÇA - SALA 811 1.198,00 0,00 519,00 0,00 0,00 0,00 0,00 0,00 0,00 31/08/2021
1031 611000 CAROLINA CERIGATTO PROMOT.ENTRANC.ESPECIAL GOVERNADOR VALADARES - COMARCA; GOVERNADOR VALADARES-PJ-11PJ 1.198,00 0,00 0,00 0,00 5.614,85 0,00 0,00 0,00 514,69 31/08/2021
1032 228500 CAROLINA CHIARELLA DOS SANTOS RIBEIRO COORDENADOR/OFICIAL BELO HORIZONTE - COMARCA; DIVISAO TRANSPORTES 1.198,00 0,00 519,00 0,00 0,00 0,00 0,00 0,00 0,00 31/08/2021
1033 446500 CAROLINA COSTA VAL RODRIGUES ANALISTA DO MP BELO HORIZONTE - COMARCA; SUPERINTENDENCIA LOGISTICA SERVICOS 1.198,00 0,00 519,00 0,00 0,00 0,00 0,00 0,00 0,00 31/08/2021
1034 1198800 CAROLINA DINIZ MENDES ESTAGIARIO BELO HORIZONTE; BH-18PJ VIOLENCIA DOMESTICA-GAB 053PJ 0,00 0,00 0,00 180,00 0,00 0,00 0,00 0,00 0,00 31/08/2021
1035 603501 CAROLINA DOMINGOS BRANDAO RABELLO ANALISTA DO MP BARROSO - COMARCA; BARROSO-PJ-01PJ 1.198,00 0,00 519,00 0,00 0,00 0,00 0,00 0,00 0,00 31/08/2021
1036 404300 CAROLINA DOS SANTOS VIEIRA ANALISTA DO MP BELO HORIZONTE - COMARCA; BH-08PJ JUIZADO ESPECIAL-SECRETARIA 1.198,00 0,00 519,00 0,00 0,00 0,00 0,00 0,00 0,00 31/08/2021
1037 634600 CAROLINA FRARE LAMEIRINHA PROMOTOR 2A ENTRANCIA PATOS DE MINAS - COMARCA; COORD REG BACIAS PARACATU,URUCUIA E ABAETE 1.198,00 0,00 1.953,62 0,00 0,00 0,00 0,00 0,00 0,00 31/08/2021
1038 405401 CAROLINA GENTIL MEDEIROS MARQUEZ PROMOTOR SUBSTITUTO RIBEIRÃO DAS NEVES - COMARCA; RIBEIRAO DAS NEVES-PJ-11PJ 1.198,00 0,00 2.387,76 0,00 5.067,40 0,00 0,00 0,00 464,51 31/08/2021
1039 551200 CAROLINA LOPES ARANTES MASCARENHAS ANALISTA DO MP BELO HORIZONTE - COMARCA; EXTINTA-COORD EST DEF DIR FAM PES DEFIC IDOSO 1.198,00 769,39 519,00 0,00 0,00 0,00 0,00 0,00 0,00 31/08/2021
1040 622600 CAROLINA LOREDO LOPES CATIZANI OFICIAL DO MP RIBEIRÃO DAS NEVES - COMARCA; RIBEIRAO DAS NEVES-PJ-12PJ 1.198,00 0,00 519,00 0,00 0,00 0,00 0,00 0,00 0,00 31/08/2021
1041 1244000 CAROLINA MARIA DE ANDRADE RAMOS ESTAGIARIO GUARANI; GUARANI-PJ-UNPJ 0,00 0,00 0,00 207,00 0,00 0,00 0,00 0,00 0,00 31/08/2021
1042 362900 CAROLINA MARQUES ANDRADE PROMOTOR 2A ENTRANCIA FRUTAL - COMARCA; FRUTAL-PJ-01PJ 1.198,00 0,00 2.691,66 0,00 5.334,11 0,00 0,00 0,00 488,96 31/08/2021
1043 1192000 CAROLINA MARTINS AGUIAR ESTAGIARIO RIBEIRAO DAS NEVES; RIBEIRAO NEVES-SEC PJ EXECUCAO PENAL 0,00 0,00 0,00 63,00 0,00 0,00 0,00 0,00 0,00 31/08/2021
1044 457400 CAROLINA MELO CAMPOS PROMOTOR SUBSTITUTO RIBEIRÃO DAS NEVES - COMARCA; RIBEIRAO DAS NEVES-PJ-10PJ 1.198,00 0,00 759,74 0,00 5.067,40 0,00 0,00 0,00 464,51 31/08/2021
1045 382200 CAROLINA MENDES CHAVES LIN ANALISTA DO MP BELO HORIZONTE - COMARCA; BH-12PJ JUIZO CRIMINAL-GAB 088PJ 1.198,00 769,39 519,00 0,00 0,00 0,00 0,00 0,00 0,00 31/08/2021
1046 313600 CAROLINA MENDONCA DE SIQUEIRA PROMOT.ENTRANC.ESPECIAL BETIM - COMARCA; BETIM-PJ-08PJ 1.198,00 0,00 1.302,41 0,00 5.614,85 0,00 0,00 0,00 514,69 31/08/2021
1047 461900 CAROLINA MURTA TEIXEIRA DIAS ANALISTA DO MP BELO HORIZONTE - COMARCA; PROCURADORIA-GERAL ADJ ADM- SECRETARIA 1.198,00 0,00 519,00 0,00 0,00 0,00 0,00 0,00 0,00 31/08/2021
1048 1279400 CAROLINA OLIVEIRA SARDINHA ESTAGIARIO BELO HORIZONTE; DIRETORIA DE PAGAMENTO DE PESSOAL-DPAG 0,00 0,00 0,00 207,00 0,00 0,00 0,00 0,00 0,00 31/08/2021
1049 1193900 CAROLINA PEREIRA VIEIRA ESTAGIARIO BELO HORIZONTE; GABINETE DE PROCURADOR DE JUSTIÇA - SALA 406 0,00 0,00 0,00 189,00 0,00 0,00 0,00 0,00 0,00 31/08/2021
1050 509600 CAROLINA PINTO DE OLIVEIRA SOUZA ANALISTA DO MP MURIAÉ - COMARCA; MURIAE-PJ-01PJ 1.198,00 769,39 519,00 0,00 0,00 0,00 0,00 0,00 0,00 31/08/2021
1051 526400 CAROLINA QUEIROZ DE CARVALHO PROMOT.ENTRANC.ESPECIAL CONSELHEIRO LAFAIETE - COMARCA; CONSELHEIRO LAFAIETE-PJ-02PJ 1.198,00 0,00 1.339,25 0,00 0,00 0,00 0,00 0,00 0,00 31/08/2021
1052 1262200 CAROLINA RIBAS ESTAGIARIO BELO HORIZONTE; EXTINTA-COORD EST DEF DIR FAM PES DEFIC IDOSO 0,00 0,00 0,00 108,00 0,00 0,00 0,00 0,00 0,00 31/08/2021
1053 1200500 CAROLINA RIBEIRO DOS SANTOS ESTAGIARIO BELO HORIZONTE; BH-08PJ JUIZADO ESPECIAL-GAB 067PJ 0,00 0,00 0,00 207,00 0,00 0,00 0,00 0,00 0,00 31/08/2021
1054 667000 CAROLINA RITA TORRES GRUBER PROMOTOR 2A ENTRANCIA SÃO FRANCISCO - COMARCA; SAO FRANCISCO-PJ-01PJ 1.198,00 0,00 1.476,07 0,00 0,00 0,00 0,00 0,00 0,00 31/08/2021
1055 629100 CAROLINA RODRIGUES AMARAL ANALISTA DO MP BELO HORIZONTE - COMARCA; PROC. JUSTICA DIR. DIFUSOS E COLETIVOS-SEC 1.198,00 0,00 519,00 0,00 0,00 0,00 0,00 0,00 0,00 31/08/2021
1056 502600 CAROLINA RODRIGUES RUBEN ANALISTA DO MP BELO HORIZONTE - COMARCA; BH-18PJ VIOLENCIA DOMESTICA-SECRETARIA 1.198,00 1.538,78 519,00 0,00 0,00 0,00 0,00 0,00 0,00 31/08/2021
1057 1045600 CAROLINA SANTOS FERREIRA DE LEMOS ESTAGIARIO BELO HORIZONTE; BH-02PJ FAMILIA-SECRETARIA
1058 1176700 CAROLINA SOUZA ALVES ESTAGIARIO SABARA; SABARA-PJ-03PJ 0,00 0,00 0,00 207,00 0,00 0,00 0,00 0,00 0,00 31/08/2021
1059 1144200 CAROLINA TEIXEIRA SILVA ESTAGIARIO ARINOS; ARINOS-PJ-UNPJ 0,00 0,00 0,00 198,00 0,00 0,00 0,00 0,00 0,00 31/08/2021
1060 1261000 CAROLINA VALADARES TANTIKITMANEE ESTAGIARIO BELO HORIZONTE; DIRETORIA DE PRODUCAO EDITORIAL
1061 529600 CAROLINA VAZ DE MELO MAMBRINI ANALISTA DO MP BELO HORIZONTE - COMARCA; BH-14PJ DEFESA CONSUMIDOR-GAB 005PJ 1.198,00 0,00 519,00 0,00 0,00 0,00 0,00 0,00 0,00 31/08/2021
1062 619100 CAROLINA ZAKHIA NARDELLI RODRIGUES ANALISTA DO MP NEPOMUCENO - COMARCA; NEPOMUCENO-PJ-UNPJ 1.198,00 769,39 519,00 0,00 0,00 0,00 0,00 0,00 0,00 31/08/2021
1063 517600 CAROLINE ALVES DE OLIVEIRA MULLER ANALISTA DO MP VISCONDE DO RIO BRANCO - COMARCA; VISCONDE DO RIO BRANCO-PJ-01PJ 1.198,00 0,00 519,00 0,00 0,00 0,00 0,00 0,00 0,00 31/08/2021
1064 373200 CAROLINE ANTUNES RIBEIRO OFICIAL DO MP JACUI - COMARCA; JACUI-PJ-UNPJ 1.198,00 0,00 519,00 0,00 0,00 0,00 0,00 0,00 0,00 31/08/2021
1065 1084100 CAROLINE APARECIDA MENDES ESTAGIARIO UBERLANDIA; UBERLANDIA-PJ-04PJ 0,00 0,00 0,00 117,00 0,00 0,00 0,00 0,00 0,00 31/08/2021
1066 1201600 CAROLINE APARECIDA SOARES FERREIRA ESTAGIARIO ITAJUBA; ITAJUBA-PJ-01PJ 0,00 0,00 0,00 90,00 0,00 0,00 0,00 0,00 0,00 31/08/2021
1067 1294300 CAROLINE CRISTINA DA COSTA MAIA ESTAGIARIO PATOS DE MINAS; COORD REG PJ DEF EDU DIR CRI ADO AL PAR NOROE 0,00 0,00 0,00 207,00 0,00 0,00 0,00 0,00 0,00 31/08/2021
1068 556800 CAROLINE DE SOUZA CARDOSO DOMINGUES OFICIAL DO MP BRASÍLIA DE MINAS - COMARCA; BRASILIA DE MINAS-PJ-02PJ 1.198,00 0,00 519,00 0,00 0,00 0,00 0,00 0,00 0,00 31/08/2021
1069 1143700 CAROLINE ESTEVES DE CARVALHO ESTAGIARIO 0,00 0,00 0,00 189,00 0,00 0,00 0,00 0,00 0,00 31/08/2021
1070 499400 CAROLINE MARQUES DE LOURDES MARZULLO OFICIAL DO MP JUIZ DE FORA - COMARCA; JUIZ DE FORA-PJ-08PJ 1.198,00 1.153,54 519,00 0,00 0,00 0,00 0,00 0,00 0,00 31/08/2021
1071 616800 CAROLINE MONTEIRO DE BARROS ANALISTA DO MP CONTAGEM - COMARCA; CONTAGEM-PJ-11PJ 1.198,00 0,00 519,00 0,00 0,00 0,00 0,00 0,00 0,00 31/08/2021
1072 342500 CAROLINE PESTANA GOMES PROMOT.ENTRANC.ESPECIAL VESPASIANO - COMARCA; VESPASIANO-PJ-06PJ 1.198,00 0,00 2.214,10 0,00 5.614,85 0,00 0,00 0,00 514,69 31/08/2021
1073 1079200 CAROLINE REVERT OLIVEIRA SOARES ESTAGIARIO JANUARIA; JANUARIA-PJ-02PJ 0,00 0,00 0,00 198,00 0,00 0,00 0,00 0,00 0,00 31/08/2021
1074 1093400 CAROLINE SILVA ARAUJO ESTAGIARIO BELO HORIZONTE; DIVISAO DE MANUTENCAO PREDIAL 0,00 0,00 0,00 54,00 0,00 0,00 0,00 0,00 54,30 31/08/2021
1075 1310800 CAROLINE STHEFANE TEIXEIRA MIRANDA ESTAGIARIO LAGOA DA PRATA; LAGOA DA PRATA-PJ-01PJ 0,00 0,00 0,00 207,00 0,00 0,00 0,00 0,00 0,00 31/08/2021
1076 618100 CAROLINE VASCONCELOS COSTA LANZA ANALISTA DO MP PARAOPEBA - COMARCA; PARAOPEBA-PJ-UNPJ 1.198,00 2.308,17 519,00 0,00 0,00 0,00 0,00 0,00 0,00 31/08/2021
1077 1253900 CAROLINNY MARTINS DE OLIVEIRA ESTAGIARIO BELO HORIZONTE; DIRET DE ESTAGIOS E CONVENIOS ACADEMICOS 0,00 0,00 0,00 207,00 0,00 0,00 0,00 0,00 0,00 31/08/2021
1078 699000 CAROLLINA RODRIGUES SOUTO AMARAL ASSESSOR PROCURADOR JUSTICA BELO HORIZONTE - COMARCA; GABINETE DE PROCURADOR DE JUSTIÇA - SALA 405 1.198,00 0,00 519,00 0,00 0,00 0,00 0,00 0,00 0,00 31/08/2021
1079 210600 CASSANDRA DA CONCEICAO DANTAS SERRAO PROMOT.ENTRANC.ESPECIAL BELO HORIZONTE - COMARCA; BH-02PJ FAMILIA-GAB 026PJ 1.198,00 0,00 1.779,97 0,00 0,00 0,00 0,00 0,00 0,00 31/08/2021
1080 604000 CASSIA APARECIDA DA SILVA OFICIAL DO MP PARACATU - COMARCA; PARACATU-PJ-01PJ 1.198,00 0,00 519,00 0,00 0,00 0,00 0,00 0,00 0,00 31/08/2021
1081 268800 CASSIA BEATRIZ TEIXEIRA OFICIAL DO MP BELO HORIZONTE - COMARCA; PROC JUST ESP ACOES COMP ORIG CRIMINAL-SEC 1.198,00 0,00 519,00 0,00 0,00 0,00 0,00 0,00 0,00 31/08/2021
1082 500000 CASSIA DE OLIVEIRA COSTA VIANA ANALISTA DO MP SETE LAGOAS - COMARCA; SETE LAGOAS-PJ-09PJ 1.198,00 0,00 519,00 0,00 0,00 0,00 0,00 0,00 0,00 31/08/2021
1083 368800 CASSIA LUISA BATISTA MENDONCA WEBER OFICIAL DO MP BELO HORIZONTE - COMARCA; DIVISÃO DE EDUCAÇÃO PARA O CONSUMO 1.198,00 0,00 519,00 0,00 0,00 0,00 0,00 0,00 0,00 31/08/2021
1084 622200 CASSIA VAZ DE AZEVEDO LISBOA MARZANO ASSESSOR BELO HORIZONTE - COMARCA; CGMP-SECRETARIA DA CORREGEDORIA-GERAL DO MP 1.198,00 769,39 519,00 0,00 0,00 0,00 0,00 0,00 0,00 31/08/2021
1085 156100 CASSIA VIRGINIA SERRA TEIXEIRA GONTIJO PROCURADOR DE JUSTICA BELO HORIZONTE - COMARCA; GABINETE DE PROCURADOR DE JUSTIÇA - SALA 804 1.198,00 0,00 3.369,44 0,00 17.731,11 0,00 0,00 0,00 541,78 31/08/2021
1086 121000 CASSIO HENRIQUE AFONSO DA SILVA OFICIAL DO MP BELO HORIZONTE - COMARCA; CGMP-ASSESSORIA JURIDICA 1.198,00 0,00 519,00 0,00 0,00 0,00 0,00 0,00 0,00 31/08/2021
1087 512001 CATARINA NATALINO CALIXTO COORDENADOR/ANALISTA BELO HORIZONTE - COMARCA; DIRETORIA GESTAO TRANSPORTES 1.198,00 0,00 519,00 0,00 0,00 0,00 0,00 0,00 0,00 31/08/2021
1088 606200 CATARINE DE SIQUEIRA DE QUADROS ANALISTA DO MP CONTAGEM - COMARCA; CONTAGEM-PJ-07PJ 1.198,00 743,74 519,00 0,00 0,00 0,00 0,00 0,00 0,00 31/08/2021
1089 622300 CECILIA APARECIDA PEREIRA ASSUNCAO OFICIAL DO MP TRÊS PONTAS - COMARCA; TRES PONTAS-PJ-SECRETARIA 1.198,00 1.538,78 519,00 0,00 0,00 102,06 0,00 0,00 0,00 31/08/2021
1090 538000 CECILIA FONTES DE MATOS PIMENTEL ANALISTA DO MP PALMA - COMARCA; PALMA-PJ-UNPJ 1.198,00 769,39 519,00 0,00 0,00 0,00 0,00 0,00 0,00 31/08/2021
1091 261300 CECILIO ANTONIO CAMPOS DOS REIS ANALISTA DO MP BELO HORIZONTE - COMARCA; AUDITORIA INTERNA 1.198,00 0,00 519,00 0,00 0,00 0,00 0,00 0,00 0,00 31/08/2021
1092 386400 CEFAS AMORELI DE FIGUEIREDO OFICIAL DO MP CABO VERDE - COMARCA; CABO VERDE-PJ-SECRETARIA 1.198,00 0,00 519,00 0,00 0,00 0,00 0,00 0,00 0,00 31/08/2021
1093 105600 CELIA BEATRIZ GOMES DOS SANTOS PROCURADOR DE JUSTICA BELO HORIZONTE - COMARCA; PROC JUSTICA DIR DIFUSOS E COLETIVOS-GAB006 1.198,00 0,00 1.714,84 0,00 5.910,37 0,00 0,00 0,00 541,78 31/08/2021
1094 149000 CELIA MAGALHAES CLAROS SOSSI OFICIAL DO MP GOVERNADOR VALADARES - COMARCA; GAECO REGIONAL DE GOVERNADOR VALADARES 1.198,00 0,00 519,00 0,00 0,00 0,00 0,00 0,00 0,00 31/08/2021
1095 421000 CELINA BENEDITA DE SOUZA ALMEIDA OFICIAL DO MP CAMBUÍ - COMARCA; CAMBUI-PJ-01PJ 1.198,00 0,00 519,00 0,00 0,00 0,00 0,00 0,00 0,00 31/08/2021
1096 252900 CELIO DE MELO CASTOR ANALISTA DO MP BELO HORIZONTE - COMARCA; SUPERINTENDENCIA GESTÃO DE PESSOAS 1.198,00 0,00 519,00 0,00 0,00 0,00 0,00 0,00 0,00 31/08/2021
1097 486300 CELIO DIMAS ESTEVES RUAS PROMOT.ENTRANC.ESPECIAL CORONEL FABRICIANO - COMARCA; CORONEL FABRICIANO-PJ-02PJ 1.198,00 0,00 3.151,78 0,00 5.614,85 0,00 0,00 0,00 514,69 31/08/2021
1098 395700 CELIO FERREIRA LIMA OFICIAL DO MP CONTAGEM - COMARCA; CONTAGEM-PJ-SECRETARIA 1.198,00 769,39 519,00 0,00 0,00 0,00 0,00 0,00 0,00 31/08/2021
1099 281300 CELMA REGINA PEREIRA SANTOS ANALISTA DO MP BELO HORIZONTE - COMARCA; PROMOT ESTADUAL DE DEF PATRI CULT E TUR DE MG 1.198,00 0,00 519,00 0,00 0,00 0,00 0,00 0,00 0,00 31/08/2021
1100 535600 CELSO MEDEIROS DE PAIVA OFICIAL DO MP RIO PRETO - COMARCA; RIO PRETO-PJ-SECRETARIA 1.198,00 0,00 519,00 0,00 0,00 423,36 0,00 0,00 0,00 31/08/2021
1101 157700 CELSO PENNA FERNANDES JUNIOR PROMOT.ENTRANC.ESPECIAL BELO HORIZONTE - COMARCA; BH-23PJ CIVEL-GAB 162PJ 1.198,00 0,00 2.956,29 0,00 11.229,70 0,00 0,00 0,00 0,00 31/08/2021
1102 93700 CESAR ANTONIO COSSI PROCURADOR DE JUSTICA BELO HORIZONTE - COMARCA; GABINETE DE PROCURADOR DE JUSTIÇA - SALA 805 1.198,00 0,00 2.648,24 0,00 5.910,37 0,00 0,00 0,00 541,78 31/08/2021
1103 293100 CESAR ANTONIO DE LIMA PROMOT.ENTRANC.ESPECIAL VARGINHA - COMARCA; VARGINHA-PJ-04PJ 1.198,00 0,00 3.368,91 0,00 16.844,55 0,00 0,00 0,00 514,69 31/08/2021
1104 293800 CESAR AUGUSTO DOS SANTOS PROMOT.ENTRANC.ESPECIAL BELO HORIZONTE - COMARCA; BH-12PJ JUIZO CRIMINAL-GAB 091PJ 1.198,00 0,00 868,27 0,00 5.614,85 0,00 0,00 0,00 514,69 31/08/2021
1105 367000 CESAR NARVAES DE AVELAR OFICIAL DO MP BELO HORIZONTE - COMARCA; DIVISAO DE MEMORIA INSTITUCIONAL 1.198,00 0,00 519,00 0,00 0,00 0,00 0,00 0,00 0,00 31/08/2021
1106 226500 CESAR SILVEIRA BARROUIN OFICIAL DO MP BELO HORIZONTE - COMARCA; DIRETORIA DE ADMINISTRACAO FINANCEIRA 1.198,00 0,00 519,00 0,00 0,00 0,00 0,00 0,00 0,00 31/08/2021
1107 293500 CESAR YOSHIKAWA PROMOT.ENTRANC.ESPECIAL BELO HORIZONTE - COMARCA; BH-12PJ JUIZO CRIMINAL-GAB 083PJ 1.198,00 0,00 2.344,34 0,00 5.614,85 0,00 0,00 0,00 514,69 31/08/2021
1108 1125600 CEZAR AUGUSTO RANGEL MARQUES ESTAGIARIO JUIZ DE FORA; JUIZ DE FORA-PJ-22PJ
1109 121400 CEZAR MORENO CONCEICAO TAVARES OFICIAL DO MP BELO HORIZONTE - COMARCA; COORD DE INCLUSAO E MOBILIZACAO SOCIAIS 1.198,00 769,39 519,00 0,00 0,00 0,00 0,00 0,00 0,00 31/08/2021
1110 1175900 CHARLENE MARISE DA SILVA ESTAGIARIO ESMERALDAS; ESMERALDAS-PJ-02PJ 0,00 0,00 0,00 189,00 0,00 0,00 0,00 0,00 0,00 31/08/2021
1111 664100 CHARLES BARBOSA DA SILVA 3O.SARGENTO BELO HORIZONTE - COMARCA; NUCLEO DE OPERACOES DE SEGURANCA DE PESSOAL 1.198,00 0,00 0,00 0,00 0,00 0,00 0,00 0,00 0,00 31/08/2021
1112 210400 CHARLES DANIEL FRANCA SALOMAO PROMOT.ENTRANC.ESPECIAL PARÁ DE MINAS - COMARCA; PARA DE MINAS-PJ-02PJ 1.198,00 0,00 1.779,97 0,00 5.614,85 0,00 0,00 0,00 514,69 31/08/2021
1113 669200 CHARLES HENRIQUE SQUARCIO CABO BELO HORIZONTE - COMARCA; GAECO - SECRETARIA 1.198,00 0,00 0,00 0,00 0,00 0,00 0,00 0,00 0,00 31/08/2021
1114 243800 CHARLES MARTINS MUNIZ OFICIAL DO MP BELO HORIZONTE - COMARCA; LAB TECNOLOGIA CONTRA LAVAGEM DINHEIRO 1.198,00 0,00 0,00 0,00 0,00 0,00 0,00 0,00 0,00 31/08/2021
1115 193500 CHARLIN CESAR KOURLY OFICIAL DO MP ARAGUARI - COMARCA; ARAGUARI-PJ-07PJ 1.198,00 0,00 519,00 0,00 0,00 0,00 0,00 0,00 0,00 31/08/2021
1116 385500 CHILLEN PEIXOTO DE MOURA OFICIAL DO MP BELO HORIZONTE - COMARCA; DIVISAO DE MATERIAIS 1.198,00 769,39 519,00 0,00 0,00 0,00 0,00 0,00 0,00 31/08/2021
1117 1281400 CHRISTIAN COELHO BARBOSA ESTAGIARIO BELO HORIZONTE; DIRETORIA DE PRODUCAO EDITORIAL
1118 534500 CHRISTIAN DOUGLAS BRITO RUAS OFICIAL DO MP SÃO JOÃO DA PONTE - COMARCA; SAO JOAO DA PONTE-PJ-SECRETARIA 1.198,00 0,00 519,00 0,00 0,00 0,00 0,00 0,00 0,00 31/08/2021
1119 370600 CHRISTIAN KARINE FELIX PRATES ASSESSOR BELO HORIZONTE - COMARCA; SUPRIN DE PLANEJAMENTO E COORDENACAO 1.198,00 0,00 519,00 0,00 0,00 0,00 0,00 0,00 0,00 31/08/2021
1120 1073800 CHRISTIAN RODRIGUES FRAGA DA SILVA ESTAGIARIO BELO HORIZONTE; SUPERINTENDÊNCIA DE ENGENHARIA E ARQUITETURA 0,00 0,00 0,00 99,00 0,00 0,00 0,00 0,00 0,00 31/08/2021
1121 435800 CHRISTIANA BAHIA ANDRADE PINA ANALISTA DO MP BELO HORIZONTE - COMARCA; LABORATORIO TECNOLOGIA INTELIGENCIA 1.198,00 769,39 519,00 0,00 5.620,98 0,00 0,00 0,00 515,26 31/08/2021
1122 516800 CHRISTIANE FERREIRA DO NASCIMENTO ANALISTA DO MP POUSO ALEGRE - COMARCA; POUSO ALEGRE-PJ-08PJ 1.198,00 0,00 519,00 0,00 0,00 0,00 0,00 0,00 0,00 31/08/2021
1123 176000 CHRISTIANE JUNQUEIRA PULITI ANDRADE DE BARROS ASSESSOR BELO HORIZONTE - COMARCA; PROCURADORIA-GERAL ADJUNTA INSTITUCIONAL 1.198,00 0,00 519,00 0,00 0,00 0,00 0,00 0,00 0,00 31/08/2021
1124 319200 CHRISTIANE MARIA DE ASSIS RUSSO OFICIAL DO MP BELO HORIZONTE - COMARCA; CAO-ORDEM ECONOMICA E TRIBUTARIA-SECRETARIA 1.198,00 0,00 519,00 0,00 0,00 0,00 0,00 0,00 0,00 31/08/2021
1125 510300 CHRISTIANE MARY DE CARVALHO FERREIRA ANALISTA DO MP BELO HORIZONTE - COMARCA; DIRETORIA DE SISTEMAS DE INFORMACAO 1.198,00 0,00 519,00 0,00 0,00 0,00 0,00 0,00 0,00 31/08/2021
1126 424900 CHRISTIANE PEREIRA TURNER DE ARAUJO OFICIAL DO MP BELO HORIZONTE - COMARCA; CAO-PATRIMONIO PUBLICO 1.198,00 769,39 519,00 0,00 0,00 0,00 0,00 0,00 0,00 31/08/2021
1127 513700 CHRISTIANE VIEIRA SOARES PEDERSOLI ASSESSOR/ANALISTA BELO HORIZONTE - COMARCA; ASSESSORIA JURIDICA DO PROCON-MG 1.198,00 769,39 519,00 0,00 0,00 0,00 0,00 0,00 0,00 31/08/2021
1128 163300 CHRISTIANNE COTRIM ASSAD BENSOUSSAN PROMOT.ENTRANC.ESPECIAL BELO HORIZONTE - COMARCA; BH-12PJ JUIZO CRIMINAL-GAB 087PJ 1.198,00 0,00 3.368,91 0,00 5.614,85 0,00 0,00 0,00 514,69 31/08/2021
1129 371400 CHRISTIANO LEONARDO GONZAGA GOMES PROMOTOR 2A ENTRANCIA SABARÁ - COMARCA; SABARA-PJ-01PJ 1.198,00 0,00 1.492,41 0,00 5.334,11 0,00 0,00 0,00 488,96 31/08/2021
1130 1302100 CHRISTYAN FELIPE REIS SANTOS ESTAGIARIO BELO HORIZONTE; DSMT-LABORATORIO DE MANUTENCAO 0,00 0,00 0,00 108,00 0,00 0,00 0,00 0,00 0,00 31/08/2021
1131 412300 CHRYSTIAN MACHADO RIBEIRO ANALISTA DO MP VARGINHA - COMARCA; VARGINHA-PJ-04PJ 1.198,00 0,00 519,00 0,00 0,00 0,00 0,00 0,00 0,00 31/08/2021
1132 513800 CHRYSTIANE DO NASCIMENTO DE MAGALHAES OFICIAL DO MP UBERLÂNDIA - COMARCA; UBERLANDIA-PJ-10PJ 1.198,00 0,00 519,00 0,00 0,00 0,00 0,00 0,00 0,00 31/08/2021
1133 497900 CIBELE DE FREITAS SANCHES DIAS ANALISTA DO MP SABARÁ - COMARCA; SABARA-PJ-03PJ 1.198,00 0,00 519,00 0,00 483,34 0,00 0,00 0,00 1.006,96 31/08/2021
1134 500900 CIBELLE SILVA PRADO ALVARENGA ANALISTA DO MP ITANHANDU - COMARCA; ITANHANDU-PJ-UNPJ 1.198,00 1.538,78 519,00 0,00 0,00 0,00 0,00 0,00 0,00 31/08/2021
1135 705300 CICERO HELENO PEREIRA SILVA ASSESSOR PROMOTOR JUSTICA CORINTO - COMARCA; CORINTO-PJ-UNPJ 1.198,00 0,00 519,00 0,00 0,00 0,00 0,00 0,00 0,00 31/08/2021
1136 1271700 CINARA DE CAMPOS ESTEVES ESTAGIARIO CURVELO; CURVELO-PJ-03PJ 0,00 0,00 0,00 207,00 0,00 0,00 0,00 0,00 0,00 31/08/2021
1137 1131800 CINDY KEILA VILELA ESTAGIARIO LAVRAS; LAVRAS-PJ-06PJ
1138 1163000 CINTHIA GONCALVES CAVALINI ESTAGIARIO UBERABA; UBERABA-PJ-11PJ 0,00 0,00 0,00 189,00 0,00 0,00 0,00 0,00 0,00 31/08/2021
1139 296400 CINTIA APARECIDA MOREIRA NAVES E RODRIGUES ANALISTA DO MP CAMPO BELO - COMARCA; CAMPO BELO-PJ-01PJ 1.198,00 0,00 519,00 0,00 0,00 0,00 0,00 0,00 0,00 31/08/2021
1140 171200 CINTIA MARIA OLIVEIRA DE LUCENA PROMOT.ENTRANC.ESPECIAL BELO HORIZONTE - COMARCA; BH-23PJ INFRACIONAL-GAB 144PJ 1.198,00 0,00 1.866,79 0,00 5.614,85 0,00 0,00 0,00 514,69 31/08/2021
1141 1209800 CINTIA MOREIRA SILVA ESTAGIARIO BELO VALE; BELO VALE-PJ-UNPJ 0,00 0,00 0,00 198,00 0,00 0,00 0,00 0,00 0,00 31/08/2021
1142 407900 CINTIA NETO COMELLI ANALISTA DO MP BELO HORIZONTE - COMARCA; CENTRAL DE APOIO TECNICO-SETOR CONTABIL 1.198,00 769,39 519,00 0,00 0,00 0,00 0,00 0,00 0,00 31/08/2021
1143 304700 CINTIA QUEIROZ OFICIAL DO MP BELO HORIZONTE - COMARCA; OUVIDORIA DO MPMG 1.198,00 0,00 519,00 0,00 0,00 0,00 0,00 0,00 0,00 31/08/2021
1144 163000 CINTIA ROBERTA GOMES DE LIMA PROMOTOR 2A ENTRANCIA VARGINHA - COMARCA; COORD REG PJ DEF EDUC DIR CRIANCA ADOL SUL 1.198,00 0,00 1.779,97 0,00 0,00 0,00 0,00 0,00 0,00 31/08/2021
1145 286100 CIRO CANGUSSU CORDEIRO OFICIAL DO MP IPATINGA - COMARCA; IPATINGA-PJ-09PJ 1.198,00 0,00 519,00 0,00 0,00 0,00 0,00 0,00 0,00 31/08/2021
1146 689900 CISSA NOGUEIRA NUNES ASSESSOR PROCURADOR JUSTICA BELO HORIZONTE - COMARCA; GABINETE DE PROCURADOR DE JUSTIÇA - SALA 608 1.198,00 0,00 519,00 0,00 0,00 0,00 0,00 0,00 0,00 31/08/2021
1147 1086300 CLARA ALEXANDRINA DOS SANTOS ESTAGIARIO BETIM; BETIM-PJ-13PJ 0,00 0,00 0,00 90,00 0,00 0,00 0,00 0,00 0,00 31/08/2021
1148 1185600 CLARA DE SALES DUARTE ESTAGIARIO BELO HORIZONTE; GABINETE DE PROCURADOR DE JUSTIÇA - SALA 305 0,00 0,00 0,00 63,00 0,00 0,00 0,00 0,00 0,00 31/08/2021
1149 681700 CLARA FERREIRA ALKIMIM ASSESSOR PROMOTOR JUSTICA ARAÇUAÍ - COMARCA; ARACUAI-PJ-01PJ 1.198,00 0,00 519,00 0,00 0,00 0,00 0,00 0,00 0,00 31/08/2021
1150 1163800 CLARA GABRIELA GOUVEIA MONTEIRO ESTAGIARIO BELO HORIZONTE; BH-18PJ VIOLENCIA DOMESTICA 0,00 0,00 0,00 108,00 0,00 0,00 0,00 0,00 0,00 31/08/2021
1151 1157100 CLARA ISABELLE SOUSA FARIA ESTAGIARIO BELO HORIZONTE; PROC. JUSTICA DE HABEAS CORPUS
1152 1095900 CLARA LAENDER GAZZINELLI ESTAGIARIO BELO HORIZONTE; PROC. JUSTICA DE HABEAS CORPUS
1153 1261100 CLARA LIMA LIPOVETSKY ESTAGIARIO BELO HORIZONTE; CORREGEDORIA-GERAL
1154 484900 CLARA MARIA HOEHNE SEPULVEDA PROMOT.ENTRANC.ESPECIAL SETE LAGOAS - COMARCA; SETE LAGOAS-PJ-09PJ 1.198,00 0,00 2.921,23 0,00 5.614,85 0,00 0,00 0,00 514,69 31/08/2021
1155 1157800 CLARA MARIA RODRIGUES DA SILVA ESTAGIARIO BELO HORIZONTE; BH-08PJ JUIZADO ESPECIAL-GAB 071PJ 0,00 0,00 0,00 72,00 0,00 0,00 0,00 0,00 0,00 31/08/2021
1156 695500 CLARA RODRIGUES BLACH ASSESSOR PROCURADOR JUSTICA BELO HORIZONTE - COMARCA; GABINETE DE PROCURADOR DE JUSTIÇA - SALA 1003 1.198,00 0,00 519,00 0,00 0,00 0,00 0,00 0,00 0,00 31/08/2021
1157 1324500 CLARA VIEIRA DE REZENDE ESTAGIARIO BELO HORIZONTE; PROC. JUSTICA DIR. DIFUSOS E COLETIVOS 0,00 0,00 0,00 36,00 0,00 0,00 0,00 0,00 0,00 31/08/2021
1158 412500 CLARICE GOMES MAROTTA ANALISTA DO MP BELO HORIZONTE - COMARCA; COORD ESTADUAL DE DEFESA DOS ANIMAIS 1.198,00 0,00 519,00 0,00 0,00 0,00 0,00 0,00 0,00 31/08/2021
1159 1134500 CLARISSA ALVES DA SILVA ESTAGIARIO TEOFILO OTONI; TEOFILO OTONI-PJ-05PJ 0,00 0,00 0,00 207,00 0,00 0,00 0,00 0,00 0,00 31/08/2021
1160 605300 CLARISSA AZEVEDO ROCHA OFICIAL DO MP BELO HORIZONTE - COMARCA; DIRET DE DESENV DE RECURSOS HUMANOS-DDRH 1.198,00 0,00 519,00 0,00 0,00 0,00 0,00 0,00 0,00 31/08/2021
1161 1059700 CLARISSA BRANDAO FREITAS ESTAGIARIO BELO HORIZONTE; BH-07PJ 01 TRIBUNAL JURI-SECRETARIA 0,00 0,00 0,00 135,00 0,00 0,00 0,00 0,00 0,00 31/08/2021
1162 308100 CLARISSA DUARTE BELLONI DIRETOR/ANALISTA BELO HORIZONTE - COMARCA; DIRETORIA-GERAL 1.198,00 2.307,08 519,00 0,00 0,00 0,00 0,00 0,00 0,00 31/08/2021
1163 402100 CLARISSA GOBBO DOS SANTOS PROMOT.ENTRANC.ESPECIAL RIBEIRÃO DAS NEVES - COMARCA; RIBEIRAO DAS NEVES-PJ-04PJ 1.198,00 0,00 3.368,91 0,00 12.352,67 0,00 0,00 0,00 514,69 31/08/2021
1164 497100 CLARISSA ROCHA GUIDI ANALISTA DO MP BELO HORIZONTE - COMARCA; BH-02PJ FAMILIA-SECRETARIA 1.198,00 1.538,78 519,00 0,00 0,00 0,00 0,00 0,00 1.073,61 31/08/2021
1165 661600 CLARISSE PEREZ DO NASCIMENTO NASCIF MENDES PROMOTOR 1A ENTRANCIA PIRANGA - COMARCA; PIRANGA-PJ-UNPJ 1.198,00 0,00 3.040,44 0,00 5.067,40 0,00 0,00 0,00 464,51 31/08/2021
1166 641800 CLARISSE TAVARES GONCALVES OFICIAL DO MP BELO HORIZONTE - COMARCA; BH-07PJ 01 TRIBUNAL JURI-SECRETARIA 1.198,00 0,00 519,00 0,00 0,00 0,00 0,00 0,00 0,00 31/08/2021
1167 463700 CLAUDIA ADRIANA FERRAO DIAS ANALISTA DO MP SETE LAGOAS - COMARCA; SETE LAGOAS-PJ-06PJ 1.198,00 0,00 519,00 0,00 0,00 0,00 0,00 0,00 0,00 31/08/2021
1168 415400 CLAUDIA ALMEIDA DE VASCONCELLOS BARROS ASSESSOR/OFICIAL BELO HORIZONTE - COMARCA; DIVISAO DE SERVICOS 1.198,00 0,00 519,00 0,00 0,00 0,00 0,00 0,00 0,00 31/08/2021
1169 207000 CLAUDIA APARECIDA VILELA MACHADO ANALISTA DO MP BELO HORIZONTE - COMARCA; CENTRAL DE APOIO TECNICO-SETOR CONTABIL 1.198,00 0,00 519,00 0,00 0,00 0,00 0,00 0,00 0,00 31/08/2021
1170 314400 CLAUDIA AUGUSTA LOPES DE MENDONCA PROMOT.ENTRANC.ESPECIAL BELO HORIZONTE - COMARCA; BH-09PJ AUDITORIA MILITAR-GAB 074PJ 1.198,00 0,00 3.368,91 0,00 5.614,85 0,00 0,00 0,00 514,69 31/08/2021
1171 365700 CLAUDIA BREGUEZ CUNHA ANALISTA DO MP VARGINHA - COMARCA; VARGINHA-PJ-07PJ 1.198,00 0,00 519,00 0,00 0,00 0,00 0,00 0,00 0,00 31/08/2021
1172 430500 CLAUDIA CECILIA SANTANA VENCESLAU OFICIAL DO MP BELO HORIZONTE - COMARCA; DIRETORIA DE INTELIGENCIA 1.198,00 0,00 519,00 0,00 0,00 0,00 0,00 0,00 0,00 31/08/2021
1173 112400 CLAUDIA CRISTINA FIUZA DE AVELAR AGENTE DO MP BELO HORIZONTE - COMARCA; SERVICO MEDICO-DEPTO PERIC MEDICA SAUDE OCUP 1.198,00 0,00 519,00 0,00 0,00 0,00 0,00 0,00 0,00 31/08/2021
1174 98300 CLAUDIA DE OLIVEIRA IGNEZ PROMOTOR 2A ENTRANCIA NOVA LIMA - COMARCA; NOVA LIMA-PJ-01PJ 1.198,00 0,00 1.193,88 0,00 5.334,11 0,00 0,00 0,00 488,96 31/08/2021
1175 167300 CLAUDIA DO AMARAL XAVIER PROMOT.ENTRANC.ESPECIAL BELO HORIZONTE - COMARCA; BH-18PJ DIREITOS HUMANOS 1.198,00 0,00 2.896,79 0,00 5.614,85 0,00 0,00 0,00 514,69 31/08/2021
1176 1270500 CLAUDIA DUARTE DE MELO ESTAGIARIO 0,00 0,00 0,00 108,00 0,00 0,00 0,00 0,00 0,00 31/08/2021
1177 163100 CLAUDIA FERREIRA DE SOUZA PROMOT.ENTRANC.ESPECIAL BELO HORIZONTE - COMARCA; BH-02PJ FAMILIA-GAB 035PJ 1.198,00 0,00 1.823,37 0,00 5.614,85 0,00 0,00 0,00 514,69 31/08/2021
1178 174500 CLAUDIA FERREIRA PACHECO DE FREITAS PROMOT.ENTRANC.ESPECIAL BELO HORIZONTE - COMARCA; SECRETARIA-GERAL-GABINETE 1.198,00 0,00 3.125,80 0,00 5.614,85 0,00 0,00 0,00 514,69 31/08/2021
1179 167200 CLAUDIA FREDDO MARQUES CARVALHO PROMOT.ENTRANC.ESPECIAL UBERABA - COMARCA; COORD REG SAUDE MACROR SANIT TRIANGULO SUL 1.198,00 0,00 2.460,37 0,00 33.689,11 0,00 0,00 0,00 3.088,17 31/08/2021
1180 480400 CLAUDIA GOULART DE SOUZA OFICIAL DO MP PASSOS - COMARCA; PASSOS-PJ-06PJ 1.198,00 0,00 519,00 0,00 0,00 0,00 0,00 0,00 0,00 31/08/2021
1181 519800 CLAUDIA HELENA CORREA DE ALMEIDA ANALISTA DO MP BELO HORIZONTE - COMARCA; BH-12PJ JUIZO CRIMINAL-GAB 096PJ 1.198,00 0,00 519,00 0,00 0,00 0,00 0,00 0,00 0,00 31/08/2021
1182 422100 CLAUDIA IACOMINI CABRAL ANALISTA DO MP BELO HORIZONTE - COMARCA; CENT DE APOIO TEC-SETOR DEF,IDOSO E INFANC 1.198,00 0,00 519,00 0,00 0,00 0,00 0,00 0,00 0,00 31/08/2021
1183 258200 CLAUDIA LAGE MICHALAROS ANALISTA DO MP BELO HORIZONTE - COMARCA; CENTRAL DE APOIO TECN-SETOR DE MEIO AMBIENTE 1.198,00 0,00 519,00 0,00 0,00 0,00 0,00 0,00 0,00 31/08/2021
1184 284600 CLAUDIA LENI DE FREITAS OFICIAL DO MP CONTAGEM - COMARCA; CONTAGEM-PJ-SECRETARIA 1.198,00 0,00 519,00 0,00 0,00 0,00 0,00 0,00 0,00 31/08/2021
1185 175200 CLAUDIA LOPES SILVA SCIOLI PROMOT.ENTRANC.ESPECIAL POUSO ALEGRE - COMARCA; POUSO ALEGRE-PJ-07PJ 1.198,00 0,00 2.865,30 0,00 5.614,85 0,00 0,00 0,00 514,69 31/08/2021
1186 433600 CLAUDIA LUIZA SANTIAGO FELICIO ANALISTA DO MP BELO HORIZONTE - COMARCA; CENT DE APOIO TEC-SETOR DEF,IDOSO E INFANC 1.198,00 0,00 519,00 0,00 0,00 0,00 0,00 0,00 0,00 31/08/2021
1187 317000 CLAUDIA MACHADO ALVES ASSESSOR/OFICIAL BELO HORIZONTE - COMARCA; DIR GOVERNANCA TECNOLOGIA INFORMACAO 1.198,00 0,00 519,00 0,00 0,00 0,00 0,00 0,00 0,00 31/08/2021
1188 155300 CLAUDIA MACIEL MIRANDA OFICIAL DO MP CONGONHAS - COMARCA; CONGONHAS-PJ-02PJ 1.198,00 0,00 519,00 0,00 0,00 0,00 0,00 0,00 0,00 31/08/2021
1189 242200 CLAUDIA MICHELLE DIAS MUNIZ BALEEIRO OFICIAL DO MP MONTE AZUL - COMARCA; MONTE AZUL-PJ-SECRETARIA 1.198,00 0,00 519,00 0,00 0,00 0,00 0,00 0,00 0,00 31/08/2021
1190 236500 CLAUDIA NETO COMELLI PROMOT.ENTRANC.ESPECIAL BELO HORIZONTE - COMARCA; ESCOLA ESTADUAL DE DEFESA DO CONSUMIDOR 1.198,00 0,00 2.255,83 0,00 5.614,85 0,00 0,00 0,00 514,69 31/08/2021
1191 623000 CLAUDIA PATRICIA SILVA RODRIGUES RAPOSEIRAS OFICIAL DO MP PARÁ DE MINAS - COMARCA; PARA DE MINAS-PJ-02PJ 1.198,00 769,39 519,00 0,00 0,00 0,00 0,00 0,00 0,00 31/08/2021
1192 418400 CLAUDIA REGINA MARTINS BONIFACIO OFICIAL DO MP ITUIUTABA - COMARCA; ITUIUTABA-PJ-06PJ 1.198,00 0,00 519,00 0,00 0,00 0,00 0,00 0,00 0,00 31/08/2021
1193 498300 CLAUDIA SOUTO FARIAS BRAUN OFICIAL DO MP TEÓFILO OTONI - COMARCA; TEOFILO OTONI-PJ-SECRETARIA 1.198,00 0,00 519,00 0,00 0,00 0,00 0,00 0,00 0,00 31/08/2021
1194 79600 CLAUDIA SPRANGER E SILVA LUIZ MOTTA PROCURADOR DE JUSTICA BELO HORIZONTE - COMARCA; GABINETE DE PROCURADOR DE JUSTIÇA - SALA 706 1.198,00 0,00 1.193,88 0,00 5.910,37 0,00 0,00 0,00 541,78 31/08/2021
1195 206500 CLAUDIA VALERIA FONSECA ANDRADE ANALISTA DO MP BELO HORIZONTE - COMARCA; BH-23PJ INF-FISC MED SOC FEC 1.198,00 0,00 519,00 0,00 0,00 0,00 0,00 0,00 0,00 31/08/2021
1196 277500 CLAUDIO ANTONIO BORGES BRUNSWICK ALVARES OFICIAL DO MP BELO HORIZONTE - COMARCA; BH-15PJ M AMB 16PJ HAB URB-SECRETARIA 1.198,00 0,00 519,00 0,00 0,00 0,00 0,00 0,00 0,00 31/08/2021
1197 444800 CLAUDIO ARESIO DO CARMO ANALISTA DO MP SETE LAGOAS - COMARCA; SETE LAGOAS-PJ-01PJ 1.198,00 0,00 519,00 0,00 0,00 0,00 0,00 0,00 0,00 31/08/2021
1198 532100 CLAUDIO DANIEL FONSECA DE ALMEIDA PROMOTOR 2A ENTRANCIA MARIANA - COMARCA; MARIANA-PJ-02PJ 1.198,00 0,00 2.062,15 0,00 5.334,11 0,00 0,00 0,00 488,96 31/08/2021
1199 76700 CLAUDIO EMANUEL DA CUNHA PROCURADOR DE JUSTICA BELO HORIZONTE - COMARCA; GABINETE DE PROCURADOR DE JUSTIÇA - SALA 305 1.198,00 0,00 2.604,82 0,00 5.910,37 0,00 0,00 0,00 541,78 31/08/2021
1200 100500 CLAUDIO FERREIRA DE OLIVEIRA FILHO PROMOTOR 2A ENTRANCIA LAMBARI - COMARCA; LAMBARI-PJ-UNPJ 1.198,00 0,00 2.496,29 0,00 26.670,55 0,00 0,00 0,00 488,96 31/08/2021
1201 1098600 CLAUDIO HENRIQUE AMARAL DOS SANTOS ESTAGIARIO SANTA RITA DO SAPUCAI; SANTA RITA DO SAPUCAI-PJ-01PJ 0,00 0,00 0,00 99,00 0,00 0,00 0,00 0,00 0,00 31/08/2021
1202 545100 CLAUDIO HENRIQUE MACEDO DE SOUZA FRANSOZO ANALISTA DO MP OURO PRETO - COMARCA; OURO PRETO-PJ-03PJ 1.198,00 769,39 519,00 0,00 0,00 0,00 0,00 0,00 0,00 31/08/2021
1203 353500 CLAUDIO HENRIQUE PEDRO DA ROCHA OFICIAL DO MP BELO HORIZONTE - COMARCA; DIVISAO TRANSPORTES 1.198,00 0,00 519,00 0,00 0,00 0,00 0,00 0,00 2.925,63 31/08/2021
1204 265800 CLAUDIO KUPIDLOWSKY FERNANDES OFICIAL DO MP BELO HORIZONTE - COMARCA; SECRETARIA DO PROCON-MG 1.198,00 0,00 519,00 0,00 0,00 0,00 0,00 0,00 0,00 31/08/2021
1205 193600 CLAUDIO LEITE FONTES OFICIAL DO MP ITUIUTABA - COMARCA; ITUIUTABA-PJ-02PJ 1.198,00 0,00 519,00 0,00 0,00 0,00 0,00 0,00 0,00 31/08/2021
1206 102000 CLAUDIO LUIZ GONCALVES MARINS PROMOTOR 2A ENTRANCIA GUAXUPÉ - COMARCA; GUAXUPE-PJ-03PJ 1.198,00 0,00 2.387,76 0,00 16.002,33 0,00 0,00 0,00 488,96 31/08/2021
1207 163200 CLAUDIO MAIA DE BARROS PROMOT.ENTRANC.ESPECIAL BELO HORIZONTE - COMARCA; COORD EST PJ TRIBUNAL JURI 1.198,00 0,00 3.368,91 0,00 5.614,85 0,00 0,00 0,00 514,69 31/08/2021
1208 329400 CLAUDIO MARCIO BERNARDES OFICIAL DO MP ITAÚNA - COMARCA; ITAUNA-PJ-03PJ 1.198,00 769,39 519,00 0,00 0,00 0,00 0,00 0,00 0,00 31/08/2021
1209 1221400 CLAUDIO ODARHA NASCIMENTO ESTAGIARIO CURVELO; CURVELO-PJ-02PJ 0,00 0,00 0,00 117,00 0,00 0,00 0,00 0,00 0,00 31/08/2021
1210 270200 CLAUDIO RABELO ALVES OFICIAL DO MP FORMIGA - COMARCA; FORMIGA-PJ-03PJ 1.198,00 0,00 519,00 0,00 0,00 26,46 0,00 0,00 0,00 31/08/2021
1211 264700 CLAUDIO ROBERTO KFURI DE ARAUJO ANALISTA DO MP BELO HORIZONTE - COMARCA; CENTRAL DE APOIO TECNICO-SETOR DE INFORMATICA 1.198,00 0,00 519,00 0,00 0,00 0,00 0,00 0,00 0,00 31/08/2021
1212 188600 CLAUDIO SALES OFICIAL DO MP NEPOMUCENO - COMARCA; NEPOMUCENO-PJ-SECRETARIA 1.198,00 0,00 519,00 0,00 0,00 0,00 0,00 0,00 0,00 31/08/2021
1213 543300 CLAUDIO SILVA DE CARVALHO ANALISTA DO MP CAMPO BELO - COMARCA; CAMPO BELO-PJ-03PJ 1.198,00 0,00 519,00 0,00 0,00 0,00 0,00 0,00 0,00 31/08/2021
1214 144300 CLAUDIO VARELLA DE SOUZA PROCURADOR DE JUSTICA BELO HORIZONTE - COMARCA; GABINETE DE PROCURADOR DE JUSTIÇA - SALA 712 1.198,00 0,00 1.193,88 0,00 17.731,11 0,00 0,00 0,00 541,78 31/08/2021
1215 160700 CLAUDIO VICENTE HESS ASSESSOR BELO HORIZONTE - COMARCA; CENTRAL DE APOIO TECNICO-SETOR DE INFORMATICA 1.198,00 0,00 519,00 0,00 0,00 0,00 0,00 0,00 0,00 31/08/2021
1216 312900 CLAUDIO VIEIRA FIRPE OFICIAL DO MP BELO HORIZONTE - COMARCA; DIR RELACOES INSTITUCIONAIS 1.198,00 0,00 519,00 0,00 0,00 0,00 0,00 0,00 0,00 31/08/2021
1217 634100 CLEA CRISTINA GUERRA DE FREITAS COSTA OFICIAL DO MP BELO HORIZONTE - COMARCA; BH-18PJ VIOLENCIA DOMESTICA-SECRETARIA 1.198,00 769,39 519,00 0,00 0,00 0,00 0,00 0,00 0,00 31/08/2021
1218 244800 CLEBER AUGUSTO DO NASCIMENTO PROMOTOR 2A ENTRANCIA CAMPO BELO - COMARCA; CAMPO BELO-PJ-04PJ 1.198,00 0,00 2.029,27 0,00 5.334,11 0,00 0,00 0,00 488,96 31/08/2021
1219 439000 CLEBER COUTO PROMOT.ENTRANC.ESPECIAL PATOS DE MINAS - COMARCA; GAECO REGIONAL DE PATOS DE MINAS 1.198,00 0,00 2.892,88 0,00 5.614,85 0,00 0,00 0,00 514,69 31/08/2021
1220 459200 CLEIA ZILLE PEREIRA ANALISTA DO MP BELO HORIZONTE - COMARCA; BH-07PJ 01 TRIBUNAL JURI-SECRETARIA 1.198,00 0,00 519,00 0,00 0,00 0,00 0,00 0,00 0,00 31/08/2021
1221 481800 CLEIDE CARDOSO DA SILVA ANALISTA DO MP MANHUAÇU - COMARCA; MANHUACU-PJ-04PJ 1.198,00 0,00 519,00 0,00 0,00 0,00 0,00 0,00 0,00 31/08/2021
1222 225000 CLEIDE PEREIRA DA SILVA PROMOT.ENTRANC.ESPECIAL BELO HORIZONTE - COMARCA; BH-09PJ AUDITORIA MILITAR-GAB 161PJ 1.198,00 0,00 1.056,97 0,00 0,00 0,00 0,00 0,00 0,00 31/08/2021
1223 347600 CLEIDIMAR DE OLIVEIRA SILVA OFICIAL DO MP PATOS DE MINAS - COMARCA; PATOS DE MINAS-PJ-03PJ 1.198,00 0,00 519,00 0,00 0,00 0,00 0,00 0,00 0,00 31/08/2021
1224 396500 CLEIDISON BATISTA DE ANDRADE OFICIAL DO MP RESPLENDOR - COMARCA; RESPLENDOR-PJ-UNPJ 1.198,00 769,39 519,00 0,00 0,00 0,00 0,00 0,00 0,00 31/08/2021
1225 535100 CLEISON ALVES DA SILVA ANALISTA DO MP BOA ESPERANÇA - COMARCA; BOA ESPERANCA-PJ-01PJ 1.198,00 0,00 519,00 0,00 0,00 0,00 0,00 0,00 0,00 31/08/2021
1226 1227700 CLEITON EDUARDO BRANDAO DA SILVA ESTAGIARIO OLIVEIRA; OLIVEIRA-PJ-02PJ 0,00 0,00 0,00 198,00 0,00 0,00 0,00 0,00 0,00 31/08/2021
1227 298100 CLEONICE AUGUSTA BARROS DE OLIVEIRA ANALISTA DO MP JUIZ DE FORA - COMARCA; JUIZ DE FORA-PJ-08PJ 1.198,00 0,00 519,00 0,00 0,00 0,00 0,00 0,00 0,00 31/08/2021
1228 264100 CLETO HENRIQUE ANDRADE SILVA ANALISTA DO MP BELO HORIZONTE - COMARCA; DIRETORIA DE SISTEMAS DE INFORMACAO 1.198,00 0,00 519,00 0,00 941,38 0,00 0,00 0,00 86,29 31/08/2021
1229 334400 CLEUBA DE OLIVEIRA BARCELOS GONCALVES OFICIAL DO MP DIVINÓPOLIS - COMARCA; COORD REG SAUDE MACRORREGIAO SANITARIA OESTE 1.198,00 0,00 519,00 0,00 0,00 0,00 0,00 0,00 0,00 31/08/2021
1230 347500 CLEUSA CORDEIRO DA MATA PIMENTA OFICIAL DO MP CAMPO BELO - COMARCA; CAMPO BELO-PJ-01PJ 1.198,00 0,00 519,00 0,00 0,00 0,00 0,00 0,00 0,00 31/08/2021
1231 92400 CLEVERSON RAYMUNDO SBARZI GUEDES PROMOT.ENTRANC.ESPECIAL JUIZ DE FORA - COMARCA; JUIZ DE FORA-PJ-14PJ 1.198,00 0,00 3.147,49 0,00 16.844,55 0,00 0,00 0,00 514,69 31/08/2021
1232 675000 CLEVERTON FRANCISCO GONCALVES DA SILVA 1O.TENENTE 1.198,00 0,00 0,00 0,00 0,00 0,00 0,00 0,00 0,00 31/08/2021
1233 1231400 CLEYSON THIAGO PEREIRA COELHO ESTAGIARIO VICOSA; VICOSA-PJ-03PJ 0,00 0,00 0,00 207,00 0,00 0,00 0,00 0,00 0,00 31/08/2021
1234 510200 CLEZIO SALES SILVA OFICIAL DO MP BRASÓPOLIS - COMARCA; BRASOPOLIS-PJ-UNPJ 1.198,00 1.538,78 519,00 0,00 0,00 1.092,42 0,00 0,00 0,00 31/08/2021
1235 323000 CLOTILDE DE PADUA VIEIRA OFICIAL DO MP BELO HORIZONTE - COMARCA; BH-19PJ SAUDE-SECRETARIA 129PJ 1.198,00 0,00 519,00 0,00 0,00 0,00 0,00 0,00 0,00 31/08/2021
1236 285200 CLOVIS ANDRE LUDTKE OFICIAL DO MP BELO HORIZONTE - COMARCA; DIVISAO DE MANUTENCAO PREDIAL 1.198,00 0,00 519,00 0,00 0,00 0,00 0,00 0,00 0,00 31/08/2021
1237 381100 CONCEICAO APARECIDA TEIXEIRA ARANTES ANALISTA DO MP BELO HORIZONTE - COMARCA; BH-23PJ INFRACIONAL-ASS JURIDICA 1.198,00 0,00 519,00 0,00 0,00 0,00 0,00 0,00 0,00 31/08/2021
1238 1031700 CONRADO FIGUEIREDO ALMEIDA ESTAGIARIO SAO FRANCISCO; SAO FRANCISCO-PJ-01PJ
1239 249900 CONSTANTINO CEZAR GOMES MOTA OFICIAL DO MP MONTES CLAROS - COMARCA; COORD REG BACIA RIOS VERDE GRANDE E PARDO 1.198,00 0,00 519,00 0,00 0,00 0,00 0,00 0,00 0,00 31/08/2021
1240 594800 COSME COELHO TEIXEIRA 3O.SARGENTO BELO HORIZONTE - COMARCA; NUCLEO DE CONTRAINTELIGENCIA 1.198,00 0,00 0,00 0,00 0,00 0,00 0,00 0,00 0,00 31/08/2021
1241 481000 CRISHMA ANALIA LOMBELLO ANALISTA DO MP JUIZ DE FORA - COMARCA; JUIZ DE FORA-PJ-13PJ 1.198,00 0,00 519,00 0,00 0,00 0,00 0,00 0,00 0,00 31/08/2021
1242 523900 CRISTHYANE BAZOLI COSTA GUEDES COUTO OFICIAL DO MP BELO HORIZONTE - COMARCA; BH-04PJ JUIZO REG PÚBLICOS-SECRETARIA 1.198,00 0,00 519,00 0,00 0,00 0,00 0,00 0,00 0,00 31/08/2021
1243 187000 CRISTIAN DAYVSON EVANGELISTA OFICIAL DO MP JUIZ DE FORA - COMARCA; JUIZ DE FORA-PJ-13PJ 1.198,00 0,00 519,00 0,00 0,00 0,00 0,00 0,00 0,00 31/08/2021
1244 245000 CRISTIAN LUCIO DA SILVA PROMOT.ENTRANC.ESPECIAL BELO HORIZONTE - COMARCA; BH-07PJ 03 TRIBUNAL DO JURI-GAB 064PJ 1.198,00 0,00 2.691,66 0,00 5.614,85 0,00 0,00 0,00 514,69 31/08/2021
1245 682100 CRISTIAN TRISTAO DE ANDRADE ASSESSOR PROMOTOR JUSTICA TRÊS CORACOES - COMARCA; TRES CORACOES-PJ-04PJ 1.198,00 0,00 519,00 0,00 0,00 0,00 0,00 0,00 0,00 31/08/2021
1246 319800 CRISTIANA GONCALVES DOS SANTOS GUSMAO OFICIAL DO MP PARAOPEBA - COMARCA; PARAOPEBA-PJ-UNPJ 1.198,00 0,00 519,00 0,00 0,00 0,00 0,00 0,00 0,00 31/08/2021
1247 520600 CRISTIANA JANAINA BARBOZA JUVENCIO DOS SANTOS ANALISTA DO MP BELO HORIZONTE - COMARCA; BH-02PJ FAMILIA-SECRETARIA 1.198,00 0,00 519,00 0,00 0,00 0,00 0,00 0,00 0,00 31/08/2021
1248 195600 CRISTIANA SOARES HALABI OFICIAL DO MP UBERABA - COMARCA; UBERABA-PJ-01PJ 1.198,00 0,00 519,00 0,00 0,00 0,00 0,00 0,00 0,00 31/08/2021
1249 218900 CRISTIANE ALVES BELLES OFICIAL DO MP JUIZ DE FORA - COMARCA; JUIZ DE FORA-PJ-10PJ 1.198,00 1.153,54 519,00 0,00 0,00 0,00 0,00 0,00 0,00 31/08/2021
1250 1212300 CRISTIANE APARECIDA CALDEIRA SILVA ESTAGIARIO CONTAGEM; CONTAGEM-PJ-09PJ 0,00 0,00 0,00 81,00 0,00 0,00 0,00 0,00 0,00 31/08/2021
1251 291600 CRISTIANE CAMPOS AMORIM BARONY PROMOTOR 2A ENTRANCIA CARANGOLA - COMARCA; CARANGOLA-PJ-03PJ 1.198,00 0,00 2.728,24 0,00 20.269,62 0,00 0,00 0,00 488,96 31/08/2021
1252 263600 CRISTIANE CARVALHO COUTINHO OFICIAL DO MP BELO HORIZONTE - COMARCA; BH-23PJ INFRACIONAL-SEC EXP 1.198,00 0,00 519,00 0,00 0,00 0,00 0,00 0,00 0,00 31/08/2021
1253 541000 CRISTIANE COELHO ALVES OFICIAL DO MP ITABIRA - COMARCA; ITABIRA-PJ-03PJ 1.198,00 0,00 519,00 0,00 0,00 0,00 0,00 0,00 0,00 31/08/2021
1254 441700 CRISTIANE CORRADO DE ANDRADE ANALISTA DO MP BELO HORIZONTE - COMARCA; DIRETORIA DE SISTEMAS DE INFORMACAO 1.198,00 0,00 519,00 0,00 0,00 0,00 0,00 0,00 0,00 31/08/2021
1255 1304100 CRISTIANE DA CONCEICAO FERREIRA ESTAGIARIO JABOTICATUBAS; JABOTICATUBAS-PJ-UNPJ 0,00 0,00 0,00 207,00 0,00 0,00 0,00 0,00 0,00 31/08/2021
1256 375100 CRISTIANE DAS DORES ERCIO DE LIMA OFICIAL DO MP GOVERNADOR VALADARES - COMARCA; COOR REG APOIO COM INC MOB VALE DO RIO DOCE 1.198,00 0,00 519,00 0,00 0,00 0,00 0,00 0,00 0,00 31/08/2021
1257 1163300 CRISTIANE DE FREITAS SOARES ESTAGIARIO MANHUACU; MANHUACU-PJ-02PJ 0,00 0,00 0,00 180,00 0,00 0,00 0,00 0,00 0,00 31/08/2021
1258 178800 CRISTIANE DE LIMA HOSKEN OFICIAL DO MP BELO HORIZONTE - COMARCA; BH-14PJ DEFESA CONSUMIDOR-GAB 110PJ 1.198,00 0,00 519,00 0,00 0,00 0,00 0,00 0,00 0,00 31/08/2021
1259 494000 CRISTIANE DE MELO MARQUEZ OLIVEIRA ANALISTA DO MP UBERLÂNDIA - COMARCA; UBERLANDIA-PJ-06PJ 1.198,00 1.538,78 519,00 0,00 0,00 0,00 0,00 0,00 2.217,12 31/08/2021
1260 266100 CRISTIANE DE OLIVEIRA CASTRO OFICIAL DO MP BELO HORIZONTE - COMARCA; BH-14PJ DEFESA CONSUMIDOR-SECRETARIA 1.198,00 0,00 519,00 0,00 0,00 0,00 1.445,27 0,00 0,00 31/08/2021
1261 329500 CRISTIANE DOS REIS SILVA OFICIAL DO MP ARAXÁ - COMARCA; ARAXA-PJ-04PJ 1.198,00 0,00 519,00 0,00 0,00 0,00 0,00 0,00 0,00 31/08/2021
1262 301600 CRISTIANE GODINHO PIRES ANALISTA DO MP BETIM - COMARCA; BETIM-PJ-06PJ 1.198,00 0,00 519,00 0,00 0,00 0,00 0,00 0,00 0,00 31/08/2021
1263 406100 CRISTIANE GONCALVES CHAVES ANALISTA DO MP BELO HORIZONTE - COMARCA; BH-14PJ DEFESA CONSUMIDOR-GAB 112PJ 1.198,00 0,00 519,00 0,00 0,00 0,00 0,00 0,00 0,00 31/08/2021
1264 487600 CRISTIANE LOPES DE OLIVEIRA OFICIAL DO MP DIVINÓPOLIS - COMARCA; DIVINOPOLIS-PJ-03PJ 1.198,00 0,00 519,00 0,00 0,00 0,00 0,00 0,00 1.837,14 31/08/2021
1265 502500 CRISTIANE MACIEL DE OLIVEIRA GOMES ANALISTA DO MP JUIZ DE FORA - COMARCA; JUIZ DE FORA-PJ-05PJ 1.198,00 769,39 519,00 0,00 0,00 0,00 0,00 0,00 1.006,96 31/08/2021
1266 285500 CRISTIANE MAGALHAES LOURENCO ANALISTA DO MP BELO HORIZONTE - COMARCA; CENTRAL DE APOIO TECNICO-SETOR CONTABIL 1.198,00 0,00 519,00 0,00 0,00 0,00 0,00 0,00 0,00 31/08/2021
1267 536500 CRISTIANE MICHELE DE SOUZA ANALISTA DO MP BARÃO DE COCAIS - COMARCA; BARAO DE COCAIS-PJ-UNPJ 1.198,00 769,39 519,00 0,00 0,00 0,00 0,00 0,00 0,00 31/08/2021
1268 346600 CRISTIANE NOGUEIRA ANDRADE ANALISTA DO MP BELO HORIZONTE - COMARCA; CENTRAL DE APOIO TECNICO-SETOR CONTABIL 1.198,00 0,00 519,00 0,00 0,00 0,00 0,00 0,00 0,00 31/08/2021
1269 234000 CRISTIANE OLIVEIRA TOSTES OFICIAL DO MP JUIZ DE FORA - COMARCA; JUIZ DE FORA-PJ-08PJ 1.198,00 769,39 519,00 0,00 0,00 0,00 0,00 0,00 0,00 31/08/2021
1270 445800 CRISTIANE ORZIL COSTA OFICIAL DO MP SANTA LUZIA - COMARCA; SANTA LUZIA-PJ-05PJ 1.198,00 769,39 519,00 0,00 0,00 0,00 0,00 0,00 0,00 31/08/2021
1271 616100 CRISTIANE PAES RODRIGUES MARCICANO ANALISTA DO MP CATAGUASES - COMARCA; CATAGUASES-PJ-05PJ 1.198,00 1.538,78 519,00 0,00 0,00 0,00 0,00 0,00 0,00 31/08/2021
1272 1110700 CRISTIANE PIRES DAMASCENO ESTAGIARIO ITURAMA; ITURAMA-PJ-02PJ 0,00 0,00 0,00 207,00 0,00 0,00 0,00 0,00 0,00 31/08/2021
1273 612300 CRISTIANE RIBEIRO DOS REIS ARCANJO OFICIAL DO MP BELO HORIZONTE - COMARCA; DIRETORIA DE PAGAMENTO DE PESSOAL-DPAG
1274 257700 CRISTIANE RODRIGUES PAES NUNES ANALISTA DO MP BELO HORIZONTE - COMARCA; BH-22PJ PES COM DEF E IDOSOS-ORIENTACAO PSIC 1.198,00 769,39 519,00 0,00 0,00 0,00 0,00 0,00 0,00 31/08/2021
1275 510800 CRISTIANE SANTOS FERNANDES ORNELES ANALISTA DO MP BELO HORIZONTE - COMARCA; BH-03PJ EMPRESARIAL-SECRETARIA 1.198,00 0,00 519,00 0,00 0,00 0,00 0,00 0,00 0,00 31/08/2021
1276 535701 CRISTIANE SANTOS MIRANDA ANALISTA DO MP CONTAGEM - COMARCA; CONTAGEM-PJ-20PJ 1.198,00 0,00 519,00 0,00 0,00 0,00 0,00 0,00 0,00 31/08/2021
1277 163400 CRISTIANO CASSIOLATO PROMOTOR 1A ENTRANCIA CARMO DO RIO CLARO - COMARCA; CARMO DO RIO CLARO-PJ-UNPJ 1.198,00 0,00 3.040,44 0,00 15.202,21 0,00 0,00 0,00 464,51 31/08/2021
1278 484000 CRISTIANO CESAR PIMENTA DAYRELL DA CUNHA PROMOT.ENTRANC.ESPECIAL SETE LAGOAS - COMARCA; SETE LAGOAS-PJ-01PJ 1.198,00 0,00 2.789,82 0,00 16.844,55 0,00 0,00 0,00 514,69 31/08/2021
1279 299901 CRISTIANO DA COSTA MATA PROMOT.ENTRANC.ESPECIAL IPATINGA - COMARCA; COORD REG SAUDE MACRORREGIAO SANIT VALE ACO 1.198,00 0,00 2.648,24 0,00 5.614,85 0,00 0,00 0,00 514,69 31/08/2021
1280 536200 CRISTIANO DE OLIVEIRA ANALISTA DO MP CONCEIÇÃO DO MATO DENTRO - COMARCA; CONCEICAO DO MATO DENTRO-PJ-UNPJ 1.198,00 769,39 519,00 0,00 0,00 0,00 0,00 0,00 0,00 31/08/2021
1281 675100 CRISTIANO GERALDO CUNHA CABO BELO HORIZONTE - COMARCA; GAECO - SECRETARIA 1.198,00 0,00 0,00 0,00 0,00 0,00 0,00 0,00 0,00 31/08/2021
1282 440000 CRISTIANO MOREIRA SILVA PROMOTOR 2A ENTRANCIA CAPELINHA - COMARCA; CAPELINHA-PJ-02PJ 1.198,00 0,00 2.062,15 0,00 16.002,33 0,00 0,00 0,00 488,96 31/08/2021
1283 167400 CRISTIANO ROCHA GAZAL PROMOTOR 1A ENTRANCIA CAMBUQUIRA - COMARCA; CAMBUQUIRA-PJ-UNPJ 1.198,00 0,00 1.953,62 0,00 5.067,40 0,00 0,00 0,00 464,51 31/08/2021
1284 477400 CRISTIANO SOARES ELEUTERIO ANALISTA DO MP BELO HORIZONTE - COMARCA; BH-17PJ PATRIMONIO PUBLICO-SECRETARIA 1.198,00 0,00 519,00 0,00 0,00 0,00 0,00 0,00 0,00 31/08/2021
1285 449400 CRISTIANO TEIXEIRA RODRIGUES LANA ANALISTA DO MP BELO HORIZONTE - COMARCA; EXTINTA-COORD EST DEF DIR FAM PES DEFIC IDOSO 1.198,00 0,00 519,00 0,00 0,00 0,00 0,00 0,00 0,00 31/08/2021
1286 106600 CRISTINA BECHARA KALLAS PROMOTOR 2A ENTRANCIA PASSOS - COMARCA; PASSOS-PJ-03PJ 1.198,00 0,00 2.496,29 0,00 5.334,11 0,00 0,00 0,00 488,96 31/08/2021
1287 239400 CRISTINA DE FATIMA CRUZ E SILVA OFICIAL DO MP MONTE SANTO DE MINAS - COMARCA; MONTE SANTO DE MINAS-PJ-SECRETARIA 1.198,00 0,00 519,00 0,00 0,00 0,00 0,00 0,00 0,00 31/08/2021
1288 544000 CRISTINA DE OLIVEIRA TERRA ANALISTA DO MP BELO HORIZONTE - COMARCA; BH-18PJ VIOLENCIA DOMESTICA 1.198,00 0,00 519,00 0,00 0,00 0,00 0,00 0,00 0,00 31/08/2021
1289 356800 CRISTINA DE PINHO BARROSO OFICIAL DO MP SABINÓPOLIS - COMARCA; SABINOPOLIS-PJ-UNPJ 1.198,00 0,00 519,00 0,00 0,00 0,00 0,00 0,00 0,00 31/08/2021
1290 649500 CRISTINA DO DIVINO ESPIRITO SANTOS OFICIAL DO MP DIVINÓPOLIS - COMARCA; DIVINOPOLIS-PJ-12PJ 1.198,00 0,00 519,00 0,00 0,00 0,00 0,00 0,00 0,00 31/08/2021
1291 218500 CRISTINA FAGUNDES SIQUEIRA PROMOTOR 2A ENTRANCIA ARAGUARI - COMARCA; ARAGUARI-PJ-04PJ 1.198,00 0,00 3.200,47 0,00 5.334,11 0,00 0,00 0,00 488,96 31/08/2021
1292 484500 CRISTINA FERREIRA LABARRERE NASCIMENTO PROMOTOR SUBSTITUTO CONTAGEM - COMARCA; CONTAGEM-PJ-11PJ 1.198,00 0,00 1.779,96 0,00 5.067,40 0,00 0,00 0,00 464,51 31/08/2021
1293 348201 CRISTINA MARIA DA SILVA ANALISTA DO MP ARAXÁ - COMARCA; ARAXA-PJ-06PJ 1.198,00 743,74 519,00 0,00 0,00 0,00 0,00 0,00 0,00 31/08/2021
1294 434900 CRISTINA MELO DE MADUREIRA ANALISTA DO MP BELO HORIZONTE - COMARCA; BH-07PJ 01 TRIBUNAL JURI-SECRETARIA 1.198,00 0,00 519,00 0,00 0,00 0,00 0,00 0,00 0,00 31/08/2021
1295 307700 CRISTINA TEIXEIRA MARQUES OFICIAL DO MP BELO HORIZONTE - COMARCA; CENTRAL DE APOIO TECNICO-SETOR CONTABIL 1.198,00 0,00 519,00 0,00 0,00 0,00 0,00 0,00 0,00 31/08/2021
1296 58700 CRISTOVAM JOAQUIM FERNANDES RAMOS FILHO PROCURADOR DE JUSTICA BELO HORIZONTE - COMARCA; PROC JUST ESP ACOES COMP ORIG CRIMINAL 0,00 0,00 1.302,41 0,00 0,00 0,00 0,00 0,00 0,00 31/08/2021
1297 265300 CRISTOVAO SANCHES DE MEDEIROS ANALISTA DO MP BELO HORIZONTE - COMARCA; DIRETORIA DE CONTABILIDADE 1.198,00 0,00 519,00 0,00 0,00 0,00 0,00 0,00 0,00 31/08/2021
1298 349800 CROZEIR LUIZ DA SILVA OFICIAL DO MP UNAÍ - COMARCA; UNAI-PJ-SECRETARIA 1.198,00 0,00 519,00 0,00 0,00 1.506,33 0,00 0,00 0,00 31/08/2021
1299 490500 CYNTHIA CRISTINA DE SOUZA OLIVEIRA VALENTE ANALISTA DO MP BELO HORIZONTE - COMARCA; BH-09PJ AUDITORIA MILITAR-SECRETARIA 1.198,00 0,00 519,00 0,00 0,00 0,00 0,00 0,00 2.013,92 31/08/2021
1300 344200 CYNTHIA DUARTE VILELA PROMOTOR 2A ENTRANCIA SABARÁ - COMARCA; SABARA-PJ-03PJ 1.198,00 0,00 3.200,47 0,00 11.735,04 0,00 0,00 0,00 488,96 31/08/2021
1301 389800 CYNTHIA GARIGLIO DOS SANTOS OFICIAL DO MP PERDIZES - COMARCA; PERDIZES-PJ-SECRETARIA 1.198,00 769,39 519,00 0,00 0,00 0,00 0,00 0,00 0,00 31/08/2021
1302 335101 CYNTHIA GONTIJO D ASSUNCAO ANALISTA DO MP BELO HORIZONTE - COMARCA; FEPDC-SECRETARIA EXECUTIVA 1.198,00 769,39 519,00 0,00 0,00 0,00 0,00 0,00 0,00 31/08/2021
1303 223600 CYNTHIA MARIA DOS SANTOS SILVA JORGE PROMOT.ENTRANC.ESPECIAL BELO HORIZONTE - COMARCA; BH-13PJ JUIZO DE TOXICOS-GAB 011PJ 1.198,00 0,00 2.539,71 0,00 22.459,40 0,00 0,00 0,00 514,69 31/08/2021
1304 531200 CYNTIA CAMPOS GIRO PROMOTOR 2A ENTRANCIA PONTE NOVA - COMARCA; PONTE NOVA-PJ-05PJ 1.198,00 0,00 1.628,01 0,00 0,00 0,00 0,00 0,00 0,00 31/08/2021
1305 269700 CYNTIA ROCHA CAVALCANTI OFICIAL DO MP UBERLÂNDIA - COMARCA; UBERLANDIA-PJ-06PJ 1.198,00 769,39 519,00 0,00 0,00 0,00 0,00 0,00 0,00 31/08/2021
1306 1276900 DAFINE EMILE ARAUJO ESTAGIARIO BELO HORIZONTE; DIRETORIA DE PRODUCAO EDITORIAL
1307 1282500 DAIANA APARECIDA DE JESUS DA SILVA ESTAGIARIO MURIAE; MURIAE-PJ-SECRETARIA 0,00 0,00 0,00 126,00 0,00 0,00 0,00 0,00 0,00 31/08/2021
1308 1214500 DAIANE CAROLINE DE PAULA ESTAGIARIO PIRANGA; PIRANGA-PJ-UNPJ 0,00 0,00 0,00 117,00 0,00 0,00 0,00 0,00 0,00 31/08/2021
1309 1311800 DAIANE RIOGA VIANA ESTAGIARIO BELO HORIZONTE; PROC. JUSTICA DE HABEAS CORPUS 0,00 0,00 0,00 207,00 0,00 0,00 0,00 0,00 0,00 31/08/2021
1310 278000 DAIRTON LOPES MARTINS FILHO COORDENADOR/ANALISTA BELO HORIZONTE - COMARCA; DIRETORIA DE SISTEMAS DE INFORMACAO 1.198,00 0,00 519,00 0,00 0,00 0,00 0,00 0,00 0,00 31/08/2021
1311 392700 DALIANA CHAVES IBRAIM MARINHO OFICIAL DO MP ITAÚNA - COMARCA; ITAUNA-PJ-04PJ 1.198,00 0,00 519,00 0,00 0,00 0,00 0,00 0,00 0,00 31/08/2021
1312 1107100 DALILA MAGALHAES CABRAL ESTAGIARIO CONTAGEM; CONTAGEM-PJ-06PJ 0,00 0,00 0,00 108,00 0,00 0,00 0,00 0,00 0,00 31/08/2021
1313 558101 DALLEY TASSIA SILVA ANALISTA DO MP MORADA NOVA DE MINAS - COMARCA; MORADA NOVA DE MINAS-PJ-UNPJ 1.198,00 1.538,78 519,00 0,00 0,00 0,00 0,00 0,00 0,00 31/08/2021
1314 1219700 DALMO HUSSID FERREIRA ESTAGIARIO UBERABA; UBERABA-PJ-16PJ 0,00 0,00 0,00 207,00 0,00 0,00 0,00 0,00 0,00 31/08/2021
1315 476700 DALTON DAUD ANALISTA DO MP ARAGUARI - COMARCA; ARAGUARI-PJ-05PJ 1.198,00 0,00 519,00 0,00 0,00 0,00 0,00 0,00 0,00 31/08/2021
1316 1308800 DANIEL ALEFE GOUVEIA DE MELLO ESTAGIARIO GOVERNADOR VALADARES; GOVERNADOR VALADARES-PJ-04PJ 0,00 0,00 0,00 207,00 0,00 0,00 0,00 0,00 0,00 31/08/2021
1317 426900 DANIEL ALVES DA SILVA OFICIAL DO MP BELO HORIZONTE - COMARCA; DIVISAO TRANSPORTES 1.198,00 0,00 519,00 0,00 0,00 0,00 0,00 0,00 0,00 31/08/2021
1318 343900 DANIEL ANGELO DE OLIVEIRA RANGEL PROMOTOR 1A ENTRANCIA RIO PRETO - COMARCA; RIO PRETO-PJ-UNPJ 1.198,00 0,00 2.257,52 0,00 5.067,40 0,00 0,00 0,00 464,51